GFSWCAN_sfc_30mbdewp_042.txt.gz
Dewpoint
47 47 45 43 43 43 43 44 45 45 44 43 43 43 43 42 43 39 38 38 32 29 28 28 27 25 25 24 21 24 31 34 34 31 29 27 26 25 24 25 25 24 23 24 26 25 19 30 32 29 31 34 34 31
47 47 45 44 45 44 44 45 46 46 44 44 43 42 43 43 43 41 35 39 38 32 29 33 32 32 31 29 27 25 23 32 33 33 33 33 30 27 25 23 27 24 25 24 26 25 25 30 32 33 35 34 35 36
48 47 46 45 45 44 45 45 46 46 45 44 42 42 43 43 41 40 37 38 37 32 28 26 26 28 32 31 31 24 27 29 30 32 31 32 30 33 28 25 26 27 28 26 26 26 27 28 33 35 36 35 36 37
48 48 47 47 46 46 46 45 46 45 45 43 42 42 43 43 40 41 36 38 35 33 25 25 30 30 31 29 31 31 29 29 30 29 23 27 30 34 31 30 30 29 29 27 27 28 30 30 30 34 36 37 37 36
48 48 48 48 48 46 45 46 45 46 45 43 43 43 43 41 40 37 38 38 38 29 22 24 30 30 27 30 30 31 30 28 27 23 24 19 27 27 28 31 24 29 29 28 27 29 28 28 30 34 36 36 37 37
48 49 48 47 46 46 46 46 46 46 44 43 43 43 41 39 42 38 33 37 39 37 29 22 29 27 28 27 28 28 29 28 28 26 25 26 27 28 23 24 26 21 24 35 33 35 35 34 35 35 36 37 37 36
48 48 47 47 46 46 46 46 45 44 43 43 42 40 40 40 36 31 29 34 39 36 28 23 27 29 25 27 31 30 29 29 28 27 26 24 23 29 26 21 16 18 19 20 26 35 36 37 35 37 37 35 35 34
47 47 47 47 47 46 44 44 43 43 42 41 38 38 40 40 37 32 38 40 39 32 30 23 23 26 34 31 31 31 29 29 29 27 27 26 25 23 19 20 20 22 23 24 32 36 35 36 34 34 34 34 33 33
47 47 47 47 46 45 44 43 42 41 41 38 39 40 36 33 30 32 38 40 39 32 24 23 22 21 33 32 34 32 30 25 27 25 25 23 20 18 20 21 22 24 31 34 35 35 35 34 34 34 34 35 34 35
47 47 47 46 46 44 44 42 40 40 40 38 34 31 28 32 36 37 36 31 31 31 29 23 28 24 30 30 29 31 30 25 23 24 25 22 19 21 28 33 31 30 36 36 32 32 33 34 34 34 35 35 35 35
47 47 46 46 44 44 42 39 40 39 37 33 30 29 33 37 33 31 28 27 28 26 29 28 29 26 30 27 28 31 29 28 24 26 23 23 26 33 34 33 34 33 34 36 36 36 35 35 34 34 35 35 35 35
47 46 45 44 43 43 41 40 40 36 33 32 32 34 33 30 27 24 22 24 25 23 29 28 28 29 29 33 30 31 27 29 23 30 26 25 31 33 32 32 32 33 33 34 35 35 34 34 35 35 35 35 34 34
46 45 44 43 43 42 41 39 38 38 37 33 27 24 24 23 14 10 8 13 15 25 28 27 22 26 28 31 31 30 28 28 32 28 27 28 32 33 32 30 32 32 32 32 33 33 34 34 33 33 33 31 33 33
46 45 44 43 43 43 42 39 38 37 30 24 18 12 17 16 18 18 16 18 24 29 26 27 26 26 27 26 30 27 29 32 26 23 23 26 32 33 32 32 28 28 31 31 31 31 31 32 29 27 26 26 27 29
46 45 44 44 44 43 41 38 37 34 29 24 19 15 13 21 23 25 26 24 24 29 28 26 25 27 25 25 27 28 27 25 22 20 24 29 35 33 32 31 27 21 22 27 30 30 29 30 29 26 27 27 26 26
45 45 42 45 44 42 40 38 34 31 27 25 23 20 22 19 17 24 24 24 26 28 27 28 24 22 23 25 24 23 24 20 21 27 30 33 32 32 32 31 30 22 19 23 24 28 28 25 22 18 19 19 26 26
42 40 44 45 43 41 39 34 30 28 27 24 23 25 25 24 24 24 25 24 28 23 18 22 16 18 23 21 22 26 25 24 28 30 32 31 31 31 33 31 30 28 20 26 26 28 28 28 27 16 11 15 22 25
41 44 45 43 40 37 34 32 29 27 24 25 20 25 26 25 23 24 25 26 25 25 23 18 23 20 14 14 17 22 26 28 30 30 30 30 30 31 30 31 30 28 28 28 29 29 28 27 25 23 15 18 19 21
43 44 43 41 38 34 31 31 30 23 25 25 26 27 27 26 25 24 25 27 27 27 25 23 21 19 17 20 20 19 19 26 26 25 27 30 30 29 29 31 32 30 24 27 28 28 25 20 16 14 14 16 18 20
44 43 42 39 36 31 28 28 30 26 23 24 24 23 23 22 23 24 25 25 25 23 22 21 20 20 20 19 21 21 23 24 24 24 23 22 24 25 26 29 31 31 30 29 28 29 23 15 14 15 14 14 18 18
41 41 40 38 35 32 29 28 26 26 25 23 19 21 19 18 20 21 21 24 23 21 19 21 21 21 22 23 23 24 24 24 23 23 22 21 21 23 25 27 28 29 29 28 27 24 19 16 12 12 13 14 16 18
39 39 37 37 33 32 30 29 25 25 23 20 20 18 17 16 17 19 20 23 21 20 22 19 19 20 21 21 21 23 23 23 22 21 21 21 19 20 21 22 24 25 26 26 25 22 17 13 12 12 13 13 18 18
37 36 35 34 29 28 25 28 25 23 20 20 16 17 16 16 15 19 18 18 19 20 21 21 21 21 21 22 22 22 20 17 16 17 18 19 20 22 23 24 24 24 24 25 24 23 21 16 11 13 12 16 17 17
35 31 28 28 26 22 24 23 24 21 20 18 16 16 15 14 14 14 14 13 13 16 16 16 18 19 20 20 19 15 14 17 16 17 18 18 18 19 22 24 24 23 24 25 23 22 20 16 14 15 15 13 13 14
19 25 24 22 24 20 19 18 18 18 16 15 16 16 15 12 14 12 11 11 11 13 16 19 19 19 19 16 17 19 17 15 14 13 15 18 18 20 21 22 21 20 22 21 21 21 20 17 15 14 13 12 12 12
19 24 22 21 21 19 17 16 16 15 15 15 15 12 10 12 12 11 11 10 13 14 14 16 17 17 18 19 20 20 19 18 17 15 16 18 19 19 18 19 18 20 19 19 19 19 19 16 14 12 12 13 16 17
19 20 23 24 21 19 17 15 14 14 14 14 14 13 12 12 11 11 13 14 16 16 17 19 18 17 17 17 19 19 18 17 16 16 18 19 20 22 22 21 19 20 21 18 17 17 16 15 14 13 12 12 13 13
20 20 19 23 21 17 17 15 15 14 13 13 13 13 11 11 10 13 16 17 16 17 16 16 16 18 18 17 18 17 17 16 15 16 18 19 21 22 22 22 22 23 23 20 18 17 16 14 13 12 11 11 12 12
22 20 20 19 18 17 17 15 14 14 15 15 13 11 11 13 13 13 14 16 14 15 16 17 18 20 18 16 16 16 16 16 16 15 14 15 16 17 18 20 21 22 23 23 23 22 17 16 15 15 14 14 14 12
20 19 17 17 17 17 16 17 16 15 17 17 16 16 16 16 16 16 16 16 16 17 19 20 21 20 20 19 18 18 16 16 16 17 16 16 17 18 18 18 18 17 18 19 19 18 22 19 18 17 15 14 14 14
19 18 17 16 16 15 15 13 13 16 14 15 12 16 17 17 15 15 17 18 19 19 18 18 18 17 17 16 15 14 13 13 14 15 15 16 16 15 14 16 14 14 16 16 15 17 19 18 18 17 16 15 14 15
19 19 18 17 16 12 10 13 11 13 12 14 15 9 12 13 14 13 12 12 12 13 14 17 15 14 15 14 12 11 14 12 11 11 10 11 11 12 12 12 12 12 13 14 13 13 12 13 12 11 12 12 11 10
16 16 15 16 16 15 10 11 9 9 7 9 9 10 10 11 9 10 11 12 12 11 12 12 11 10 9 8 8 8 11 9 10 17 19 19 19 16 12 11 11 11 11 10 10 10 11 11 11 11 10 10 10 9

GFSWCAN_sfc_30mbdewp_048.txt.gz
Dewpoint
49 48 46 46 46 46 45 44 44 43 43 43 43 43 43 42 41 37 36 38 30 27 28 30 29 26 24 23 20 22 29 29 31 29 29 27 26 25 24 26 26 25 24 24 26 22 18 26 31 27 27 33 34 35
49 47 46 46 46 46 45 45 45 44 44 43 43 43 43 41 41 36 33 37 35 28 29 33 32 32 31 28 26 24 25 31 31 30 30 29 28 30 25 22 27 24 25 23 25 23 26 27 31 32 33 33 34 35
48 47 46 46 46 45 45 46 46 45 44 43 43 43 42 41 40 37 36 37 31 26 26 26 27 29 30 31 31 23 26 28 29 31 30 30 27 30 26 25 26 27 28 26 26 26 28 30 30 32 32 33 35 36
47 47 46 46 45 45 45 46 46 45 44 42 43 43 41 41 40 37 35 36 32 28 23 25 29 29 30 30 31 30 29 29 29 27 22 25 26 31 29 29 29 30 30 28 26 26 28 30 30 29 27 34 36 37
47 47 46 45 45 46 46 46 46 45 43 42 43 42 41 40 38 38 37 37 35 26 23 24 28 29 28 30 31 31 30 28 27 23 22 22 24 24 26 26 23 24 23 21 22 26 23 23 25 23 30 35 36 36
47 46 45 45 46 46 47 47 46 45 43 43 43 40 40 39 38 34 30 33 38 34 23 22 27 27 28 27 28 29 30 29 29 26 24 26 27 25 17 17 22 25 20 20 23 21 23 24 26 28 35 34 35 37
47 46 46 46 46 47 47 47 46 44 43 43 40 41 42 40 34 28 26 32 38 33 25 24 25 28 30 31 32 29 29 29 28 27 26 24 23 28 25 19 19 23 27 32 34 30 30 30 32 35 36 35 35 37
46 45 46 46 47 47 47 47 45 43 43 40 40 40 38 38 35 32 37 39 35 29 25 17 17 26 33 30 31 32 30 29 28 27 27 26 25 23 18 23 29 31 33 32 32 33 32 34 35 35 35 35 34 34
46 46 46 47 47 47 47 46 44 43 40 40 40 39 33 30 27 30 38 38 34 27 22 21 18 13 28 28 31 32 31 24 28 25 25 24 22 23 28 30 31 32 31 31 32 33 34 33 33 35 35 36 35 35
46 46 47 46 46 47 46 44 43 40 42 41 35 27 24 32 36 37 32 29 29 30 26 23 26 20 26 25 25 29 30 26 22 25 26 24 24 26 28 31 34 32 32 32 29 29 32 32 32 33 33 36 36 35
47 47 46 46 46 45 44 43 40 42 38 32 28 27 32 36 31 28 25 23 24 21 27 27 25 23 28 24 25 30 28 28 22 25 24 24 23 24 32 33 34 33 31 31 32 32 33 33 32 31 32 36 36 35
46 46 46 46 45 44 43 41 42 35 33 31 31 33 30 26 22 16 17 20 20 14 27 25 26 26 27 30 29 30 26 28 22 28 25 23 21 25 32 33 33 33 30 28 30 31 31 32 32 31 32 31 32 33
46 46 45 45 44 43 42 42 37 36 33 28 24 22 20 18 7 -2 3 11 13 22 26 24 18 26 27 29 28 29 27 25 30 25 24 19 24 24 31 33 33 33 29 24 27 31 31 31 31 30 30 29 29 29
46 45 45 44 43 42 42 40 37 33 28 20 13 11 11 9 10 10 9 13 19 27 24 25 24 24 26 25 26 22 25 28 25 21 17 22 21 25 31 30 31 31 31 28 21 28 30 30 29 30 30 29 26 27
45 45 44 43 42 42 42 39 35 31 26 18 14 5 12 20 22 22 23 24 25 27 26 24 23 24 23 23 25 22 20 20 22 16 19 22 26 28 29 29 28 29 30 30 24 23 28 29 29 28 28 26 24 28
44 42 41 42 41 40 38 35 32 29 24 21 19 15 21 19 20 22 23 21 23 26 26 23 21 20 20 21 20 19 19 18 19 21 23 25 26 27 26 26 27 28 29 30 28 23 25 27 29 28 29 28 22 25
40 41 42 41 41 39 35 31 28 25 22 18 14 23 19 18 16 21 23 23 26 23 18 20 13 11 20 19 18 21 21 23 21 18 21 23 23 24 25 25 26 27 27 28 29 27 28 30 30 28 27 28 27 25
40 42 42 40 37 35 33 30 25 21 16 21 14 21 24 23 23 23 24 26 25 22 20 14 19 17 13 9 10 17 23 27 28 26 25 24 23 23 24 24 24 24 24 25 27 30 30 29 28 28 29 28 26 21
41 41 41 39 35 31 28 28 25 17 23 24 24 25 25 25 24 24 25 26 26 25 23 22 18 16 14 17 14 12 14 18 17 21 22 22 22 22 21 21 20 21 22 23 26 27 28 29 29 30 29 25 21 20
42 41 39 36 32 28 25 26 27 21 19 23 24 23 22 22 21 22 24 26 25 23 23 21 18 18 17 16 18 18 19 20 21 20 19 20 20 19 19 20 20 21 21 22 24 26 27 28 29 29 28 26 18 17
39 38 37 35 31 28 26 25 25 24 23 20 18 19 18 16 19 21 22 23 25 23 21 21 21 20 21 21 22 22 22 22 21 21 20 20 22 21 21 21 21 20 19 19 21 23 25 26 28 29 28 26 20 18
39 38 35 34 31 29 27 26 24 24 21 19 18 19 17 17 16 17 19 23 22 21 21 20 19 20 20 20 20 21 21 21 22 22 24 23 22 17 16 17 21 19 18 18 20 21 23 25 27 28 27 26 21 15
35 34 33 29 25 23 24 27 22 22 19 18 16 17 16 15 12 17 18 21 21 21 21 21 21 20 19 19 19 19 20 20 20 20 19 19 18 18 19 20 21 18 16 17 19 21 23 24 25 26 26 26 24 16
31 28 27 24 22 20 25 23 23 20 20 18 17 15 15 13 13 14 15 15 15 17 16 16 16 15 17 17 17 18 19 19 19 20 21 21 19 19 18 18 17 17 18 19 20 21 22 22 24 24 22 19 22 22
19 23 22 21 20 19 19 19 20 19 17 17 16 16 14 11 13 13 12 12 11 12 12 13 14 16 17 17 17 16 17 18 17 18 20 21 20 19 18 18 18 18 19 18 18 19 19 20 21 21 21 19 16 14
14 23 17 19 19 17 17 16 16 16 15 14 13 9 7 12 13 10 11 11 10 10 11 12 13 15 16 18 17 16 17 19 20 19 19 19 19 18 16 16 17 17 18 18 18 18 19 19 20 19 19 19 20 17
16 20 22 22 20 17 15 14 14 13 13 14 13 11 12 12 11 12 12 12 11 12 14 14 15 15 15 16 18 19 19 19 19 19 20 19 18 18 18 17 17 18 20 21 21 21 21 20 19 18 17 17 16 16
19 22 18 21 19 16 16 14 14 13 13 12 12 12 11 11 8 11 12 14 14 13 13 15 16 17 17 17 18 19 19 18 16 16 16 15 16 16 16 17 18 20 22 21 20 21 22 22 21 20 18 17 16 14
18 21 22 19 17 18 17 15 15 15 15 13 12 11 10 12 12 10 11 12 11 11 13 15 18 18 18 17 17 18 18 17 17 15 13 12 13 13 14 15 15 15 15 15 16 19 21 22 22 21 20 17 15 14
20 19 18 18 17 16 17 17 16 13 15 14 14 14 14 14 14 13 13 14 15 16 18 19 20 19 19 19 19 18 16 15 15 16 13 12 13 12 13 12 12 12 12 13 14 16 19 21 22 19 16 14 13 13
18 17 16 16 16 15 13 10 11 14 14 14 11 15 15 16 15 15 17 18 19 20 19 17 17 17 17 15 14 13 12 12 12 13 13 13 12 11 12 12 11 10 11 12 14 15 16 18 17 17 15 14 13 14
18 18 18 17 16 11 8 13 10 13 10 12 14 10 13 14 14 15 15 14 13 12 14 18 15 13 15 15 14 13 17 15 12 11 10 11 14 14 14 11 9 9 10 10 11 11 11 13 14 14 14 13 12 11
15 17 16 16 16 16 10 12 10 9 7 9 10 8 9 12 13 13 11 11 12 12 12 12 11 11 10 10 9 8 10 7 9 14 17 19 19 19 18 16 11 11 11 10 10 10 10 11 10 10 10 10 10 9

GFSWCAN_sfc_30mbdewp_051.txt.gz
Dewpoint
51 49 48 48 47 46 45 44 43 43 43 43 43 43 42 41 40 36 36 36 28 27 28 30 29 26 23 22 25 22 28 29 30 30 28 27 26 25 24 25 26 25 24 25 26 23 18 27 29 28 30 32 32 34
50 49 48 48 47 46 45 44 43 43 43 43 43 43 41 41 40 35 33 37 33 28 28 32 31 31 31 29 26 24 27 30 30 31 29 28 28 28 26 21 26 24 25 24 25 22 26 29 29 31 29 28 29 33
49 48 47 47 47 46 46 44 44 44 43 43 43 43 41 40 39 37 35 35 29 26 27 27 27 29 30 30 31 22 26 27 28 30 30 29 26 29 25 25 27 27 30 27 27 27 24 23 30 25 24 23 27 35
49 48 47 47 47 47 46 46 44 44 43 43 43 42 41 39 38 36 33 34 29 27 23 25 28 29 30 31 31 30 29 29 29 27 23 26 25 29 27 28 27 29 26 23 22 26 22 25 24 24 26 26 33 34
48 47 47 47 47 47 47 47 45 44 43 43 43 41 39 38 38 37 36 36 33 26 24 25 28 28 29 31 31 31 29 27 26 22 21 22 24 23 24 24 21 24 19 21 20 23 22 23 25 27 26 30 34 35
48 47 46 47 46 46 47 47 46 44 43 43 42 41 39 39 38 31 27 32 37 31 25 23 27 28 26 28 29 29 29 29 28 25 25 26 27 26 19 15 22 23 24 23 27 30 32 32 29 28 31 34 35 36
47 46 46 46 46 47 47 47 46 44 43 43 41 41 39 39 36 29 27 33 37 31 25 24 24 27 33 32 31 29 30 29 27 27 26 25 23 26 25 18 23 27 31 33 32 32 30 31 31 33 34 35 35 35
46 46 45 46 46 47 47 47 45 44 43 41 41 41 40 38 36 32 37 37 32 26 22 13 16 24 29 28 30 32 29 28 28 26 27 26 27 26 20 21 28 32 34 33 31 32 32 33 34 33 35 36 35 34
46 45 45 46 46 47 47 46 44 43 41 41 40 38 33 30 28 32 38 37 32 26 17 17 12 11 27 26 30 32 29 24 28 24 24 26 25 22 24 27 30 33 32 31 31 31 30 30 32 34 33 34 33 35
45 45 46 46 46 46 46 45 44 42 41 40 35 28 27 32 36 37 30 27 27 27 26 19 25 17 25 25 25 28 29 26 21 24 28 25 24 25 26 30 32 33 33 32 28 27 29 29 30 31 32 32 35 36
45 45 46 46 46 46 45 44 42 42 40 33 28 28 32 36 31 26 21 19 21 17 26 25 24 22 27 23 24 28 26 27 21 23 24 23 23 24 29 31 33 33 33 31 30 28 29 31 30 30 30 32 31 32
45 45 46 46 46 45 44 42 43 37 35 32 32 33 29 24 18 12 14 18 17 12 26 24 26 26 26 29 26 28 24 26 20 26 23 22 23 24 25 30 31 32 32 31 29 25 27 30 31 30 30 30 30 30
45 45 46 45 45 44 42 43 37 37 34 28 25 22 19 17 3 -7 -1 8 13 23 26 24 18 25 27 28 27 26 23 23 28 24 21 21 22 22 24 30 30 30 30 30 29 27 26 28 31 30 29 30 29 28
45 45 45 45 44 43 43 39 38 33 27 19 15 10 7 4 3 5 5 11 20 25 24 24 23 24 26 24 25 20 22 29 24 20 20 21 21 23 26 29 28 25 26 27 28 28 26 25 28 29 29 28 26 24
45 45 44 43 42 42 40 38 35 30 25 16 14 3 10 19 21 20 22 24 26 27 25 23 23 24 22 21 23 21 18 18 21 19 18 20 23 25 25 25 24 24 24 26 26 27 26 25 26 27 29 29 28 24
45 44 42 43 43 41 39 34 31 28 23 20 18 15 21 19 20 23 23 21 25 26 24 21 20 19 19 19 18 18 17 16 18 19 20 21 20 20 20 22 23 24 25 25 25 26 27 26 26 28 30 29 29 27
41 41 43 43 41 37 34 30 28 23 20 17 13 22 19 17 19 21 22 23 25 24 17 19 11 9 20 18 18 20 18 20 22 19 19 20 20 21 22 23 23 23 23 22 23 24 25 27 29 30 28 28 29 28
40 42 42 40 36 34 31 28 24 20 16 21 14 20 22 22 23 23 24 26 24 21 19 14 18 15 12 9 10 16 21 22 26 26 23 23 23 22 22 22 21 22 21 20 20 21 24 26 26 26 28 29 29 28
40 40 39 36 34 30 27 28 24 17 22 23 24 25 24 24 24 24 24 26 25 23 21 20 17 15 13 16 12 13 14 16 17 19 20 21 21 21 20 20 20 19 19 18 18 19 22 25 26 26 27 29 27 28
41 39 37 36 32 26 23 25 25 21 18 22 23 22 21 21 21 22 24 26 25 22 22 20 18 16 16 16 18 18 19 20 20 20 19 19 20 20 20 20 20 20 20 20 20 21 21 23 25 26 28 28 26 26
38 37 36 33 29 27 26 24 24 23 22 19 18 18 17 16 19 22 23 23 24 23 21 22 21 20 21 21 21 21 21 21 20 20 20 19 21 22 22 21 21 20 19 20 19 17 18 19 21 24 27 28 28 27
36 37 33 33 28 27 25 25 23 22 19 19 18 18 16 17 16 18 19 23 22 22 22 20 19 20 20 20 19 20 20 20 21 21 22 23 22 20 17 17 18 18 19 20 19 17 17 18 21 24 26 27 27 26
34 32 28 25 22 23 23 26 21 20 17 16 15 16 15 15 12 16 18 20 20 21 21 21 21 20 20 20 17 18 18 18 19 19 20 20 21 21 20 20 19 19 19 19 18 18 18 20 21 22 24 25 26 25
30 28 24 21 21 21 24 22 20 20 19 17 16 14 15 13 12 15 14 14 16 17 17 18 19 18 15 16 16 17 18 18 18 19 19 18 18 19 20 20 19 19 18 18 18 18 19 19 21 21 22 23 23 23
17 20 20 19 20 19 19 19 19 17 16 17 15 14 13 10 13 13 13 12 11 11 12 12 13 14 13 14 16 17 18 18 17 16 18 19 19 20 20 19 19 18 18 17 17 18 18 18 19 19 20 20 20 22
15 21 16 19 18 15 16 14 16 15 15 14 13 7 6 11 13 10 12 12 12 11 10 11 11 12 13 15 15 16 17 18 18 18 19 19 19 18 18 18 17 18 18 18 19 19 19 19 19 19 19 19 20 23
13 18 21 21 18 16 15 14 14 14 13 13 11 10 12 12 11 11 12 12 11 11 12 13 13 13 13 14 16 18 19 18 18 19 19 19 19 19 18 17 16 18 19 20 20 20 19 19 19 20 20 20 19 18
20 21 17 19 17 15 14 14 13 12 13 12 12 12 11 10 6 11 12 13 12 12 12 12 13 15 15 16 17 18 18 17 16 16 15 14 15 15 15 15 16 18 19 16 16 17 18 18 19 20 20 20 20 18
19 21 20 18 17 16 15 14 13 14 14 13 12 12 11 12 12 11 11 11 10 11 12 14 16 16 16 16 16 17 17 16 16 11 9 10 11 12 12 12 12 12 13 12 14 16 17 18 19 20 21 21 20 16
20 19 18 17 16 14 17 16 15 13 14 14 14 14 14 13 13 13 12 12 14 15 18 18 18 18 18 17 17 16 15 15 15 15 12 11 12 12 12 12 12 12 10 10 11 12 16 18 19 21 19 16 14 14
17 16 16 16 15 14 11 8 10 14 12 13 11 14 14 14 14 14 15 17 19 18 18 16 16 15 15 14 13 11 11 12 11 12 13 13 12 12 12 13 12 10 9 9 10 11 12 14 15 16 16 15 13 14
18 17 16 15 16 10 7 12 10 12 9 12 14 8 12 13 14 14 14 14 14 12 14 16 14 13 14 13 12 12 16 14 13 12 11 10 10 12 13 14 14 10 11 10 9 9 9 9 10 11 12 12 11 11
16 17 16 15 16 15 10 10 10 11 8 9 9 7 7 11 13 14 10 8 11 11 11 9 8 7 7 7 7 7 9 6 8 14 16 18 18 18 20 18 15 12 12 12 11 10 10 10 10 9 8 8 8 7

GFSWCAN_sfc_30mbdewp_054.txt.gz
Dewpoint
46 47 50 49 49 48 47 45 44 43 43 43 43 42 41 39 40 37 36 36 29 27 29 30 30 24 23 22 29 24 29 30 32 31 29 28 26 26 25 25 26 25 24 23 25 21 18 24 30 27 28 24 22 22
45 49 50 49 48 48 46 46 44 43 43 43 43 42 41 39 39 36 33 36 33 29 28 32 31 32 30 28 24 28 30 31 31 31 29 29 28 28 26 21 26 26 26 25 25 24 27 23 29 26 26 26 25 25
46 50 49 49 48 47 46 45 44 43 43 43 43 41 41 40 39 37 34 33 32 28 27 27 27 29 30 31 31 22 27 29 29 30 31 29 27 29 25 26 28 28 27 26 23 28 25 25 30 26 26 28 28 30
46 50 49 48 47 47 46 45 44 43 43 43 42 40 39 39 38 36 33 34 33 30 26 26 29 29 30 32 31 31 29 30 29 28 25 28 26 29 27 27 25 25 21 20 19 21 25 26 27 28 30 30 29 33
45 49 49 48 47 46 45 45 44 44 43 43 42 40 39 39 38 37 37 37 34 30 26 26 28 29 29 31 31 30 29 28 26 25 25 23 25 23 23 23 21 21 25 25 23 25 27 27 30 32 31 30 31 32
49 49 48 47 47 46 45 45 45 44 44 43 41 39 39 39 36 32 27 35 36 33 29 25 28 29 30 30 30 29 30 29 28 25 25 26 27 27 19 15 22 24 26 29 28 29 31 32 31 31 31 33 33 34
49 48 48 47 47 46 46 45 45 44 44 42 41 39 39 39 38 31 29 34 36 32 28 26 26 27 33 32 32 30 31 30 28 27 26 24 24 27 24 19 24 28 32 33 33 32 30 32 31 33 33 35 35 34
49 48 47 47 47 47 46 45 44 44 42 41 40 40 39 38 36 33 36 36 32 26 23 19 20 25 29 29 28 33 29 28 29 27 27 26 27 26 23 25 25 29 31 33 31 31 30 30 31 32 32 33 33 33
48 47 47 47 47 46 46 45 44 43 42 41 40 38 34 32 31 34 39 36 33 28 15 18 15 15 27 27 31 32 29 25 28 25 24 26 25 24 24 25 27 29 30 31 30 30 28 27 29 31 31 32 31 32
47 46 47 47 47 46 45 44 43 43 42 40 34 29 29 33 37 37 30 28 27 28 26 20 25 20 26 26 27 28 29 26 24 24 27 24 24 26 26 28 31 32 31 31 29 28 26 26 26 28 30 30 31 32
47 46 46 46 46 45 44 43 43 41 37 32 28 30 33 37 30 26 21 18 20 17 27 25 25 23 28 24 25 28 26 26 22 25 25 24 23 25 28 30 31 30 30 31 31 31 30 26 25 28 29 30 30 30
46 46 46 46 45 44 43 42 40 35 33 32 33 33 29 25 19 11 14 19 16 15 27 25 26 26 27 30 26 28 25 26 21 27 24 22 25 24 24 25 29 30 29 28 28 28 28 28 26 27 28 29 30 30
45 46 46 45 44 43 42 40 36 37 34 30 26 22 18 16 -0 -9 -7 8 15 24 26 25 22 26 27 29 27 25 24 23 28 24 21 23 22 21 22 25 27 30 28 26 25 26 27 28 28 28 28 29 30 28
45 45 45 44 43 42 41 38 37 33 27 20 17 7 5 0 2 4 7 13 22 26 25 24 24 25 26 25 25 21 23 28 22 21 22 22 22 21 24 25 26 23 23 24 25 26 26 27 26 27 29 29 29 28
45 45 44 43 43 42 40 38 33 30 25 15 15 3 9 20 21 21 23 25 26 26 25 24 24 24 23 21 22 20 18 18 20 22 22 22 20 22 21 21 21 22 22 22 24 24 25 26 27 26 27 29 30 29
45 44 42 43 41 40 37 33 31 28 24 20 19 16 22 18 21 24 23 23 27 26 24 23 21 18 19 20 18 17 17 16 19 22 22 20 19 19 20 21 22 22 22 22 22 22 21 22 23 26 27 28 30 30
42 41 43 41 40 37 33 31 28 23 20 16 15 24 21 20 19 22 22 23 27 24 17 18 9 9 20 19 17 19 19 21 25 23 22 21 20 20 22 22 22 22 22 22 21 21 21 21 22 26 25 25 27 29
40 42 42 38 35 33 31 28 24 21 15 20 17 21 22 22 21 22 24 26 25 21 19 14 18 14 12 10 12 18 22 24 23 23 24 23 22 22 23 22 22 22 22 21 21 20 21 21 21 21 24 26 26 27
41 40 39 36 33 31 28 27 25 18 22 24 24 24 24 23 24 25 26 26 24 22 20 19 16 14 13 16 14 16 17 18 18 19 19 20 21 21 21 21 21 21 20 20 20 20 21 22 21 21 23 26 25 27
40 39 37 34 31 28 24 24 25 21 19 23 23 22 21 21 21 24 25 25 24 23 21 19 17 17 16 17 19 19 20 20 20 18 17 18 19 20 21 21 21 22 21 21 21 21 22 20 18 20 22 24 26 26
37 36 35 31 29 27 25 24 22 22 22 19 19 18 18 19 22 23 23 24 24 23 21 22 21 21 20 20 21 21 21 21 19 19 18 18 20 21 22 23 23 22 20 19 19 19 19 18 17 18 19 22 24 27
36 35 32 31 27 26 24 24 23 21 19 18 18 17 18 17 18 20 20 24 24 23 23 22 21 21 21 20 20 21 20 20 20 20 22 22 21 20 20 21 21 21 21 21 21 20 19 18 18 19 21 22 24 26
34 31 27 26 22 23 22 25 20 19 16 17 15 16 15 15 14 17 18 19 21 21 22 22 22 20 21 21 19 17 18 18 18 19 19 20 20 21 21 21 20 21 21 21 21 21 19 19 19 20 21 22 22 24
30 25 22 20 21 21 24 21 20 19 17 17 14 13 14 13 12 16 14 15 16 17 19 20 20 21 19 17 16 14 16 18 19 19 19 19 18 18 18 19 20 20 21 20 20 19 19 18 19 19 19 20 21 21
15 19 18 17 20 18 18 18 18 16 14 16 12 13 12 10 13 14 13 14 13 14 14 14 15 17 14 13 14 14 16 18 17 17 19 19 18 19 19 20 20 20 20 20 19 18 19 19 19 19 19 19 20 20
12 20 16 17 16 13 15 11 14 14 14 13 12 7 7 13 13 11 12 13 13 12 12 12 12 12 13 14 13 14 15 17 18 17 18 19 19 19 19 19 18 18 19 19 19 18 19 19 19 19 19 19 20 21
10 17 21 20 17 16 15 15 14 13 11 12 10 11 12 10 10 11 13 13 12 13 12 13 14 13 13 14 16 17 18 18 18 19 19 19 19 20 20 19 17 17 19 19 19 18 16 16 17 17 17 18 20 20
20 21 16 18 16 15 14 14 13 12 13 12 12 12 10 9 4 11 13 14 14 13 13 13 14 14 14 15 17 17 17 17 16 16 17 16 16 16 16 16 16 17 17 15 16 17 16 16 16 16 16 17 19 21
20 20 18 16 16 16 14 12 12 13 13 13 11 11 11 12 13 12 11 12 11 12 12 13 15 15 15 15 16 17 17 16 15 10 9 10 12 12 12 13 13 13 13 12 14 16 16 18 20 20 21 20 21 20
20 19 17 16 14 14 16 14 14 13 14 14 13 14 14 13 13 13 12 12 12 14 16 17 18 17 18 17 16 15 14 14 15 15 12 12 14 12 12 13 13 14 12 11 11 10 13 15 15 17 19 19 17 15
17 17 16 16 15 13 10 8 10 13 11 13 10 14 14 13 14 15 15 16 17 16 17 17 16 15 15 14 13 11 11 12 11 13 13 14 14 13 12 12 13 13 12 11 11 10 10 11 11 12 13 14 13 13
17 16 15 14 15 9 6 11 10 12 9 13 13 9 11 14 14 15 13 13 13 14 15 14 11 10 12 11 10 10 13 12 10 8 8 10 10 12 13 14 16 15 13 12 11 11 10 9 10 10 9 9 9 9
17 15 14 15 15 14 10 10 10 12 9 11 10 6 7 11 13 13 9 7 10 11 9 9 8 7 6 5 6 6 8 5 6 14 16 17 18 18 20 20 18 15 13 12 11 9 8 8 8 8 7 7 7 7

GFSWCAN_sfc_30mbdewp_057.txt.gz
Dewpoint
41 42 42 45 47 50 49 48 47 45 44 43 43 42 41 39 38 36 35 35 30 26 29 29 28 25 25 25 29 27 30 31 32 31 30 28 25 25 24 26 25 25 24 23 22 22 18 23 29 26 27 27 27 27
42 42 42 45 50 50 48 47 46 45 44 43 43 40 40 39 38 35 32 33 32 28 29 31 30 30 30 29 26 30 31 31 32 31 29 29 27 27 24 21 27 24 25 24 24 25 26 24 25 27 27 26 28 28
41 41 42 45 50 49 48 47 45 45 44 43 42 42 39 39 38 37 34 33 29 27 27 26 27 29 30 30 31 27 29 31 30 32 31 29 27 29 23 23 26 28 26 27 24 27 27 23 26 27 28 30 30 30
42 41 43 45 48 49 48 47 45 45 43 42 42 41 40 39 37 35 32 35 35 28 25 27 29 28 30 31 31 30 29 30 29 29 28 30 27 29 26 27 25 24 21 20 18 18 24 25 27 29 31 31 31 30
43 41 43 50 49 48 47 46 45 44 43 41 41 41 39 38 38 37 36 36 34 33 24 26 28 29 29 30 29 29 28 27 26 26 26 24 25 24 22 21 17 19 21 20 19 27 27 26 29 31 30 30 31 32
42 41 43 49 48 47 46 46 45 44 43 42 40 40 39 38 37 33 30 36 35 36 30 25 30 31 30 29 29 28 29 28 27 26 25 26 27 27 20 15 21 23 26 28 28 32 32 31 31 31 31 32 33 34
41 42 46 46 47 46 46 45 45 44 43 40 39 39 39 39 38 33 33 35 35 36 29 27 27 29 33 33 32 30 30 30 28 28 26 24 25 28 24 19 19 25 29 30 32 32 29 29 29 29 30 31 32 33
41 44 46 48 47 46 45 45 45 43 41 40 39 39 38 38 37 32 35 36 35 29 29 26 25 26 30 29 28 32 28 29 29 28 28 26 27 27 25 25 25 26 28 28 30 29 29 29 27 26 29 31 31 30
43 46 47 47 46 46 45 45 44 42 41 40 37 35 36 34 32 34 39 36 36 33 21 26 24 21 28 29 31 30 29 26 28 26 25 26 25 25 25 22 22 26 27 27 28 29 28 26 26 26 26 28 28 30
45 48 47 46 46 45 45 44 43 42 41 36 32 31 31 33 37 38 33 31 31 30 29 24 27 23 27 27 27 27 29 26 25 25 27 24 24 26 25 24 25 26 26 27 27 27 28 28 27 26 24 26 27 28
45 47 47 46 46 45 44 43 42 41 35 32 31 31 35 37 33 28 23 24 22 22 26 26 27 23 28 26 25 27 25 25 24 26 25 25 22 22 24 24 26 25 25 25 25 25 26 25 25 26 26 25 27 28
47 47 46 46 45 44 43 42 41 35 35 34 35 35 32 28 24 14 17 22 20 21 27 25 25 26 28 30 25 28 24 25 22 27 25 22 26 23 20 23 23 24 25 23 22 21 22 23 24 25 26 27 28 29
47 46 46 45 44 43 43 41 38 38 35 33 27 24 23 18 7 2 -0 13 19 26 26 25 24 26 28 28 26 25 24 22 28 24 21 24 20 18 19 20 20 24 27 26 24 23 24 25 26 26 25 26 26 28
46 46 45 45 44 43 41 39 37 32 29 24 19 6 14 5 9 13 20 23 26 28 26 26 25 25 26 25 25 22 22 26 21 18 20 20 20 18 18 19 19 18 19 22 24 25 26 27 27 27 27 27 26 26
46 45 45 44 43 41 40 37 32 31 27 18 22 6 14 22 24 25 28 27 27 27 26 26 25 24 24 23 21 21 19 17 19 19 25 23 20 19 19 19 19 19 19 20 20 22 24 24 24 23 24 23 25 25
45 44 43 43 41 40 36 34 32 30 27 23 23 17 22 22 23 26 27 26 27 26 26 26 22 19 21 21 19 19 17 16 20 27 25 19 19 20 21 20 21 21 21 21 20 20 20 19 20 22 23 23 24 26
42 41 43 41 39 36 34 32 28 24 23 22 21 24 26 23 24 26 24 23 27 26 23 22 11 15 21 20 18 18 19 22 26 27 26 24 25 24 22 21 22 22 22 22 22 22 22 22 23 23 23 23 23 24
41 42 41 38 34 33 31 29 26 23 19 24 24 23 22 23 22 22 24 26 27 24 23 18 21 16 14 13 16 21 25 29 25 24 22 22 21 20 21 22 22 22 22 23 24 24 23 23 23 22 21 21 21 23
41 40 37 34 33 31 27 27 28 20 24 25 25 25 25 24 26 26 26 25 24 23 22 22 17 17 16 18 21 25 25 22 18 17 18 19 19 19 21 22 23 23 24 24 24 23 22 22 21 22 22 21 21 21
39 37 35 33 31 28 25 25 29 24 22 23 25 22 22 23 24 26 26 26 26 26 21 18 18 19 17 20 24 23 24 23 20 17 16 16 18 20 21 22 22 23 24 23 23 22 21 20 20 20 18 18 19 19
36 35 34 32 30 27 26 25 23 24 23 20 22 22 21 24 25 26 26 26 26 24 21 24 22 22 21 20 21 22 22 21 19 18 15 17 19 20 22 23 24 23 21 20 19 19 19 19 19 19 18 18 19 21
36 35 32 31 28 27 24 24 23 22 20 21 21 22 21 20 21 22 23 26 25 26 25 24 23 23 23 23 23 23 22 20 20 20 21 22 21 21 22 22 23 22 23 23 23 22 21 21 20 19 19 19 20 22
33 31 29 29 24 23 22 26 21 21 18 17 19 17 16 17 17 19 19 22 23 25 24 24 24 22 22 23 21 21 20 19 18 18 19 19 20 21 22 22 21 22 21 21 22 21 21 20 20 19 19 19 19 19
29 26 23 23 24 21 24 21 20 19 19 18 14 12 15 15 16 17 14 19 20 20 20 22 22 22 21 20 19 15 17 19 19 20 20 19 19 19 18 18 18 18 20 21 21 21 21 20 19 18 19 20 20 20
22 21 22 17 22 19 18 18 18 16 15 16 13 13 13 13 14 14 14 17 18 17 18 19 19 21 19 16 16 15 17 18 17 18 19 21 20 19 20 21 20 20 21 21 21 20 20 19 19 19 19 19 19 20
15 20 17 16 15 15 16 11 13 14 14 13 12 11 11 15 13 11 14 17 16 16 17 15 14 15 15 16 14 15 17 20 20 18 18 20 21 20 20 19 19 20 20 20 20 19 18 18 17 17 17 17 18 18
12 18 20 19 17 16 14 15 15 14 10 9 11 12 13 10 9 13 15 16 14 18 19 20 18 16 15 18 19 19 19 20 19 19 20 21 21 21 21 20 19 20 19 19 19 18 16 16 16 16 16 17 17 18
20 20 14 17 16 17 14 14 13 11 13 13 13 11 9 9 6 13 15 19 19 19 18 18 17 18 17 18 20 20 20 21 20 19 19 19 19 20 21 20 20 19 19 18 17 17 17 16 16 16 16 17 18 19
19 19 19 16 16 16 15 13 13 14 14 15 12 10 11 14 15 14 16 17 16 16 14 15 19 19 19 20 20 20 20 20 16 10 10 12 15 18 15 15 16 16 16 15 16 17 17 17 18 18 19 19 21 22
19 20 17 16 14 15 16 14 16 15 15 15 15 14 14 15 17 18 16 16 15 15 18 20 21 19 19 19 17 16 17 17 17 15 14 14 17 17 16 15 15 15 16 15 14 14 14 15 14 13 13 15 17 17
19 19 16 16 15 13 11 9 12 13 13 14 13 15 15 14 16 18 17 17 17 18 18 18 18 17 15 15 14 13 13 15 13 13 13 13 13 14 14 14 14 15 16 14 13 13 12 11 11 11 11 10 10 11
18 16 15 14 14 12 10 12 13 14 13 15 15 12 14 15 14 18 15 14 16 16 17 14 11 12 12 11 10 10 12 12 10 9 9 11 13 15 16 16 17 18 17 14 13 12 11 9 9 9 9 9 8 8
17 16 15 15 15 14 13 13 13 13 12 13 12 9 10 12 12 15 12 10 12 12 11 12 12 11 9 8 8 8 9 8 8 14 15 17 18 18 20 21 20 18 15 14 13 11 9 8 7 7 7 6 6 6

GFSWCAN_sfc_30mbdewp_063.txt.gz
Dewpoint
42 41 41 39 39 38 41 44 45 50 48 48 47 46 43 46 46 34 34 36 30 29 29 30 29 29 29 30 29 28 30 32 33 29 29 28 25 25 25 28 26 25 23 24 25 25 22 24 27 26 26 29 30 30
42 40 41 40 39 38 43 44 44 45 48 47 46 43 42 46 40 35 31 33 33 29 28 30 30 31 30 30 30 32 31 32 33 30 30 29 27 27 25 23 27 25 26 25 25 25 25 26 29 31 31 30 30 30
41 39 41 40 38 39 44 43 45 48 47 46 45 42 42 41 38 35 32 32 29 28 27 27 27 29 31 31 31 30 30 31 31 33 31 30 27 29 24 24 26 28 25 26 25 25 25 29 30 30 30 30 30 31
40 41 41 40 38 42 42 44 48 47 46 45 44 43 41 40 39 36 32 37 30 28 24 27 29 28 30 31 30 30 31 31 31 31 30 29 27 29 26 27 26 27 23 22 22 27 27 30 30 30 30 30 30 30
41 41 40 38 39 42 43 48 47 47 46 45 45 43 41 40 39 36 36 36 36 26 25 27 29 30 30 30 29 30 29 29 29 27 26 25 26 24 22 21 21 22 22 20 18 28 27 29 31 30 28 28 30 30
41 41 39 38 42 42 43 45 47 46 46 45 43 41 41 40 38 33 24 32 36 32 28 25 31 31 32 31 30 30 29 29 29 27 26 26 27 27 17 18 21 27 28 28 28 31 32 32 30 30 28 28 29 30
41 40 39 39 41 42 43 43 47 45 45 44 42 42 41 40 37 33 26 31 36 35 27 26 26 30 32 33 32 31 31 30 29 28 26 25 26 28 25 20 22 26 29 31 31 29 28 29 27 28 26 27 27 28
41 39 39 42 42 41 43 47 46 45 44 42 42 41 39 37 35 28 32 36 37 32 28 21 24 26 29 28 28 31 28 30 28 28 27 25 26 26 22 25 26 28 29 29 29 28 28 28 27 27 28 27 25 25
40 39 42 41 43 47 47 46 45 44 43 42 41 40 35 33 27 27 36 38 37 22 23 23 19 19 28 28 29 29 30 26 28 27 26 27 26 23 23 26 26 27 26 27 27 27 26 26 25 26 26 25 24 25
41 41 41 42 47 46 45 45 44 43 42 42 38 32 26 33 38 38 32 21 27 28 26 25 24 24 27 27 25 26 27 26 22 26 27 24 24 27 25 26 27 26 25 24 19 16 21 19 21 22 22 24 24 25
41 42 40 44 46 45 44 43 42 41 41 33 30 30 35 38 32 27 18 10 23 18 25 27 24 25 29 24 24 27 24 24 21 25 24 22 23 24 25 25 25 24 24 24 23 22 22 21 20 21 22 24 24 24
41 42 42 43 45 44 43 42 40 35 32 32 32 35 33 27 23 9 16 19 19 12 26 23 26 27 29 29 25 25 22 23 20 27 23 20 24 22 22 22 22 23 22 22 23 22 22 22 22 23 24 24 24 24
41 41 43 45 44 44 42 39 36 39 35 34 25 22 20 16 2 -9 -4 11 18 26 26 26 24 26 28 26 24 23 22 22 27 23 19 22 24 19 19 19 19 20 19 21 21 21 21 22 23 24 24 25 25 24
41 43 46 45 44 42 39 39 40 34 33 17 11 6 5 -1 7 16 9 14 26 25 25 26 26 25 27 24 23 21 25 24 19 18 19 21 20 18 18 19 19 17 19 20 20 20 21 21 21 22 23 24 23 22
42 46 45 44 43 41 39 41 35 31 27 18 14 -3 14 24 27 27 27 27 28 28 25 24 24 24 23 22 23 21 20 17 17 16 22 22 20 19 19 19 19 20 20 20 21 20 20 20 20 20 21 21 21 22
46 45 43 44 43 40 40 36 30 29 27 22 20 18 24 24 25 25 25 26 27 27 26 22 20 16 19 20 17 16 13 8 13 23 26 22 18 20 23 22 22 21 21 21 21 21 21 21 21 21 22 23 22 22
44 42 44 44 41 39 36 29 26 23 23 21 21 26 26 24 24 24 25 25 28 25 12 16 5 14 21 16 15 19 13 13 24 27 24 21 21 22 21 20 18 18 19 20 20 20 21 22 22 21 20 20 22 22
41 43 44 42 37 32 28 29 24 22 21 24 21 25 25 25 24 23 26 27 25 22 22 10 20 12 5 0 8 16 21 26 25 23 24 23 21 20 19 17 18 19 19 19 19 20 21 21 21 21 21 22 23 22
42 43 41 37 32 27 20 24 24 21 24 25 25 27 26 25 25 25 25 25 25 25 22 17 6 3 7 16 14 20 22 25 21 18 20 20 19 18 17 18 19 19 19 19 20 21 22 22 22 22 22 22 21 21
42 41 36 35 31 24 20 23 27 22 20 23 23 23 25 25 26 24 24 26 25 19 10 5 4 11 14 18 19 20 22 25 20 16 15 15 17 18 18 18 18 19 21 21 22 24 22 21 21 20 21 21 21 19
40 36 33 29 26 26 24 22 23 23 22 21 24 23 24 24 24 23 21 26 17 13 6 18 18 20 21 22 25 23 23 23 19 18 14 14 16 18 19 20 20 20 20 22 22 21 21 21 21 22 22 21 20 20
35 32 30 31 25 24 22 24 22 23 21 22 23 22 20 18 20 21 21 19 16 16 21 23 23 21 19 19 20 21 20 21 21 21 23 22 20 18 16 18 19 19 20 20 20 20 21 22 22 22 21 20 19 18
30 29 29 28 21 19 20 26 21 22 14 17 21 15 14 15 16 18 15 18 19 23 25 24 21 22 23 22 21 22 22 21 19 18 17 17 18 19 19 19 20 19 19 20 21 21 20 21 22 21 19 17 17 17
31 27 25 24 20 19 22 19 22 21 22 20 13 11 13 14 15 14 5 13 17 21 22 22 21 21 21 20 20 20 19 20 18 16 17 17 16 16 17 18 19 19 19 20 20 19 19 20 19 17 16 16 16 15
28 25 21 17 22 18 16 17 19 16 15 17 11 11 12 13 11 9 6 9 19 17 17 20 21 20 18 17 18 18 19 18 14 13 14 17 17 18 18 19 19 20 20 19 19 18 17 16 16 15 15 14 14 15
22 21 19 15 15 14 16 11 15 15 15 13 12 12 12 14 7 -1 9 13 15 16 16 18 18 19 18 19 15 13 15 19 19 17 17 17 18 18 18 17 17 17 18 19 19 18 17 15 15 14 13 13 15 14
20 17 17 19 19 17 16 18 20 15 9 7 11 11 12 1 -2 5 16 17 13 17 19 18 17 14 10 15 18 19 20 19 18 18 19 19 19 20 19 18 17 18 19 17 17 16 16 15 14 14 13 13 13 14
20 18 11 17 18 19 15 16 14 10 11 14 12 6 2 0 4 11 13 19 18 19 19 19 19 19 18 15 16 17 17 17 16 13 12 13 16 15 15 13 12 16 16 15 16 16 16 15 15 15 14 14 13 12
19 20 20 18 18 17 17 16 16 16 15 15 9 7 10 15 15 13 15 16 16 15 13 14 17 17 17 18 18 18 17 16 13 12 11 12 12 13 12 11 11 12 13 13 16 18 18 18 19 17 13 10 9 9
19 22 19 18 16 15 14 14 16 16 15 16 15 14 13 15 18 17 16 14 12 13 16 17 17 16 14 9 10 12 13 14 16 14 13 12 11 10 10 11 12 13 13 13 13 13 14 14 11 8 7 6 6 7
21 20 17 15 13 13 13 13 14 14 14 13 13 13 13 13 14 16 15 15 15 15 15 15 15 13 11 13 13 13 13 11 11 10 9 9 10 11 12 13 13 14 14 14 13 12 11 10 8 6 5 5 5 6
18 17 15 14 14 14 13 14 14 14 14 14 12 11 13 13 9 15 15 14 14 12 13 9 7 11 11 11 10 10 13 11 9 8 9 11 12 13 14 15 16 16 14 13 12 11 10 8 7 6 5 5 4 4
17 17 16 15 15 14 14 14 13 13 12 11 9 7 8 9 5 13 12 10 12 11 10 10 10 10 10 10 9 8 10 7 8 14 15 16 17 18 18 17 17 15 14 13 12 10 9 8 7 6 6 5 6 6

GFSWCAN_sfc_30mbdewp_066.txt.gz
Dewpoint
41 42 43 42 42 41 41 39 41 44 45 48 48 47 46 47 44 32 33 36 30 28 28 29 29 30 29 31 29 30 31 32 33 29 28 27 24 25 26 26 25 24 23 23 24 23 20 24 26 26 27 30 30 29
41 41 42 42 39 41 41 39 44 44 46 48 47 46 46 45 42 34 31 32 32 29 29 30 30 31 30 30 30 31 30 32 33 30 30 28 27 26 25 25 27 24 25 24 25 24 25 29 28 30 30 29 29 29
41 42 42 41 40 41 40 39 44 44 46 48 46 45 44 46 41 34 31 31 30 27 27 28 27 29 30 31 31 30 31 32 32 33 30 29 26 28 23 24 26 27 26 25 25 26 28 29 30 30 30 30 30 31
41 42 42 41 42 41 39 43 43 42 48 46 45 43 44 43 40 33 31 35 30 27 25 27 30 29 31 30 30 31 31 31 31 31 30 29 26 29 26 26 26 27 25 23 24 27 29 30 30 30 30 30 29 30
42 42 41 42 41 40 42 42 44 47 47 45 44 43 44 41 39 36 36 36 34 26 25 27 29 31 32 30 30 30 29 29 29 26 26 26 26 24 22 22 23 23 23 22 21 27 26 29 30 29 27 28 29 29
42 42 41 42 40 42 43 49 48 47 46 44 44 43 43 41 37 30 26 33 34 32 27 25 31 31 32 32 30 30 30 30 29 26 25 26 27 25 17 16 20 26 28 28 28 31 30 32 30 29 28 27 27 29
42 42 42 41 40 42 43 44 47 46 45 44 43 43 43 40 36 30 26 31 37 32 28 26 26 29 31 32 31 30 30 30 27 27 25 24 24 27 24 18 22 27 30 31 31 29 28 28 27 28 26 27 27 27
42 42 42 41 40 43 43 43 47 45 44 43 41 42 41 38 35 30 34 38 36 28 24 22 25 26 29 27 27 31 28 28 28 27 27 25 25 26 19 25 27 30 30 29 28 27 26 28 27 26 27 27 25 24
42 43 42 40 41 42 42 46 45 44 43 43 42 41 35 32 26 27 38 37 33 22 18 20 21 22 28 28 29 28 29 25 28 26 26 26 25 21 21 24 27 28 26 27 27 26 25 24 22 22 23 23 23 23
43 43 41 42 42 41 42 46 45 44 43 42 39 31 25 33 39 37 30 19 25 26 25 23 23 24 27 27 26 25 27 25 21 26 26 23 23 26 26 27 27 27 26 25 17 15 18 18 18 19 20 22 23 24
43 42 42 41 41 43 46 45 44 42 42 34 30 30 35 38 31 26 16 10 20 15 25 25 25 25 28 23 24 26 24 24 21 23 23 22 22 24 25 25 25 24 24 23 22 22 21 21 20 20 20 22 24 24
42 42 39 41 47 46 45 43 41 37 33 32 33 35 32 27 21 8 12 21 15 11 24 24 25 28 28 28 25 25 22 23 19 27 22 20 23 24 24 24 24 24 22 21 22 21 21 21 21 21 22 22 23 24
42 42 39 46 46 45 43 42 36 38 35 33 25 22 19 16 -2 -10 -8 8 17 25 26 26 23 26 26 26 24 23 21 21 26 21 19 20 23 23 22 20 21 21 19 19 19 20 20 20 21 22 21 22 23 23
42 42 41 44 45 44 42 39 39 36 31 18 13 9 6 -0 5 6 8 12 23 25 24 25 25 24 26 23 23 21 24 23 19 17 16 20 23 20 19 18 18 17 18 19 19 20 20 20 20 21 21 22 22 21
42 41 41 45 44 43 40 41 36 30 26 19 10 -7 9 22 26 26 25 26 26 26 24 23 23 23 22 23 22 23 20 17 17 12 18 22 22 18 18 19 19 19 19 19 20 20 19 19 19 19 20 22 22 21
41 43 44 44 43 41 39 32 30 28 26 21 20 18 25 24 24 24 25 25 26 24 23 20 16 14 18 19 16 14 10 3 8 18 24 23 19 18 19 21 22 21 20 19 20 19 19 19 19 21 22 21 20 21
42 43 44 43 41 38 33 28 25 23 22 20 23 26 25 24 23 23 24 23 27 17 7 11 1 10 21 15 12 17 9 9 15 25 24 21 18 19 22 21 20 18 18 18 18 18 19 20 20 19 17 19 21 22
41 44 43 42 39 32 29 29 24 22 21 24 22 24 25 25 24 24 26 27 23 21 16 8 19 12 2 -2 3 13 19 20 24 26 23 22 22 22 20 18 17 17 17 17 18 18 19 19 20 20 21 21 21 21
43 43 42 39 32 25 22 25 24 21 24 24 25 26 25 25 25 25 25 25 25 25 19 12 2 -1 3 11 7 13 19 25 22 20 20 20 20 19 18 18 18 17 17 18 18 19 21 22 22 22 21 21 20 21
43 42 39 34 29 22 22 24 25 22 20 22 23 23 25 25 24 23 24 25 23 17 8 0 1 6 8 14 18 19 21 24 21 18 15 16 15 17 17 17 17 18 19 19 20 22 22 21 21 21 20 21 22 20
41 38 33 28 26 26 23 22 22 22 22 22 23 24 22 22 22 20 19 22 15 9 1 14 12 20 21 22 23 23 24 22 19 15 14 12 16 17 18 19 19 19 18 19 19 20 21 20 20 21 22 21 21 21
38 34 29 29 23 22 22 24 21 22 21 22 22 21 19 17 18 18 18 17 11 14 19 21 22 20 18 18 21 21 21 22 20 20 22 22 17 15 14 16 18 17 17 18 19 19 19 20 21 22 22 21 19 17
34 29 28 25 19 19 21 25 20 20 16 19 20 16 14 16 17 16 13 15 16 20 24 22 21 20 20 21 21 21 21 20 20 18 17 17 17 18 17 17 17 17 18 19 20 20 20 21 21 21 18 16 15 15
31 28 26 23 19 18 21 19 21 21 21 17 13 11 13 15 15 13 3 8 15 21 23 22 20 20 21 20 20 19 20 20 19 19 18 16 14 14 16 17 18 19 19 20 19 18 18 18 18 16 15 14 13 13
29 25 21 17 20 16 16 18 18 15 13 15 12 11 12 14 7 5 2 5 16 18 19 20 21 20 18 17 17 17 19 18 15 12 14 16 16 16 16 18 18 18 19 18 18 18 17 16 15 14 14 13 13 15
23 21 17 15 16 12 14 12 13 14 15 14 14 13 13 12 2 -3 4 10 16 17 16 18 19 20 19 19 14 13 16 19 18 16 16 16 17 17 17 16 16 16 18 18 16 14 14 14 14 13 12 13 14 13
21 16 17 19 18 18 17 18 19 17 21 20 13 11 12 7 1 2 13 17 13 15 16 18 19 14 12 15 18 18 19 18 18 17 17 17 17 18 18 16 14 14 15 15 14 14 13 13 13 13 13 13 13 13
20 17 13 17 18 19 16 17 16 16 13 15 13 12 15 8 1 12 14 17 18 18 17 17 17 15 17 16 17 17 16 16 12 11 13 13 12 12 10 10 10 17 16 14 17 17 16 15 15 15 14 12 11 9
18 19 19 17 17 17 17 18 19 18 18 16 8 5 7 12 16 15 16 17 14 17 16 16 16 15 16 15 14 15 14 14 12 11 11 11 11 12 10 10 11 11 12 12 15 17 17 17 16 15 11 9 7 6
18 21 17 16 16 17 14 15 17 18 17 16 15 14 14 16 17 16 14 14 13 11 12 13 16 15 13 10 10 12 12 13 14 13 12 11 11 9 10 10 12 13 12 12 12 12 13 13 9 6 5 4 4 6
21 19 16 14 13 13 13 14 17 16 14 13 12 13 13 13 14 16 15 15 15 16 16 15 15 11 9 11 12 13 13 11 11 10 8 9 9 10 11 12 13 14 13 12 12 11 9 8 6 5 5 4 4 5
18 19 17 15 14 15 15 16 15 14 13 12 11 11 13 12 10 16 14 14 14 14 15 12 7 10 10 10 10 10 14 11 9 8 9 11 12 12 14 16 16 15 13 12 11 9 8 7 7 6 5 5 5 5
19 18 18 17 16 16 16 14 13 12 11 11 9 8 8 7 5 13 11 10 13 12 10 8 9 10 11 10 10 9 11 7 8 14 15 16 17 18 18 15 14 14 14 12 10 9 9 7 7 6 7 7 7 7

GFSWCAN_sfc_30mbdewp_069.txt.gz
Dewpoint
39 39 40 41 41 42 41 41 42 41 44 45 48 48 47 47 47 36 32 34 30 28 28 29 29 30 31 31 29 31 31 32 32 28 27 27 24 26 25 26 25 25 24 23 23 22 17 25 27 25 26 29 29 29
39 40 41 40 41 42 40 42 41 43 44 47 48 47 47 47 43 35 30 33 32 29 28 30 30 30 30 30 31 31 30 32 32 29 29 28 26 26 25 24 27 23 24 23 24 23 26 29 28 29 30 29 29 29
40 41 41 41 42 42 42 42 40 42 44 49 48 47 45 46 39 33 31 31 29 27 27 27 27 29 30 30 31 31 31 33 32 32 30 29 26 27 24 24 26 27 27 26 25 26 27 29 30 30 30 29 30 30
41 41 40 42 42 42 42 41 41 42 43 47 47 46 45 45 40 32 30 34 29 28 26 27 30 30 32 31 31 32 32 32 31 31 29 28 26 29 25 26 26 27 26 25 25 26 28 29 30 29 29 29 29 29
41 40 41 42 42 42 41 42 42 42 43 46 44 43 46 44 39 36 35 35 33 27 25 26 29 32 33 31 30 30 30 29 28 26 26 26 27 25 22 23 24 24 24 23 23 25 26 27 30 30 27 27 28 27
41 41 41 42 43 42 43 43 48 46 47 44 42 44 43 40 37 31 27 33 33 31 26 24 30 30 32 32 30 30 30 29 27 25 25 26 27 24 18 18 19 24 27 25 25 29 29 30 30 29 27 27 27 27
41 41 42 43 42 43 42 45 47 46 45 44 45 44 43 40 36 29 28 32 35 32 27 25 25 29 30 30 30 29 30 29 27 27 25 23 24 26 22 15 21 27 30 30 31 30 29 28 27 29 27 26 27 27
41 42 43 43 41 44 42 44 45 44 44 44 44 42 40 39 35 31 36 38 32 25 25 23 25 26 29 27 25 30 27 27 28 26 26 23 25 25 18 23 25 30 29 27 27 26 24 28 27 26 26 26 24 23
42 42 43 43 41 43 42 46 45 44 43 43 41 39 34 31 28 30 38 34 31 21 18 22 22 22 28 28 28 28 28 22 28 25 26 25 23 18 18 23 28 29 27 26 26 24 25 23 21 20 20 20 20 20
42 43 43 43 42 43 44 45 44 43 43 42 36 32 27 32 38 37 28 18 22 25 26 22 23 25 27 27 26 25 26 24 20 25 26 24 23 26 26 26 28 28 27 27 21 18 19 17 16 17 17 19 20 21
42 43 44 42 43 43 44 44 44 44 40 36 31 29 35 38 31 25 18 10 19 16 25 24 25 25 28 23 24 26 23 23 20 22 23 21 22 24 26 27 27 26 25 22 19 20 21 20 19 19 19 20 21 22
43 44 44 43 43 43 43 44 43 39 36 33 33 35 32 27 20 10 9 20 15 11 24 24 26 28 28 27 24 24 21 22 18 26 22 19 21 25 25 24 24 24 24 21 21 20 20 20 20 21 21 20 21 21
44 44 43 43 40 40 43 43 41 38 35 32 28 23 19 17 4 -2 -7 7 14 24 25 26 24 26 26 26 24 22 20 20 24 21 19 19 23 24 24 23 23 22 20 18 18 19 20 20 21 21 20 20 21 21
43 43 40 39 42 45 45 42 39 35 30 23 17 16 9 3 5 1 5 13 24 25 25 25 25 24 25 22 23 20 24 22 17 15 11 18 22 24 23 21 19 18 17 18 18 19 20 20 19 20 20 20 21 20
43 40 40 44 46 44 43 40 36 30 26 19 14 2 8 18 26 25 24 25 25 26 24 23 22 22 22 22 22 22 19 15 16 8 14 20 22 23 20 18 18 18 19 18 18 18 18 18 18 18 19 20 21 20
42 40 40 45 45 43 40 34 31 27 25 21 20 17 24 24 24 24 24 24 25 24 22 18 13 12 17 19 16 15 9 1 5 15 20 23 23 20 18 18 19 21 20 19 18 19 18 18 18 19 20 19 18 19
40 37 39 45 43 40 33 28 25 23 22 21 22 26 24 23 23 24 24 23 25 16 4 8 -1 9 19 13 8 15 7 6 12 16 23 23 21 19 19 21 22 20 18 17 17 17 17 19 18 18 18 18 19 21
37 41 45 44 39 32 30 29 24 22 20 24 23 24 24 24 23 23 25 26 23 18 14 8 19 12 1 -3 1 13 18 18 21 25 23 21 19 20 21 20 18 17 17 16 16 17 17 17 18 19 20 21 21 20
42 44 43 40 34 29 31 28 25 21 24 25 25 25 24 24 24 25 25 25 25 22 17 8 -0 -2 1 8 5 11 17 22 22 24 23 22 21 20 19 18 18 17 17 17 17 18 19 20 20 21 22 21 20 21
44 43 40 37 29 24 22 24 26 23 22 23 23 24 24 23 23 22 23 24 21 14 4 -2 -1 4 6 12 16 17 19 24 19 17 16 16 16 15 16 17 17 18 18 18 18 20 20 21 21 21 21 21 22 21
42 40 38 31 28 26 23 22 22 23 23 22 23 22 21 20 19 18 18 20 13 6 0 11 10 17 21 20 21 22 23 22 20 16 13 12 14 17 17 18 18 18 17 17 18 18 20 19 20 21 21 22 21 21
40 38 32 29 24 23 22 24 22 23 21 21 20 20 17 16 16 15 17 15 10 12 16 19 19 20 20 20 21 21 23 21 19 20 20 20 15 13 13 16 17 15 16 16 18 18 19 20 21 22 21 19 18 16
37 33 29 26 22 20 21 24 21 21 18 19 18 14 15 15 16 15 11 13 14 19 23 22 20 18 19 20 20 20 20 19 19 19 18 17 17 16 16 16 17 16 16 17 19 19 18 20 18 19 17 15 15 14
34 30 26 22 19 19 21 19 21 20 19 15 11 10 12 15 14 12 3 7 14 21 23 21 20 21 20 20 19 20 20 20 19 19 19 15 13 14 16 17 17 18 18 19 18 17 16 15 15 14 14 13 12 12
29 26 23 18 20 17 16 18 17 14 11 14 10 11 13 14 8 5 -2 4 15 20 22 20 19 19 17 18 18 17 18 19 18 14 14 16 15 16 14 16 17 18 18 16 15 15 14 13 13 13 12 12 13 14
23 21 16 16 15 12 14 11 12 13 15 14 13 14 14 11 1 -4 1 7 15 17 20 22 21 19 17 16 14 14 16 18 17 14 16 17 17 16 13 14 14 14 15 15 14 13 12 12 12 12 12 12 13 13
22 19 18 19 18 18 17 18 18 21 22 19 13 12 12 7 11 3 11 16 14 16 17 20 21 18 15 17 17 18 18 17 17 16 16 15 16 17 14 12 12 12 15 15 14 13 13 13 13 13 13 12 11 10
20 17 14 17 17 18 16 16 20 21 16 17 18 18 18 19 13 11 14 16 17 14 16 17 14 15 16 16 17 17 16 13 11 12 13 13 10 8 9 9 9 16 15 13 16 16 15 15 14 14 12 10 9 7
18 19 19 17 18 17 17 19 20 19 18 17 13 14 10 12 16 16 17 17 15 17 17 16 15 14 15 14 13 12 12 12 11 11 11 11 10 11 8 9 10 11 10 11 14 16 16 16 15 14 10 6 5 4
19 20 16 15 17 16 14 15 17 18 19 16 15 14 14 16 16 14 14 15 16 14 14 14 15 15 14 10 10 13 11 12 12 13 12 11 11 9 9 10 11 12 11 12 11 10 13 11 9 5 4 3 4 6
20 17 15 14 13 13 14 16 18 18 17 16 15 13 13 13 14 15 14 12 10 12 14 14 14 11 10 10 11 11 12 11 10 11 9 9 9 10 11 11 12 12 12 12 11 10 9 8 6 5 5 5 5 6
18 18 16 16 14 15 17 18 17 16 14 13 11 12 12 11 9 14 13 14 15 15 16 15 12 8 10 9 10 12 15 11 10 8 8 10 11 12 12 14 14 13 13 13 11 9 8 7 6 6 6 6 6 7
19 18 18 16 16 16 17 19 17 14 12 10 8 7 7 8 6 13 12 11 14 16 15 12 8 9 11 11 11 10 10 7 8 14 15 16 17 17 17 15 14 14 14 13 10 9 8 6 7 7 7 7 8 8

GFSWCAN_sfc_30mbdewp_075.txt.gz
Dewpoint
35 36 36 40 41 41 41 43 43 44 42 44 49 48 47 44 41 35 31 33 31 28 28 29 29 30 31 31 30 32 31 32 30 26 26 26 24 25 24 25 25 25 23 23 22 20 12 25 27 23 24 28 28 28
36 36 38 40 41 41 43 43 43 44 42 45 49 48 48 45 40 35 30 32 31 29 28 29 30 30 30 30 32 31 30 31 31 28 28 27 24 25 24 20 26 22 24 22 23 21 25 27 28 29 29 28 29 28
37 37 39 40 42 42 43 43 44 43 42 46 49 48 48 45 41 34 30 31 30 28 29 28 28 30 32 32 31 30 32 33 31 31 29 28 25 26 23 24 25 26 27 25 24 25 26 28 29 29 29 28 29 29
37 38 39 41 42 42 43 44 43 43 43 46 48 48 48 45 40 35 30 32 30 30 28 27 31 31 33 32 31 32 33 32 32 30 28 28 25 28 25 24 25 26 27 25 25 25 26 28 29 29 29 29 29 29
37 38 40 42 42 43 44 44 44 43 43 46 48 46 43 40 38 34 34 34 32 29 27 26 29 31 32 31 31 31 30 29 29 28 27 25 27 25 23 24 24 26 26 24 23 26 26 25 28 29 28 27 27 26
37 39 41 42 42 43 44 43 42 42 42 45 47 47 42 40 36 31 26 33 33 31 28 27 30 29 30 30 29 29 28 27 27 26 25 26 27 24 21 21 23 26 25 25 24 27 27 29 29 29 27 26 26 27
37 39 41 42 42 44 43 42 47 48 45 46 46 46 43 39 35 28 26 32 35 31 27 25 24 28 29 29 29 28 28 27 26 25 23 23 26 26 21 17 16 21 25 28 28 29 28 29 28 29 27 26 26 26
38 39 42 43 43 44 42 47 47 46 47 45 43 41 41 39 37 32 35 37 31 27 26 23 24 24 28 25 24 29 24 25 26 25 25 21 24 24 19 21 22 27 29 29 29 26 24 27 28 28 26 24 21 18
40 40 42 43 43 42 47 46 46 46 45 43 39 38 33 30 28 32 36 33 30 22 19 22 21 21 28 28 27 27 27 19 27 23 24 25 20 14 15 16 23 28 27 27 27 25 26 25 25 22 19 17 15 15
40 41 43 43 44 42 46 46 45 43 41 41 33 29 27 30 39 34 26 20 18 24 24 22 24 23 26 26 25 24 25 22 18 23 26 24 22 24 24 23 24 28 27 26 22 20 21 19 17 15 14 16 17 18
40 41 43 43 44 42 46 46 44 42 37 33 29 28 33 37 28 22 17 13 15 10 23 25 25 25 27 22 23 25 22 22 18 20 23 20 19 22 25 26 26 29 28 25 18 16 19 16 14 15 16 18 19 20
40 41 43 44 44 44 46 45 43 37 34 33 32 34 31 23 18 13 9 14 14 -0 23 24 25 26 26 27 24 25 21 21 14 22 21 15 18 22 25 26 27 28 27 24 20 18 18 18 19 19 19 19 19 19
40 42 44 44 44 45 46 44 40 38 34 31 26 22 19 17 11 9 2 3 10 21 25 26 25 26 26 26 23 21 18 16 23 20 14 14 18 23 25 25 24 23 23 21 20 18 17 17 19 20 19 19 19 18
40 42 44 44 44 45 45 44 40 35 30 26 20 14 12 12 12 10 4 8 18 24 26 25 25 23 24 22 22 17 21 21 15 9 4 11 17 21 25 24 23 22 21 18 17 18 17 17 17 18 19 19 19 18
40 42 44 44 44 45 45 43 39 31 26 24 19 14 14 18 22 22 22 24 25 26 24 22 23 22 22 21 22 21 18 12 12 1 7 15 19 22 24 23 22 21 19 17 18 18 16 16 16 16 17 18 19 19
40 42 43 44 44 43 45 42 36 31 27 20 17 13 19 18 19 23 22 23 26 25 22 19 18 15 16 19 18 12 5 -4 2 12 16 21 23 23 23 22 20 18 18 19 20 18 17 16 16 17 17 17 18 19
40 41 43 44 44 43 42 37 36 33 32 21 17 22 21 21 18 22 23 24 26 20 11 11 3 2 18 13 8 13 3 2 9 14 18 23 23 22 21 20 19 20 21 19 17 16 16 17 16 16 17 19 20 20
39 42 43 44 43 41 35 34 33 30 27 22 18 21 25 24 23 23 24 25 23 18 12 4 17 12 5 -3 -1 9 14 14 17 23 24 22 21 20 19 19 21 19 17 16 16 16 16 17 17 18 19 20 20 20
40 41 43 44 40 36 33 31 30 26 23 22 24 24 24 24 24 24 25 25 23 21 17 13 3 -3 -1 5 4 12 16 20 23 23 21 20 20 20 20 18 17 17 17 17 16 16 18 19 19 19 19 20 20 20
41 41 42 42 38 33 30 28 29 22 19 22 24 23 23 23 23 23 23 22 19 15 9 3 -1 1 3 7 14 14 18 22 23 21 21 20 18 16 16 16 17 17 16 15 16 18 19 17 18 19 19 20 19 17
42 41 40 40 33 32 30 26 25 22 22 22 23 22 21 19 20 19 19 19 15 10 2 7 6 12 18 17 19 20 22 21 18 18 19 16 14 16 17 17 16 16 15 15 14 16 18 18 18 18 18 18 17 16
40 40 33 33 28 26 25 25 22 23 22 22 22 20 19 18 18 16 16 13 13 9 9 11 15 18 19 18 20 22 20 18 17 19 18 16 14 15 15 16 15 14 14 15 16 17 17 16 17 17 16 15 14 13
39 35 31 29 25 25 21 25 21 22 19 20 18 16 16 15 15 14 11 11 13 15 18 19 18 18 18 19 20 20 18 18 16 17 16 14 16 16 15 16 15 14 14 16 17 16 14 15 14 15 13 12 11 11
36 32 27 25 24 19 23 21 22 20 19 18 17 16 15 15 15 12 5 9 14 18 20 18 19 19 19 20 20 19 18 18 17 16 16 13 12 14 16 15 15 16 17 15 13 13 12 12 13 11 11 10 10 11
28 25 25 20 22 19 18 18 19 19 17 18 13 12 14 14 10 8 5 5 14 20 20 18 19 19 17 18 18 19 17 18 16 14 16 15 14 14 13 14 15 15 14 13 13 12 11 11 10 10 10 10 12 12
24 22 23 21 20 17 17 15 14 14 14 12 13 14 14 12 5 0 2 6 12 20 20 19 18 17 17 18 18 18 20 18 15 12 15 15 13 9 10 11 12 13 13 13 12 11 11 11 11 11 11 11 11 8
19 19 22 23 18 16 15 16 17 15 11 11 14 12 11 2 -0 1 11 14 13 20 22 21 20 18 17 17 17 17 17 14 13 14 15 15 15 13 12 11 11 12 13 13 12 12 12 12 12 12 11 9 7 6
22 20 17 16 16 17 14 16 20 19 21 18 13 7 7 5 7 13 16 16 16 22 20 18 18 18 18 18 17 14 12 12 12 12 11 10 9 8 10 10 11 16 14 11 14 14 14 14 13 11 9 7 6 5
17 18 17 16 18 19 20 23 24 21 20 16 13 15 18 16 16 17 17 15 18 20 19 16 14 15 15 13 12 12 13 13 10 9 8 9 10 10 8 9 10 10 9 10 14 16 16 14 13 11 7 6 5 4
17 19 18 18 18 17 16 16 18 19 20 20 20 18 18 19 16 14 15 16 19 21 20 16 15 16 15 14 11 11 10 9 10 10 9 11 12 10 9 11 12 11 8 10 10 9 13 9 7 5 5 5 6 8
17 15 15 13 13 13 15 17 19 19 18 18 19 19 17 17 17 14 15 15 15 16 16 15 15 16 15 13 12 11 12 12 9 10 11 10 9 10 11 12 11 9 9 10 9 8 8 7 6 6 6 6 6 7
17 16 15 15 14 16 17 18 18 18 17 17 13 14 14 14 10 15 13 14 15 15 16 15 14 13 12 14 13 13 15 13 11 10 11 10 11 11 12 11 9 9 10 10 8 8 7 7 7 7 7 6 6 6
16 16 16 16 16 17 18 20 19 18 19 18 14 13 12 10 7 13 11 11 15 16 17 16 15 12 11 13 13 14 13 11 11 13 15 15 16 16 14 13 11 11 11 11 9 8 8 7 8 7 6 6 5 5

GFSWCAN_sfc_30mbdewp_078.txt.gz
Dewpoint
36 36 37 38 40 42 42 43 44 44 43 47 48 47 46 42 37 33 32 34 33 30 29 29 30 31 32 32 31 33 32 32 31 27 26 26 23 25 24 25 25 25 23 23 23 21 13 26 27 23 25 27 28 28
35 37 38 39 40 43 42 43 44 44 43 49 48 46 44 42 39 36 32 32 32 31 29 30 30 31 31 31 33 32 31 32 32 29 28 27 24 25 24 19 27 23 25 21 23 20 25 27 28 29 29 28 29 29
35 38 38 39 41 42 42 44 44 43 44 49 48 48 47 44 39 34 32 33 33 30 30 29 29 30 33 32 32 32 33 34 32 33 30 29 26 26 22 24 25 27 27 25 25 25 26 27 28 29 30 29 30 30
36 38 38 39 42 42 43 44 44 43 44 49 49 48 47 44 41 36 32 34 33 32 30 28 31 31 32 32 32 32 33 33 33 32 30 29 26 28 25 25 25 26 27 26 26 26 26 27 29 29 30 30 30 30
37 37 38 41 42 43 44 44 44 43 43 48 48 48 46 42 38 35 35 34 33 33 29 27 29 30 31 31 31 32 31 31 31 31 30 28 28 27 25 26 25 27 26 24 21 26 26 26 28 29 29 29 29 27
37 38 38 40 43 43 44 44 43 43 43 46 47 44 42 39 35 32 29 34 35 33 31 28 30 29 30 30 29 29 29 28 29 29 27 27 28 26 24 22 24 27 27 27 25 26 27 29 30 30 29 28 26 26
38 38 39 41 43 43 44 43 46 47 45 47 47 44 41 39 37 30 29 34 35 33 30 28 27 28 29 29 30 29 29 28 28 27 25 25 28 28 24 21 20 20 26 26 27 29 28 29 28 29 27 26 27 26
38 39 39 42 43 44 45 47 49 48 46 47 46 43 42 39 37 32 35 38 33 28 28 25 26 26 29 26 26 29 25 26 27 26 25 23 25 25 21 23 22 25 28 29 29 26 25 27 28 29 27 25 22 18
38 40 41 43 43 43 47 47 47 47 46 44 42 38 34 32 29 32 37 37 32 24 20 24 24 25 29 28 28 28 27 23 27 24 24 25 21 19 20 18 21 27 28 28 29 26 26 25 25 25 21 17 14 14
39 40 41 43 43 43 47 47 46 44 42 37 33 29 28 31 39 33 27 23 21 24 26 23 26 25 27 27 25 25 26 22 19 24 27 24 22 24 23 22 21 27 28 28 25 22 22 20 19 16 14 16 17 18
39 40 41 43 43 43 47 46 44 38 35 32 29 28 33 36 28 23 21 19 18 14 23 25 26 25 28 24 23 26 23 24 20 22 24 23 20 23 25 26 26 28 28 25 20 17 20 18 15 15 17 18 19 19
39 40 41 44 44 44 46 44 40 37 35 32 32 33 31 24 20 16 15 15 15 12 23 25 26 27 27 28 25 25 23 23 18 24 23 17 21 23 25 26 27 29 28 24 19 18 18 18 18 18 18 19 19 19
39 40 42 44 44 44 46 45 40 38 35 31 26 24 23 20 15 12 8 9 10 20 25 27 25 26 26 27 24 22 20 19 24 21 16 16 19 23 25 26 27 28 27 23 20 19 17 17 19 19 19 20 19 18
39 41 42 44 45 45 46 45 39 35 31 27 24 17 18 14 16 14 12 12 18 25 26 26 25 24 25 23 22 18 21 21 17 11 7 15 19 21 25 25 24 24 22 21 19 18 19 18 17 19 19 20 19 18
40 41 43 44 45 45 46 42 36 31 28 26 21 17 16 19 22 21 22 24 25 27 25 23 23 23 23 21 21 21 18 15 15 4 11 16 19 22 25 24 23 22 21 19 18 18 18 17 17 17 19 19 18 18
40 41 42 44 45 45 45 40 37 35 30 22 19 17 17 17 18 22 22 23 27 26 23 21 19 17 17 20 19 16 11 2 6 15 18 20 21 23 25 24 22 21 19 17 19 19 17 17 17 18 18 18 20 20
39 40 42 44 45 45 41 37 37 33 32 28 22 20 20 19 19 20 22 23 26 23 18 14 7 6 19 16 13 15 8 7 13 17 20 23 23 24 24 22 21 18 19 21 17 17 17 18 17 18 17 19 20 20
36 39 44 44 44 40 36 36 34 31 28 26 24 21 24 22 22 23 24 25 25 22 16 7 15 13 10 4 3 10 16 16 18 21 23 23 23 22 22 20 20 21 18 17 17 17 17 17 17 17 19 20 20 19
37 40 44 44 41 36 34 33 32 27 26 23 23 24 25 24 24 24 24 25 24 21 17 16 9 6 3 9 7 14 17 20 23 23 21 21 21 20 20 20 18 17 17 17 17 17 17 19 18 18 19 19 18 17
39 42 44 43 39 35 32 31 31 28 23 23 24 24 23 23 24 24 25 24 22 18 13 9 4 4 3 7 14 16 19 23 22 20 19 19 19 19 18 17 17 18 17 16 16 18 19 17 18 18 18 18 16 15
39 40 41 41 36 35 32 27 25 25 22 21 23 23 21 21 22 22 23 22 19 15 13 12 7 7 16 16 18 19 22 23 21 20 19 19 16 16 16 18 17 16 15 14 13 16 17 17 16 16 16 14 14 14
38 40 38 35 30 28 30 28 24 23 22 21 22 22 21 20 20 20 20 20 18 18 14 10 11 16 17 18 20 21 22 20 18 21 20 18 15 17 16 17 16 16 15 16 16 17 16 14 16 16 14 13 13 11
39 36 32 30 27 25 24 26 23 21 20 20 19 18 18 18 18 17 18 19 19 17 15 16 19 19 18 20 20 19 18 17 17 17 17 14 16 17 17 17 16 14 14 17 17 16 14 15 14 13 12 11 10 10
36 32 31 27 25 21 23 20 23 22 19 18 18 17 17 17 16 16 15 12 14 16 17 18 19 18 20 20 18 18 18 18 16 15 15 14 14 15 16 15 15 16 17 16 14 14 13 11 13 11 11 10 11 12
29 27 26 21 23 19 18 18 19 19 17 17 17 16 15 16 15 14 12 11 13 16 19 19 20 18 17 19 19 18 18 18 15 13 15 14 14 15 14 15 15 15 14 14 13 13 12 11 11 11 11 11 12 12
25 25 22 20 19 20 18 18 18 18 16 14 15 15 16 15 13 15 11 12 12 17 20 18 18 17 17 19 19 18 18 18 17 14 15 16 15 12 11 12 13 14 14 14 13 12 11 11 11 11 11 11 11 9
21 19 23 25 22 21 18 16 16 14 12 11 13 14 14 13 14 11 11 15 14 21 21 20 19 17 16 19 19 19 19 18 16 16 17 15 13 12 13 12 11 13 13 13 12 12 12 12 12 12 11 10 8 7
23 21 19 20 17 16 12 14 13 14 13 16 16 14 16 17 14 12 15 16 18 24 23 22 22 21 20 20 18 16 14 13 13 13 12 11 10 10 11 12 15 16 14 13 13 14 14 14 13 12 11 9 8 7
20 19 19 17 16 16 15 16 16 20 20 17 19 18 17 20 18 17 17 17 20 21 20 18 17 17 16 15 15 15 15 15 12 10 8 8 11 12 10 11 12 12 11 13 16 16 15 15 13 13 10 8 7 6
17 17 16 15 16 16 17 17 19 18 19 20 20 18 18 18 17 16 16 18 20 22 21 19 17 17 16 16 14 13 13 14 11 10 6 7 10 11 10 11 11 11 10 11 11 10 14 11 9 7 7 7 7 8
17 15 14 13 14 12 13 16 19 19 18 18 19 19 18 18 17 16 17 18 20 19 18 18 18 18 17 15 15 13 12 12 10 10 11 11 11 11 11 12 11 10 10 11 10 10 9 9 7 7 7 7 6 7
16 15 13 14 14 15 17 18 18 17 17 16 15 16 16 16 15 18 16 17 19 19 18 19 18 17 17 17 16 15 15 13 11 12 12 11 11 12 12 11 10 10 11 10 9 8 8 8 8 7 7 7 6 5
15 14 13 14 15 16 17 19 19 18 18 16 14 15 15 14 13 15 14 16 19 20 19 19 18 16 16 15 14 17 15 13 13 14 15 15 15 14 12 11 11 11 11 10 9 8 8 7 8 7 6 5 5 5

GFSWCAN_sfc_30mbdewp_081.txt.gz
Dewpoint
42 38 37 39 40 41 43 43 45 44 46 49 47 46 43 40 37 36 35 35 36 32 30 31 31 32 33 33 29 33 32 32 29 25 24 23 21 23 22 23 22 23 22 20 22 20 16 25 28 24 26 28 28 29
41 37 38 39 40 42 42 44 44 44 46 48 46 45 43 42 39 37 34 33 34 33 31 31 31 32 32 32 33 33 32 32 31 26 26 25 22 24 22 16 26 21 24 21 22 21 25 27 28 29 29 28 29 29
40 36 38 39 40 43 43 44 44 44 46 49 47 47 46 44 40 36 35 36 35 32 31 31 30 31 33 32 33 32 34 35 33 34 29 28 24 25 19 20 24 26 27 24 24 24 26 27 27 29 30 29 30 30
39 36 38 38 41 43 43 45 44 44 46 49 49 48 46 44 40 37 34 35 36 33 31 30 31 31 32 33 33 33 33 34 34 33 30 28 25 28 24 25 24 26 27 25 25 25 26 27 28 28 29 30 30 30
39 37 38 39 41 43 43 45 44 44 44 49 49 48 45 42 39 37 35 35 34 36 30 29 30 30 31 31 32 33 33 33 33 33 32 27 28 27 26 26 24 26 24 23 18 26 26 27 28 29 29 30 29 28
39 37 39 39 40 43 43 45 45 44 43 47 46 44 42 37 35 36 32 35 35 37 35 30 31 29 30 30 30 30 30 30 31 31 30 29 29 28 26 21 23 26 27 27 25 26 27 29 29 30 29 29 28 26
38 37 39 39 41 43 44 45 45 45 45 47 44 41 40 38 39 33 32 37 37 35 33 30 31 29 30 30 30 29 29 29 30 30 28 27 28 30 27 22 22 22 27 26 27 28 28 29 28 29 28 27 27 25
38 38 39 40 42 43 44 47 48 48 46 48 45 43 41 38 38 34 35 35 34 31 33 30 31 28 30 28 28 29 27 28 29 28 26 25 26 27 24 25 22 22 24 27 28 27 26 28 29 29 28 27 23 18
38 38 40 41 43 44 45 48 48 47 48 46 44 39 36 35 32 34 38 40 35 29 29 30 29 29 29 29 30 29 27 27 28 26 25 25 23 23 24 23 21 25 26 26 28 27 26 25 25 27 24 18 14 13
38 39 41 42 43 44 47 47 47 46 45 41 35 31 33 33 39 36 33 29 29 29 29 27 30 29 29 28 27 28 27 26 25 25 27 24 23 25 23 20 20 24 28 29 28 26 24 22 23 18 15 14 16 16
38 39 41 42 44 43 47 46 44 40 36 35 32 31 35 36 31 26 26 25 25 22 25 27 30 27 29 28 28 27 29 27 23 27 24 24 21 22 24 24 24 25 28 28 24 21 22 21 17 14 15 17 17 17
39 40 41 42 44 44 47 46 40 38 37 36 35 35 33 28 27 20 22 21 20 21 24 26 26 28 27 29 27 26 27 25 22 26 24 21 24 25 25 26 26 27 27 24 19 17 16 16 17 18 18 18 19 19
40 41 41 42 44 44 46 45 39 37 36 33 30 28 28 26 21 19 13 18 18 23 27 27 26 27 27 28 26 25 23 23 24 22 21 21 23 24 26 27 28 29 28 24 19 18 18 18 20 19 19 20 19 18
40 41 42 43 44 45 46 44 39 36 33 29 25 20 22 21 21 24 22 25 26 27 28 29 27 26 26 25 24 21 21 21 20 15 11 21 22 23 26 27 28 29 28 25 22 20 20 20 19 20 20 20 19 18
40 41 42 43 45 45 46 43 39 34 32 27 25 20 21 25 25 25 24 26 27 28 28 25 25 24 25 23 21 22 19 17 18 13 19 25 24 25 26 26 26 25 24 22 21 19 19 18 18 19 20 20 19 18
41 41 41 42 45 45 46 39 37 36 33 26 26 23 21 21 24 25 25 26 28 28 26 26 23 21 20 23 21 18 17 10 14 20 26 21 22 26 26 25 24 23 21 19 18 20 18 18 18 19 19 19 20 20
41 38 41 43 45 45 40 38 37 34 31 30 27 25 25 25 25 24 23 22 27 26 24 23 14 13 22 20 16 19 15 17 22 22 24 24 24 26 26 25 22 20 19 20 20 18 18 19 19 19 17 18 20 20
36 38 42 44 44 41 37 37 35 32 29 30 28 27 22 21 24 23 23 26 27 26 22 19 21 14 15 13 11 17 20 23 24 24 25 24 24 26 25 23 21 20 22 20 19 19 18 18 18 17 19 19 19 18
36 41 43 44 41 37 34 34 34 29 30 29 27 25 26 25 24 25 25 26 26 24 21 19 15 16 12 16 13 20 23 20 20 24 23 23 23 24 23 22 22 20 19 18 18 17 17 19 17 18 18 18 17 16
40 42 44 43 39 35 33 32 33 30 26 27 26 27 26 26 26 25 25 26 25 23 21 17 15 14 10 11 18 21 23 25 22 21 20 21 21 22 22 20 19 20 19 18 18 19 18 17 18 17 17 17 15 13
37 38 44 41 37 36 34 30 29 30 29 24 26 26 25 24 25 25 26 27 25 25 20 21 15 13 13 14 17 21 23 23 21 19 19 20 19 21 19 20 20 19 16 16 13 15 17 16 16 16 15 13 13 13
36 40 39 37 33 32 32 32 29 27 25 25 24 25 24 22 23 24 27 24 24 25 23 19 17 15 12 12 17 22 23 23 21 22 22 21 17 18 18 19 18 17 16 17 15 16 16 14 15 15 13 12 12 11
38 37 32 32 30 27 27 29 26 24 21 21 23 22 21 23 25 24 22 24 26 26 23 19 17 19 18 19 21 21 23 21 21 20 21 17 18 19 20 19 20 20 17 17 19 18 16 15 13 13 11 11 10 10
37 32 31 28 29 25 24 22 26 23 22 21 20 19 20 22 19 19 19 20 22 21 20 19 19 19 20 21 20 21 21 20 19 18 17 17 17 17 19 16 17 18 19 19 17 16 13 11 13 11 11 11 12 12
29 28 28 25 26 20 19 19 21 22 19 20 19 18 18 18 17 18 18 20 21 18 19 21 20 19 16 16 20 20 20 20 17 16 17 17 16 16 16 15 15 17 17 17 15 15 14 13 12 12 11 12 13 13
25 27 25 23 21 19 19 17 18 19 20 19 19 19 18 17 16 16 18 19 21 20 20 20 19 19 18 18 19 19 18 20 17 15 16 18 16 16 16 14 13 15 16 16 16 14 13 12 12 12 12 12 12 11
25 24 25 24 22 22 20 19 20 19 17 15 16 16 16 15 16 18 20 20 23 22 21 21 20 19 17 19 20 21 21 22 19 17 18 19 17 17 18 15 13 16 16 15 15 13 13 12 13 12 12 12 11 10
25 22 18 21 22 22 19 18 18 18 18 18 16 14 13 15 16 19 20 19 20 21 25 23 23 22 21 22 22 20 18 16 16 16 15 14 13 13 14 15 17 17 16 15 14 14 14 14 14 13 12 11 10 10
22 23 22 20 18 18 16 17 18 18 19 18 17 17 17 22 22 18 17 17 21 25 23 23 23 23 22 21 20 19 17 17 15 14 13 13 12 13 14 17 18 16 15 16 17 16 15 15 14 14 12 10 10 9
21 23 21 20 18 19 18 19 21 22 20 21 21 20 19 19 19 18 18 19 22 23 24 24 21 20 19 18 18 18 19 19 17 14 13 13 12 15 13 14 14 13 13 14 14 13 17 14 13 10 9 9 10 10
20 18 16 17 18 17 16 17 18 19 19 19 20 21 21 20 19 18 18 19 22 24 23 21 20 21 19 19 18 18 17 16 14 15 15 16 13 14 13 13 14 12 13 13 12 12 12 11 10 9 9 8 7 8
18 17 15 15 14 16 17 19 19 19 18 18 18 18 17 18 18 19 17 20 22 22 23 22 21 21 21 20 20 18 17 16 14 16 15 14 14 14 14 13 12 12 12 12 11 10 9 10 10 9 9 8 7 6
15 14 15 15 15 16 17 19 18 18 17 16 15 15 17 17 16 18 17 20 21 22 23 23 22 21 21 20 20 19 17 16 18 18 17 16 15 14 13 12 12 12 11 11 10 10 9 8 8 8 7 6 5 5

GFSWCAN_sfc_30mbdewp_087.txt.gz
Dewpoint
47 48 47 41 38 41 42 43 45 45 48 46 46 48 47 46 44 37 34 36 36 31 31 31 32 32 33 34 31 33 32 32 31 26 25 23 23 23 22 22 21 20 21 21 21 19 10 27 27 21 25 28 28 29
47 48 47 42 38 40 42 43 45 45 46 49 47 49 47 45 43 40 34 38 37 32 31 32 31 32 32 32 32 34 32 33 33 31 27 26 23 23 21 13 25 16 21 22 20 20 25 27 28 29 29 28 29 29
47 48 48 42 38 40 42 44 44 45 45 49 48 48 47 44 42 38 36 36 38 32 32 32 31 31 32 32 33 33 34 34 34 34 32 29 23 26 19 20 23 24 27 22 21 22 25 26 29 30 29 30 30 30
47 48 48 42 38 40 42 43 44 45 45 48 49 48 45 43 42 37 34 36 37 37 31 31 31 31 32 32 33 33 33 35 34 34 32 29 27 28 23 24 24 23 26 24 24 25 26 27 27 28 29 30 30 29
47 48 48 43 39 39 41 43 44 45 45 46 49 47 45 41 39 37 36 36 35 36 31 30 31 31 31 31 32 34 34 33 34 32 33 29 29 28 27 26 25 27 25 23 19 24 25 27 28 29 29 29 30 29
47 48 48 43 39 40 41 43 44 45 46 44 46 45 40 38 38 38 33 39 36 35 36 28 32 30 30 31 31 30 31 31 32 32 31 30 29 27 25 25 25 26 27 27 24 28 28 29 29 30 30 30 28 27
48 48 48 43 40 39 41 43 44 45 46 45 45 40 39 38 36 32 28 32 37 37 34 30 30 30 29 30 31 31 31 31 31 31 29 29 29 28 27 23 24 26 27 27 27 28 27 28 27 29 29 28 27 24
48 48 47 44 40 39 41 43 44 46 47 47 45 41 41 40 38 34 35 38 37 32 34 27 27 28 30 29 29 30 29 29 30 29 28 25 27 26 24 25 27 25 27 27 27 27 28 29 29 28 27 26 24 21
48 48 47 44 40 40 42 44 45 47 48 47 43 42 39 36 33 34 39 39 36 28 22 28 21 23 30 29 30 29 29 26 29 27 26 26 24 23 23 23 25 22 25 25 27 27 28 28 28 28 27 25 18 14
48 48 47 43 40 41 43 45 48 48 48 46 39 33 33 34 38 36 34 26 28 29 29 22 29 28 29 28 28 28 28 27 25 26 28 25 24 25 26 26 26 25 25 28 26 25 25 25 27 27 24 18 14 15
48 48 46 43 41 42 44 47 48 47 42 36 32 31 35 36 32 27 24 22 26 22 26 26 30 26 29 27 27 29 28 27 20 23 23 21 23 25 25 26 25 26 28 28 26 26 26 25 25 23 16 15 16 17
48 48 45 42 41 43 46 47 44 38 36 35 35 35 34 30 26 20 19 24 21 20 25 23 26 28 26 29 28 27 25 24 17 26 22 17 21 26 24 22 25 28 29 27 25 26 25 23 20 16 16 17 17 18
47 47 45 42 42 43 47 46 41 39 35 33 29 27 28 25 21 18 14 16 19 23 26 26 24 25 26 28 27 24 22 21 23 20 15 16 21 26 25 24 27 29 26 21 18 17 18 18 18 17 17 19 19 17
47 47 45 42 43 44 47 44 39 36 32 26 23 20 21 19 19 19 19 17 24 25 26 27 25 25 27 24 24 19 22 21 16 12 7 15 22 25 26 27 27 26 22 19 17 18 18 18 18 19 17 18 18 17
47 47 45 43 43 44 47 43 37 35 30 25 25 20 20 22 25 25 25 22 25 28 28 26 25 24 23 24 23 21 18 12 14 5 12 23 24 25 27 27 28 25 22 20 20 19 19 19 17 17 19 19 19 18
48 46 44 43 44 45 46 39 36 35 31 27 27 24 26 24 23 22 20 21 27 28 27 27 22 21 20 21 19 17 12 3 3 15 19 25 23 25 26 28 28 28 25 22 20 19 19 18 16 17 18 18 18 19
47 41 43 43 44 45 42 38 37 34 34 31 28 28 24 23 22 23 22 23 28 27 21 22 14 13 21 19 17 18 13 10 18 23 23 24 22 24 26 27 27 27 26 23 20 20 20 19 18 16 14 17 19 19
43 42 42 43 44 42 39 38 36 34 30 31 28 28 28 25 23 25 25 27 28 26 27 19 19 17 13 10 11 14 19 20 23 22 21 23 24 25 26 26 25 24 23 21 20 20 19 17 15 16 17 19 18 18
43 42 43 43 42 38 35 34 35 30 30 31 31 28 25 25 24 23 23 28 27 27 24 21 14 10 9 16 12 13 21 19 9 13 20 24 24 25 26 25 23 22 21 20 19 18 16 17 16 18 18 17 16 16
43 42 42 42 40 34 31 32 35 32 27 30 29 28 26 26 25 25 24 27 25 23 20 17 15 15 13 14 18 16 18 18 18 14 15 20 23 25 25 24 22 22 21 20 19 19 18 16 17 17 17 17 16 12
42 42 42 41 35 34 33 30 30 31 30 28 26 27 26 25 25 24 24 25 24 22 19 20 19 18 19 19 17 20 16 18 15 15 11 13 21 24 24 23 22 21 19 18 18 18 18 15 17 17 15 14 13 14
37 42 39 35 32 31 32 32 28 29 27 26 26 25 24 24 24 25 26 25 23 22 22 21 21 22 21 20 19 17 16 17 19 20 23 23 20 22 23 23 21 20 18 17 16 15 18 16 16 15 14 12 13 11
39 35 32 32 30 30 29 30 26 25 22 22 24 23 23 22 23 27 24 25 25 25 25 25 25 25 24 24 22 20 19 19 18 20 21 23 22 22 23 23 22 20 18 18 18 16 16 16 18 13 12 11 11 11
36 32 30 29 29 26 28 26 27 24 22 21 21 20 20 22 25 23 21 21 23 25 25 26 26 26 23 23 23 23 21 21 21 21 22 22 21 21 22 22 21 20 19 19 18 18 17 15 15 14 11 11 11 12
29 28 29 26 28 22 21 21 21 21 18 19 19 18 20 20 19 18 17 17 18 21 23 25 26 26 25 25 24 23 23 21 21 20 22 22 21 20 20 20 21 21 20 18 18 17 15 13 13 11 11 11 11 11
25 27 26 26 22 20 18 17 19 19 19 19 19 18 17 17 16 15 15 17 18 20 21 23 23 23 24 24 23 23 22 22 21 21 21 22 21 20 19 18 18 18 20 19 17 16 14 13 12 11 11 12 15 13
23 24 27 26 22 19 18 19 21 19 20 19 19 18 17 16 15 16 17 20 18 19 22 24 24 23 22 22 23 23 22 23 22 22 21 22 21 21 20 18 16 17 19 19 18 16 15 13 12 11 11 11 11 10
29 26 23 23 21 19 18 19 19 20 19 19 19 16 16 16 15 17 18 20 21 21 22 23 25 26 25 23 22 21 20 20 19 18 18 17 17 19 20 19 19 20 19 20 18 17 15 13 12 11 11 11 11 10
25 23 23 21 20 19 18 17 18 18 20 20 18 17 17 18 18 17 20 18 18 20 18 19 21 22 22 22 21 20 19 20 18 17 16 15 16 17 19 21 22 20 20 20 20 16 14 13 12 12 11 11 10 9
22 23 20 20 20 19 19 19 19 21 21 21 22 20 19 18 18 18 18 17 17 16 16 16 18 21 20 20 20 20 19 21 20 18 17 16 16 17 20 18 18 19 19 18 17 17 17 17 16 12 10 9 8 8
23 21 19 19 19 18 18 19 21 21 20 19 18 18 17 18 18 17 17 17 17 17 18 18 19 21 20 20 20 19 19 21 23 23 22 18 18 19 18 18 18 18 18 17 17 18 17 14 11 9 9 8 8 9
21 20 19 19 18 16 17 18 19 20 19 20 18 16 17 17 17 18 16 17 17 18 20 21 19 20 22 22 22 22 25 25 25 24 22 20 19 19 17 17 17 17 16 16 16 16 13 12 10 9 8 8 7 6
16 15 14 15 15 16 17 19 19 19 17 17 17 16 16 17 17 18 17 18 18 19 19 21 22 21 23 23 23 24 25 24 22 24 22 21 19 18 16 16 16 16 15 14 13 13 11 9 9 8 8 7 6 4

GFSWCAN_sfc_30mbdewp_090.txt.gz
Dewpoint
48 47 48 46 41 39 42 44 45 45 46 48 48 48 45 44 43 36 35 37 35 31 31 31 32 31 33 33 30 32 32 31 30 25 25 23 23 22 21 21 20 16 18 21 21 19 6 27 27 20 19 28 28 30
48 47 48 47 42 39 41 43 44 45 45 47 49 48 46 42 40 39 34 37 36 32 31 32 31 32 32 32 33 33 32 33 33 30 27 26 23 23 21 12 25 19 20 20 20 16 22 28 25 28 27 27 29 29
48 47 48 48 43 39 40 43 44 45 45 47 49 48 48 44 40 36 34 36 36 32 32 32 31 31 32 33 33 33 34 34 34 33 32 29 24 26 20 20 21 23 26 24 21 17 24 26 29 29 29 29 30 31
48 48 47 48 44 40 39 42 44 45 45 46 49 49 46 44 40 36 32 35 37 36 31 31 32 31 32 32 33 33 33 34 34 34 31 29 27 28 24 23 24 23 26 24 23 23 25 26 28 29 29 30 30 30
49 48 47 49 45 41 39 42 43 44 45 46 48 48 47 43 40 36 35 34 36 35 29 29 31 31 31 31 32 33 33 33 33 31 32 27 29 28 27 26 25 26 24 22 17 21 22 25 28 29 29 30 30 28
49 48 47 49 46 42 40 41 43 44 45 45 45 45 43 41 41 39 32 38 35 37 34 26 32 30 30 30 31 31 32 31 31 32 30 31 29 28 24 23 25 26 27 27 22 26 27 28 29 30 30 30 30 29
49 48 47 49 47 43 40 41 43 44 45 46 45 42 41 40 36 33 29 31 37 37 32 27 29 31 29 30 31 31 31 31 30 31 30 29 29 29 25 22 22 25 26 27 27 28 27 28 27 30 29 29 28 25
49 48 48 49 47 43 40 41 43 44 46 47 46 41 41 41 37 34 35 39 36 32 32 24 25 27 30 28 28 30 29 29 29 28 28 27 27 27 25 25 26 26 26 27 27 28 27 29 29 28 28 26 24 22
49 48 48 48 48 44 40 41 43 45 47 47 46 41 38 36 33 34 39 38 34 27 22 26 19 17 29 29 29 29 28 26 29 27 26 26 25 23 24 25 24 25 26 26 27 29 29 28 28 27 26 25 23 17
48 47 47 48 47 44 41 42 44 46 47 46 38 34 31 34 38 36 32 27 27 27 28 23 26 27 28 28 28 28 28 26 25 25 28 25 25 26 26 26 26 26 26 27 26 26 27 27 27 27 26 24 17 14
48 47 47 48 47 43 42 43 46 48 45 37 33 31 34 37 32 27 24 24 24 22 25 23 28 26 29 26 26 28 26 26 21 20 24 21 20 24 27 26 25 27 26 27 26 26 26 26 27 27 24 17 15 16
48 47 47 48 46 42 42 46 47 40 37 35 34 35 33 29 25 22 20 22 23 19 25 24 27 27 27 29 28 27 24 23 20 24 23 17 17 23 25 24 25 27 27 27 27 26 26 25 26 24 17 16 17 18
48 47 47 47 45 42 43 47 44 39 36 32 29 26 26 24 21 19 17 17 19 22 25 26 25 25 26 28 26 24 22 22 23 20 17 15 17 20 25 24 26 29 27 24 24 24 23 22 19 17 17 18 18 17
48 47 47 47 45 42 45 47 42 37 31 25 23 21 20 20 20 19 16 15 20 23 25 25 25 24 26 24 23 19 21 21 17 14 8 11 14 23 24 26 26 27 24 20 19 19 19 18 17 18 18 18 17 16
48 47 47 47 45 43 45 47 41 35 30 25 24 21 20 21 22 22 22 24 26 26 26 24 24 23 23 23 23 21 18 15 15 10 9 11 21 23 23 26 26 26 22 20 18 18 18 19 18 18 19 19 18 18
48 47 46 46 44 43 46 44 37 34 30 26 26 22 23 23 22 23 23 18 26 27 26 24 21 20 19 21 20 18 14 10 5 13 14 19 22 21 24 26 27 27 23 20 19 19 19 19 18 17 20 18 18 18
48 44 47 46 44 44 45 39 37 35 34 32 28 27 25 23 22 23 22 22 28 26 19 20 15 12 20 18 17 17 14 10 9 13 18 24 20 20 23 26 27 28 26 23 20 20 19 19 18 18 15 17 18 19
45 46 46 45 43 42 39 38 36 33 30 31 29 28 27 27 24 25 23 26 28 26 22 17 18 16 15 13 13 15 18 19 19 19 20 20 20 22 24 25 27 28 27 25 22 20 19 18 17 15 16 18 18 18
46 45 45 44 41 36 32 32 35 30 31 32 30 29 28 26 25 25 25 27 27 27 24 20 14 15 13 16 12 12 14 18 14 11 14 18 21 22 24 26 26 25 25 24 21 20 19 18 16 17 18 18 16 16
47 45 44 43 39 33 30 31 34 31 28 31 30 28 26 26 26 26 26 27 25 24 20 18 16 16 14 14 18 15 16 21 20 14 10 15 20 22 23 24 25 24 22 20 20 20 18 17 17 18 18 17 16 13
45 44 44 40 34 32 32 31 30 32 30 28 28 28 27 26 25 24 24 26 24 22 19 20 18 16 20 19 18 19 19 19 16 13 8 9 16 19 21 24 24 23 21 20 19 19 18 16 16 17 18 17 14 13
41 43 38 35 31 30 31 32 31 31 28 26 26 26 25 25 24 24 26 24 23 23 22 21 21 21 21 22 22 20 19 18 19 18 21 21 17 19 21 22 23 23 21 20 19 18 19 17 17 17 15 14 15 12
40 35 32 32 29 29 28 31 26 26 23 23 25 24 23 23 24 27 25 24 24 25 25 25 25 25 25 25 24 24 22 21 19 19 19 20 21 21 21 22 23 23 21 20 19 18 17 18 19 15 14 14 11 11
36 32 30 28 29 26 28 26 26 23 22 22 21 21 21 22 25 24 22 22 24 25 26 27 27 25 25 24 24 25 26 24 22 22 21 21 21 21 22 22 23 24 23 21 19 17 17 17 19 15 12 11 11 11
28 27 29 26 28 23 23 22 21 21 18 20 19 18 20 22 21 20 19 19 20 21 24 25 26 26 25 25 25 25 25 25 24 23 23 22 21 20 21 22 22 22 21 19 18 16 16 16 16 14 12 11 11 11
25 27 26 26 23 21 20 19 19 17 18 19 19 17 18 19 17 15 16 17 19 21 22 22 22 23 24 25 24 24 24 24 24 23 23 23 22 21 20 19 20 20 20 19 17 16 15 15 14 13 12 12 14 12
24 24 28 27 23 20 18 19 20 19 20 20 17 17 17 17 16 16 17 19 19 21 23 24 24 23 22 22 24 25 23 23 22 21 21 22 23 22 22 20 20 21 20 19 17 16 15 15 14 13 12 12 14 14
28 27 24 22 20 19 18 19 19 18 20 19 19 17 17 17 16 19 19 20 21 20 21 23 25 25 24 23 23 21 20 19 18 18 19 18 18 19 21 21 20 21 20 19 18 17 16 16 15 13 12 11 11 11
26 25 23 21 19 19 19 19 19 21 22 21 19 18 18 18 19 17 18 19 18 21 19 19 21 22 22 21 21 20 19 20 20 19 19 18 17 18 19 20 22 22 21 21 20 19 18 17 15 13 12 11 11 10
23 25 21 21 20 20 20 19 20 21 21 22 22 20 19 19 18 17 17 18 19 18 18 18 18 19 19 20 20 20 19 20 21 20 18 18 17 18 20 21 21 21 21 21 21 21 20 17 16 13 11 10 9 9
24 21 19 20 20 19 18 19 21 21 21 20 19 20 18 17 17 17 18 17 17 16 16 16 15 17 18 18 18 18 19 19 19 20 20 19 18 20 20 19 20 20 20 19 19 18 18 14 11 10 10 9 9 9
22 21 19 19 18 16 18 19 20 20 19 20 19 16 17 17 17 18 16 16 17 17 18 20 19 19 19 20 20 19 21 19 20 20 22 19 20 19 19 19 19 19 18 18 18 17 14 12 11 10 9 9 8 8
17 17 16 16 17 17 17 18 19 19 18 18 17 16 16 17 17 19 17 18 20 20 20 20 21 20 20 20 21 21 23 22 22 23 24 22 21 19 18 18 18 18 17 17 17 15 13 11 10 9 9 8 7 6

GFSWCAN_sfc_30mbdewp_093.txt.gz
Dewpoint
49 47 47 47 48 43 40 43 44 46 46 47 48 48 48 48 42 37 36 37 34 31 31 32 32 31 33 33 30 32 31 31 29 25 24 23 22 22 22 19 20 15 15 18 20 18 4 27 27 18 16 27 28 30
49 48 47 47 48 45 40 42 44 45 46 46 48 48 47 48 45 39 34 37 35 33 31 32 32 32 32 33 33 33 32 32 32 29 27 26 24 23 21 13 21 18 19 16 21 15 20 28 22 27 27 27 28 29
50 49 48 48 49 46 42 40 43 44 46 46 49 49 48 46 42 39 34 36 34 32 31 31 31 32 33 33 33 32 34 34 34 33 31 29 25 25 20 20 20 22 25 23 21 15 22 25 27 29 29 28 29 30
50 49 48 48 49 47 43 40 42 44 45 45 48 48 47 46 42 36 32 36 37 34 30 30 32 31 32 33 33 33 33 34 34 33 31 29 26 27 24 22 22 20 25 24 23 23 24 25 26 28 29 30 30 30
50 49 49 48 48 48 45 41 42 44 45 46 46 47 47 43 40 37 34 34 36 35 29 29 31 31 31 32 32 33 33 33 33 31 31 28 28 28 27 26 25 26 23 21 17 20 20 20 26 29 29 30 30 29
50 49 49 48 48 48 46 42 41 43 44 46 44 45 44 41 41 38 32 37 35 37 33 26 31 31 30 30 31 32 33 32 31 31 29 30 30 28 24 22 24 26 27 26 22 24 25 28 29 29 29 30 30 28
50 50 49 48 48 48 46 42 41 43 44 45 46 45 41 40 37 35 30 33 38 37 32 27 28 31 29 30 31 31 31 30 30 30 30 29 28 29 26 23 23 24 26 26 27 28 27 28 27 29 30 30 31 27
50 50 49 48 48 49 47 43 41 43 44 45 47 45 41 41 38 33 35 39 35 32 31 23 23 26 30 28 28 30 29 29 29 28 28 28 27 28 26 27 27 27 26 26 27 28 27 28 29 29 29 27 25 24
50 50 49 48 48 49 47 44 42 43 45 46 47 42 38 35 32 33 39 37 33 26 23 24 20 16 29 29 29 29 28 26 28 27 26 26 25 24 25 26 25 25 25 26 28 28 28 28 28 28 27 25 24 22
49 49 49 48 48 48 47 43 42 44 45 47 39 34 32 34 37 35 31 28 27 26 27 23 24 26 27 27 27 28 27 26 24 26 27 26 25 26 26 27 27 26 26 27 26 27 28 27 27 27 26 26 24 19
49 49 49 48 48 48 46 43 42 44 46 40 36 33 34 37 31 26 25 25 24 22 25 23 25 25 28 25 26 28 25 25 22 21 24 22 20 22 24 25 26 24 26 27 27 27 28 28 28 27 26 25 18 15
49 49 49 48 48 48 46 43 43 45 41 38 35 34 31 28 25 24 22 21 23 19 24 24 27 26 27 29 28 27 24 23 19 23 24 19 18 20 22 22 24 27 27 27 27 25 26 26 28 28 25 19 16 17
49 49 49 48 48 47 45 42 46 40 36 32 29 27 26 24 23 23 22 19 19 22 25 26 26 25 27 28 26 25 23 22 23 20 18 17 17 18 19 24 24 28 27 26 26 26 25 25 27 24 19 17 18 18
49 49 49 48 48 47 44 45 44 37 31 27 26 23 21 20 21 21 20 17 20 24 25 25 24 23 25 25 23 21 21 21 18 17 13 14 11 14 22 24 25 26 25 24 24 23 23 23 21 18 17 18 17 15
49 49 49 48 48 47 44 47 42 36 30 26 23 21 20 21 21 21 20 24 25 26 25 24 24 23 23 22 23 20 18 17 16 13 13 10 12 20 20 23 25 26 24 21 20 20 19 18 17 18 19 18 16 17
48 48 47 48 47 46 45 47 41 37 33 27 25 23 22 22 21 24 22 21 25 26 25 23 21 20 19 20 20 18 15 12 11 15 15 15 17 19 19 22 26 26 25 22 19 18 18 18 17 17 19 18 18 17
48 45 47 48 47 45 45 40 38 33 32 32 28 26 25 25 26 25 24 21 27 25 18 20 14 12 20 18 17 18 15 13 14 11 14 18 17 16 19 22 25 27 26 23 20 19 19 19 18 17 16 17 18 18
45 46 47 47 46 44 40 36 33 32 30 31 29 28 26 26 26 25 23 26 26 25 21 15 18 15 13 12 14 16 18 18 18 15 19 21 19 18 21 21 24 26 27 25 22 20 19 18 17 16 16 17 18 18
45 47 47 47 43 34 32 31 32 29 31 32 31 29 28 27 27 28 26 27 27 26 22 18 13 12 12 19 17 14 16 18 15 16 18 19 17 17 19 22 24 25 26 26 23 21 20 19 18 17 17 17 15 17
46 47 47 46 40 32 30 30 33 31 29 31 30 29 27 26 27 27 26 27 26 25 20 18 15 15 17 19 20 16 15 18 17 14 13 14 16 17 18 20 22 24 24 24 24 23 20 19 18 18 17 17 16 15
44 45 46 42 34 32 32 30 29 32 31 29 29 28 27 25 25 26 27 27 26 23 20 20 18 19 20 18 17 18 18 19 18 16 17 17 15 15 16 20 22 23 23 22 23 22 22 19 18 18 18 18 18 15
43 43 38 35 32 31 31 32 32 31 29 27 28 28 26 25 25 25 27 26 26 26 23 22 21 21 21 20 20 21 21 21 21 20 21 19 17 17 18 19 21 22 23 23 22 21 21 18 17 17 17 17 17 13
37 35 32 32 29 27 28 32 28 27 25 24 26 26 23 24 24 27 25 25 27 27 27 26 25 26 25 25 24 24 23 23 22 21 21 21 21 21 21 21 22 22 22 22 22 21 20 19 19 16 16 16 14 12
36 32 30 28 29 25 28 26 26 24 23 23 23 23 22 22 24 24 23 23 24 26 27 27 27 26 27 26 26 26 26 25 25 25 25 23 22 21 22 22 22 23 23 22 21 20 19 19 20 17 15 13 12 11
29 27 28 25 28 24 23 22 21 21 19 19 20 20 20 23 21 20 21 21 22 23 25 27 27 27 27 27 27 26 26 26 25 25 25 24 24 22 22 22 22 23 23 21 20 19 18 18 18 15 14 13 11 11
24 27 25 26 24 22 21 19 19 18 17 18 20 19 19 20 19 19 17 19 21 22 24 25 25 26 26 27 26 25 25 25 25 24 25 24 23 23 22 21 20 20 21 22 20 18 17 18 16 14 13 14 14 12
24 25 28 30 23 21 19 19 18 18 19 19 16 17 19 20 18 17 18 20 21 22 25 26 26 25 24 24 25 26 24 24 24 23 22 23 24 23 23 21 20 21 21 21 20 18 17 16 16 15 13 13 15 13
26 28 24 24 21 18 18 18 18 18 20 19 18 17 18 18 18 19 20 22 23 23 24 26 26 26 25 25 24 23 22 20 19 19 19 19 18 20 21 22 21 22 21 21 20 18 17 16 15 15 13 13 14 14
26 26 24 22 20 20 19 18 18 20 21 20 19 18 18 19 21 20 20 19 18 20 20 20 23 23 22 21 21 21 20 20 21 20 19 19 19 19 18 19 21 23 21 21 21 18 17 17 16 15 14 13 13 13
24 25 24 21 21 20 20 20 20 21 21 22 22 21 20 19 19 20 18 18 19 18 20 21 20 21 19 20 19 20 19 20 22 21 19 19 19 17 18 20 21 21 21 21 20 20 20 19 18 14 12 11 10 10
26 24 21 21 21 19 18 18 20 21 21 21 21 21 20 19 19 18 18 19 20 19 18 18 16 18 18 17 17 17 17 18 20 21 21 18 17 18 19 20 20 21 21 21 21 21 19 15 13 11 10 10 10 10
22 22 21 20 19 15 16 19 19 19 19 19 19 17 17 18 18 19 17 17 17 17 18 19 18 18 17 19 20 19 20 19 19 19 19 19 18 19 19 20 20 20 20 20 19 18 14 13 11 11 10 10 11 9
19 19 16 17 18 18 17 19 19 18 18 18 18 17 18 19 18 19 18 19 20 20 20 21 21 22 21 20 20 20 21 19 19 21 22 21 21 20 20 20 20 19 19 19 17 14 13 12 11 11 10 9 10 9

GFSWCAN_sfc_30mbdewp_096.txt.gz
Dewpoint
51 50 48 48 47 48 44 41 42 44 46 46 47 48 48 48 45 38 36 37 35 30 30 32 32 31 32 33 27 30 29 30 28 23 23 23 22 21 21 20 17 15 12 16 19 18 3 26 26 17 15 26 27 29
52 50 49 48 47 48 46 41 42 44 45 46 47 50 48 47 43 39 34 37 35 33 31 32 33 33 33 33 33 32 30 31 31 27 27 26 23 23 20 13 20 15 18 11 18 13 18 26 23 25 26 26 27 29
52 51 49 48 48 48 48 42 41 43 44 46 46 49 48 46 43 37 34 36 34 32 31 31 30 32 32 33 34 32 33 34 33 32 29 28 25 26 20 20 20 21 24 21 21 16 21 23 26 28 28 26 28 29
51 51 50 48 49 48 48 44 41 42 44 45 45 48 48 45 40 35 32 35 37 34 30 29 32 31 32 33 33 33 33 34 33 33 30 29 26 27 22 21 20 19 24 22 23 22 23 24 25 26 28 29 30 30
51 51 50 49 48 48 49 46 42 42 43 44 46 46 46 43 41 38 34 34 36 35 29 28 31 32 32 32 32 33 32 32 32 31 30 28 28 27 27 26 25 25 22 20 17 19 19 18 24 27 28 29 30 29
51 51 51 50 49 48 49 47 43 42 43 44 45 45 45 43 41 37 32 37 35 36 32 26 31 30 30 31 31 32 33 32 31 31 29 30 30 28 25 23 24 26 26 25 22 24 23 26 28 29 29 30 30 29
51 51 51 50 49 49 49 47 43 42 43 44 45 46 43 42 38 35 31 32 38 36 30 26 27 31 29 30 30 31 30 30 30 29 29 28 28 30 26 24 24 24 25 25 27 27 26 27 26 29 30 30 32 28
50 50 51 50 49 49 49 48 44 42 43 44 45 47 44 41 37 34 34 39 35 31 30 23 22 25 30 27 28 30 29 29 29 29 28 28 27 28 26 27 27 27 27 26 26 27 27 28 29 29 29 29 28 26
50 50 50 50 50 49 49 48 45 43 44 45 46 44 38 36 33 33 39 36 32 26 22 23 19 15 29 28 29 29 28 26 28 27 27 27 25 24 26 27 26 26 25 25 27 27 28 28 28 28 28 27 27 25
47 49 50 50 50 49 49 48 44 43 44 46 41 36 34 33 37 36 31 29 28 26 26 22 24 22 27 27 28 28 27 26 24 26 27 26 25 26 26 27 27 26 27 27 26 26 27 27 27 27 27 27 26 25
48 49 49 49 50 49 49 48 44 44 45 41 37 34 34 36 31 27 26 27 25 23 25 24 24 24 28 25 26 28 25 25 23 22 24 22 22 23 24 24 26 25 25 26 27 27 28 27 27 27 27 27 25 23
49 49 49 49 49 49 49 47 44 45 42 39 36 33 31 28 25 25 24 21 23 22 23 22 24 26 27 29 27 27 24 23 20 22 24 20 20 22 22 22 21 24 26 26 27 27 26 27 28 28 27 26 22 18
48 49 49 49 49 49 49 47 45 43 37 33 30 27 26 24 23 24 23 22 20 22 24 26 25 25 27 28 26 25 24 23 22 20 18 17 18 19 19 19 22 25 27 27 27 26 26 26 27 27 26 23 18 17
46 48 49 49 49 49 48 47 45 41 38 32 28 24 22 21 22 23 23 22 22 23 24 25 24 23 25 25 24 22 22 21 19 18 15 17 17 14 16 21 24 25 26 25 26 26 25 25 25 24 23 19 17 17
43 46 48 48 49 49 48 46 45 41 35 32 27 24 23 22 22 22 21 21 24 25 25 23 23 23 23 22 23 19 18 17 17 13 15 15 14 13 18 19 23 25 25 24 23 23 22 22 22 20 19 18 17 16
43 46 46 47 48 48 48 46 42 39 34 31 27 23 22 21 21 22 22 24 26 25 24 23 20 19 18 20 20 17 15 11 12 17 18 15 13 17 17 18 22 25 25 24 21 21 21 20 19 18 18 17 16 16
43 44 47 46 47 48 46 40 35 32 31 31 29 27 24 24 24 24 25 24 26 24 18 19 14 12 20 18 16 19 16 13 15 17 17 17 15 14 16 18 22 25 26 25 22 20 19 19 18 17 16 17 17 17
41 44 46 46 47 46 38 33 32 31 29 31 30 28 26 26 26 26 25 26 26 25 21 15 17 15 13 11 14 18 20 20 19 17 15 16 18 18 18 18 20 24 25 25 23 21 19 18 17 17 17 17 17 17
42 44 45 46 46 35 32 31 31 28 30 32 32 28 27 27 28 28 27 27 28 26 21 17 12 12 11 17 18 21 17 17 15 16 17 18 20 19 16 19 21 22 24 25 24 22 20 19 18 18 17 17 16 17
43 44 44 45 40 33 30 30 31 30 29 31 32 29 27 27 27 27 27 28 27 26 22 19 14 14 15 19 23 21 17 16 17 14 12 14 14 15 15 16 17 19 22 24 24 25 22 20 19 18 18 17 16 15
40 41 42 43 35 34 32 30 29 31 31 30 30 29 28 26 26 27 27 28 27 27 24 23 20 19 20 20 19 20 18 18 16 15 13 14 18 17 18 18 19 20 21 22 22 24 26 23 21 19 19 19 18 16
38 41 38 36 33 32 30 32 31 32 30 29 28 30 26 25 25 26 28 27 27 28 27 26 25 24 23 22 22 21 20 20 19 19 21 21 20 19 19 19 18 19 20 21 22 22 23 25 21 19 18 19 19 16
39 37 33 32 30 27 28 31 29 27 25 26 27 27 24 23 24 28 26 26 28 29 30 29 28 28 27 27 26 24 23 22 21 21 21 22 22 22 23 22 22 22 21 22 23 23 23 23 22 19 18 19 16 15
37 33 30 28 29 25 28 26 27 25 24 24 24 24 23 23 25 24 23 24 25 26 28 29 29 29 28 28 27 27 27 26 24 24 25 24 24 24 23 23 22 22 23 23 23 23 22 22 21 20 17 16 15 13
30 27 28 25 29 24 23 22 21 21 21 21 21 23 20 22 21 21 22 23 24 25 26 28 29 29 28 28 28 28 28 28 27 26 26 26 25 25 24 23 23 22 23 22 21 21 20 20 20 17 16 15 14 12
24 28 25 24 24 23 21 19 19 19 18 18 20 20 20 20 19 20 20 21 23 24 25 26 26 27 28 28 28 28 28 28 27 26 26 26 26 25 24 23 22 21 22 23 22 21 19 19 19 16 15 15 16 13
23 25 27 28 24 22 20 18 18 17 18 19 18 17 20 20 20 20 20 20 22 25 27 28 27 26 26 26 28 28 26 27 26 26 24 25 25 25 25 23 21 22 21 22 22 21 19 19 18 16 15 15 16 14
25 26 23 25 23 18 18 18 17 18 18 18 18 18 19 20 19 20 19 21 22 24 25 27 29 28 27 27 26 25 24 23 20 20 21 21 20 22 23 23 22 23 21 21 22 20 19 19 18 16 14 14 15 14
25 27 24 22 20 21 20 19 18 19 20 19 18 18 18 19 20 20 21 21 19 20 19 21 24 24 23 21 23 23 21 22 22 21 19 19 19 19 18 19 20 22 21 21 24 21 19 18 17 16 14 14 15 15
23 27 24 21 22 21 22 21 18 19 21 21 21 21 20 20 20 21 21 18 18 19 20 20 21 23 23 23 22 21 19 21 23 21 18 18 19 18 16 17 19 21 21 21 21 21 22 20 19 16 14 13 13 13
25 24 22 21 20 19 19 16 19 21 21 21 21 21 21 20 19 19 19 19 20 19 19 19 19 21 21 22 22 20 20 21 21 22 22 19 17 17 18 19 20 20 20 20 20 20 20 17 14 13 12 12 12 12
23 23 21 19 19 15 14 19 19 20 19 19 19 17 18 19 19 20 19 17 17 18 19 21 20 19 20 22 22 22 21 20 20 20 21 20 19 18 18 19 20 20 20 20 20 19 16 14 13 12 12 11 11 10
21 20 16 18 18 19 17 19 19 19 18 18 18 17 18 20 20 21 19 20 22 22 21 22 23 23 21 20 20 20 21 19 19 21 21 21 21 19 19 20 20 20 20 20 18 15 13 12 11 11 10 11 11 9

GFSWCAN_sfc_30mbdewp_099.txt.gz
Dewpoint
52 52 52 50 48 48 47 44 42 43 44 46 46 49 49 47 43 37 36 37 35 30 30 31 32 31 32 32 26 27 27 28 27 22 22 21 21 20 21 20 16 12 12 15 19 17 1 23 26 16 13 23 26 29
52 52 52 51 49 48 48 46 42 42 44 45 46 48 49 47 43 39 34 37 35 33 31 32 33 33 33 33 33 32 28 30 30 25 25 25 23 22 18 11 19 13 16 10 16 9 16 26 22 24 21 24 26 27
51 52 52 51 50 49 48 47 44 42 43 44 45 47 48 46 41 35 33 36 35 32 32 31 30 32 32 33 34 31 32 33 33 32 28 27 24 25 20 20 20 20 23 20 19 15 19 22 23 27 27 26 26 28
51 51 52 51 50 49 49 49 46 43 42 44 45 46 48 46 41 35 31 35 36 34 30 29 32 31 32 33 33 33 33 34 33 33 30 28 26 26 22 21 20 17 22 20 22 21 21 21 23 23 26 28 28 29
50 51 51 51 51 49 49 49 47 44 43 43 44 46 45 46 43 39 35 33 35 35 30 30 31 31 32 32 32 32 32 32 32 30 29 28 28 27 26 25 24 23 21 19 16 19 18 18 21 27 26 26 29 29
50 51 51 51 51 50 49 49 48 45 43 43 44 45 46 43 41 37 33 36 34 36 31 26 30 31 31 31 32 32 32 32 31 31 29 29 30 28 26 24 25 26 26 24 21 22 22 23 26 28 27 28 30 30
49 50 51 51 51 50 50 49 48 45 43 43 44 45 46 42 38 35 33 32 37 36 28 25 25 30 30 30 30 30 31 31 30 29 29 28 28 30 27 24 24 24 25 26 26 27 26 26 25 27 29 29 32 30
47 49 50 51 51 51 50 49 48 46 43 43 44 46 46 41 38 34 35 39 35 30 29 22 21 23 29 28 28 30 29 29 29 29 28 28 28 28 26 27 27 26 25 26 27 27 27 27 28 28 29 30 29 28
45 46 47 49 50 51 50 49 48 45 44 44 45 45 39 37 34 33 39 35 32 28 22 23 20 14 29 28 29 28 28 27 28 27 27 27 26 25 27 27 27 27 26 25 26 27 27 27 27 28 28 28 28 27
45 45 46 46 48 50 50 50 48 45 44 45 42 38 35 34 37 37 31 29 29 27 27 24 24 21 27 27 28 27 27 26 24 25 27 26 25 26 27 27 27 27 27 26 26 24 25 26 27 27 27 27 28 27
46 47 46 47 48 49 50 50 48 45 45 41 37 35 34 36 30 27 27 27 26 25 26 25 23 23 27 25 26 28 25 25 23 22 25 23 22 24 25 25 27 28 27 26 26 26 27 27 27 27 27 27 27 25
46 46 48 48 49 49 49 49 47 43 42 40 36 33 31 28 26 26 24 23 24 24 24 23 23 26 27 28 26 27 24 23 20 22 23 20 21 23 22 22 22 22 23 25 26 26 26 27 27 27 27 27 26 25
45 46 46 47 49 49 49 49 46 43 40 38 34 29 27 26 24 24 22 23 22 23 23 25 24 26 27 28 26 25 23 22 22 20 18 17 18 20 19 19 19 24 26 27 27 27 27 26 27 27 27 27 25 21
45 45 44 45 47 48 49 49 46 43 40 33 31 27 24 21 22 23 23 23 24 23 24 25 24 24 26 25 24 22 23 21 20 18 16 18 18 18 14 19 21 23 25 25 26 26 26 25 25 26 27 24 21 18
43 45 44 43 46 48 48 49 45 43 36 31 30 25 25 24 22 22 23 20 23 26 25 23 23 23 23 23 23 20 19 17 17 13 15 16 17 12 14 16 19 23 24 24 24 24 24 23 24 24 24 22 19 17
43 44 42 42 43 46 47 48 44 39 34 31 30 27 23 21 21 21 21 23 26 26 25 23 20 20 19 20 20 18 15 11 12 17 19 17 12 13 15 16 18 23 24 24 24 23 23 22 22 22 20 19 18 17
43 40 42 45 45 46 48 39 34 31 31 29 28 28 24 23 22 22 23 25 28 25 22 21 17 15 20 18 16 18 15 15 16 17 18 18 12 13 15 16 18 23 24 24 24 23 22 21 20 19 19 18 17 17
39 40 42 43 44 44 36 34 32 31 28 30 29 29 26 25 25 26 26 27 27 26 23 19 19 16 14 13 13 17 20 22 20 19 18 16 17 17 17 16 18 21 23 24 25 24 21 19 19 18 18 18 17 17
40 40 41 43 43 38 34 31 31 27 29 31 32 29 27 27 27 28 27 28 28 27 25 21 14 12 12 16 15 18 22 21 15 15 18 18 16 17 17 17 18 19 21 22 24 24 23 21 20 19 18 18 16 17
40 42 42 43 41 35 31 30 31 29 29 30 32 29 28 27 27 28 28 29 29 29 27 26 22 16 13 16 21 22 23 21 17 15 14 14 16 16 18 19 17 17 18 21 22 25 24 22 21 20 19 18 17 16
38 38 39 40 37 35 34 30 28 29 31 29 30 30 29 26 26 27 28 30 28 27 26 28 27 24 22 20 20 22 22 20 17 15 13 13 15 15 15 16 18 18 19 19 20 21 26 24 24 21 20 20 19 17
36 37 37 37 34 32 30 32 31 31 30 29 28 30 27 25 25 26 28 27 27 29 28 27 28 28 26 26 25 24 22 21 20 19 20 20 18 18 18 19 19 19 19 20 21 21 21 24 25 22 20 20 21 17
37 38 35 33 31 30 26 32 28 28 26 26 28 27 27 24 24 28 26 27 27 28 29 30 30 29 28 28 28 28 26 24 23 22 21 21 21 21 22 23 23 22 22 23 23 22 22 24 25 23 20 21 19 17
38 33 30 28 29 25 28 25 28 26 26 24 25 24 24 22 25 25 24 25 26 27 28 28 29 30 30 30 29 29 30 28 27 27 26 23 22 22 23 23 24 24 24 24 23 23 23 23 24 24 20 19 18 17
29 27 28 25 28 24 22 22 21 21 21 20 22 22 21 22 21 21 21 22 25 26 27 28 29 29 28 28 29 29 30 30 29 28 27 26 25 26 26 26 25 24 23 23 22 22 21 22 22 21 19 18 17 16
23 27 24 24 23 22 21 19 19 19 18 19 21 19 21 21 20 20 20 22 24 25 26 27 27 27 27 28 28 29 29 30 29 28 28 28 27 27 27 26 24 23 23 23 23 22 21 21 21 20 18 19 19 14
23 24 27 28 25 22 21 18 17 18 18 19 18 18 20 19 19 20 21 21 23 24 27 28 28 27 27 27 29 29 28 28 28 28 27 27 28 27 27 25 23 23 22 22 23 22 21 20 20 19 18 17 18 14
25 24 22 24 23 20 19 18 18 18 18 17 18 18 19 20 18 21 21 21 21 21 23 27 30 30 29 29 29 27 25 25 22 22 22 22 22 24 25 25 23 24 21 21 22 22 21 20 19 18 17 16 16 14
24 26 23 23 21 21 21 19 18 18 19 18 17 17 18 19 20 20 21 21 19 19 19 20 22 24 25 24 24 25 23 23 24 24 23 22 20 20 20 21 23 24 22 22 24 22 20 20 19 17 16 16 15 13
23 25 24 21 21 20 21 20 19 17 19 20 20 20 20 20 20 19 20 19 19 20 21 21 22 22 23 23 24 23 21 22 25 24 20 18 19 20 18 18 19 20 21 21 23 23 23 22 21 17 15 15 14 13
24 25 23 21 20 19 20 17 17 21 20 20 19 20 21 22 21 20 21 22 23 22 20 20 19 21 22 22 22 22 23 22 22 24 23 21 19 17 17 17 18 20 21 21 22 22 22 18 15 14 13 13 13 13
23 22 21 19 18 14 12 18 18 19 18 19 20 18 18 19 20 21 22 20 20 20 21 22 22 23 23 24 25 25 25 24 24 22 22 22 20 18 18 19 20 20 21 21 21 20 17 16 14 13 12 12 13 11
22 21 17 19 18 17 16 18 18 18 16 17 18 20 21 20 20 21 21 23 23 23 23 24 24 24 25 24 24 25 26 23 23 24 24 24 22 20 19 20 20 20 20 20 19 17 15 14 13 12 11 11 11 10

GFSWCAN_sfc_30mbdewp_102.txt.gz
Dewpoint
51 52 52 52 51 49 48 48 45 43 43 44 46 48 49 47 43 39 37 38 37 33 32 32 32 32 33 32 27 28 29 29 28 23 21 20 21 19 21 20 16 14 15 17 20 18 7 23 27 17 16 17 26 30
50 51 52 52 52 50 49 49 47 44 43 44 45 46 48 47 43 39 36 37 36 34 33 33 33 33 33 34 33 33 28 30 30 25 25 25 22 23 18 10 19 14 14 11 16 13 18 26 24 25 21 24 27 28
48 49 51 52 52 51 49 49 49 46 44 43 44 46 48 46 41 36 35 37 36 34 34 32 31 32 33 33 35 32 33 34 33 33 29 28 24 25 19 20 21 20 21 18 19 16 20 20 21 26 27 26 27 28
49 48 50 51 52 51 50 49 49 48 45 43 43 45 47 46 42 37 34 36 37 35 31 31 32 32 32 33 33 34 34 34 34 34 31 29 25 27 22 21 19 17 21 19 19 19 20 21 22 22 23 26 27 28
48 49 49 51 52 52 51 50 49 48 46 44 43 44 46 45 44 40 37 35 36 35 30 31 32 31 32 33 33 33 33 33 33 32 31 29 29 28 27 26 25 23 20 18 15 17 17 18 21 26 26 26 27 28
47 49 49 50 51 51 52 51 50 49 47 44 44 44 45 44 43 38 35 36 35 37 31 26 31 31 31 32 32 32 33 33 33 32 31 31 31 28 27 25 26 26 24 22 20 22 21 23 25 27 27 27 28 29
47 47 48 49 50 51 51 51 50 49 47 45 44 44 45 44 39 36 34 34 36 37 29 24 26 30 30 30 31 31 32 32 32 32 30 30 30 31 29 24 24 26 26 26 26 26 25 26 25 28 29 29 31 31
44 44 46 47 49 50 50 51 51 50 48 45 44 45 46 44 40 37 37 40 36 31 30 23 23 23 30 29 29 30 30 30 30 30 29 29 29 30 28 28 28 27 26 26 25 26 26 27 28 28 29 30 30 29
45 45 44 45 46 46 48 50 51 50 47 45 44 44 41 39 36 34 39 37 33 30 27 26 23 19 29 28 29 29 29 28 29 28 28 28 28 26 28 28 28 28 27 28 27 27 27 26 27 27 28 29 29 29
45 45 46 45 46 46 47 48 50 49 47 45 43 39 35 35 37 39 32 31 30 30 29 27 26 23 29 28 28 28 28 27 26 27 28 27 26 28 28 29 28 28 28 27 26 26 26 24 25 27 27 29 29 29
45 45 46 46 46 47 47 49 50 47 45 42 37 35 35 36 31 29 29 28 28 28 28 27 26 24 28 26 27 29 27 27 24 25 26 25 24 26 27 25 26 27 28 28 27 28 27 26 26 27 27 28 28 28
44 45 45 46 46 47 48 49 49 43 41 40 37 35 32 30 28 27 26 25 26 26 26 25 25 26 27 29 27 27 25 24 21 24 23 21 23 25 24 23 24 24 24 23 24 24 25 26 27 28 28 28 28 28
43 44 45 45 46 46 47 49 48 44 42 40 36 33 32 29 25 24 21 25 24 25 25 25 25 27 28 28 26 26 23 22 23 21 19 21 21 20 19 19 19 22 24 26 27 27 27 27 27 28 27 28 28 27
43 44 44 44 45 44 45 47 48 44 39 33 31 27 27 25 24 24 24 25 26 25 25 26 25 25 27 26 25 22 24 23 21 18 17 21 20 20 20 19 19 21 25 26 27 27 27 26 26 27 27 27 27 25
42 43 43 43 44 44 44 46 46 43 36 31 31 26 27 27 24 24 25 23 24 26 26 24 25 24 24 24 24 22 19 19 19 16 19 21 21 18 12 15 17 21 24 25 25 26 26 26 25 25 26 27 25 23
41 42 41 41 41 42 43 45 45 39 35 32 30 29 26 24 25 23 22 24 27 27 26 25 22 21 21 22 21 20 18 14 15 20 22 20 16 13 13 15 16 20 23 24 24 24 25 25 25 25 24 25 23 21
40 38 38 40 42 44 45 40 37 32 31 29 28 31 27 24 25 24 23 25 28 26 24 24 21 18 21 19 18 20 17 16 19 20 20 20 17 12 15 16 16 19 23 24 24 24 23 23 23 22 22 23 22 20
37 38 39 41 41 41 38 36 34 31 27 30 28 30 28 27 26 25 24 28 28 27 26 24 24 19 16 15 16 18 21 23 24 22 21 20 18 17 16 15 16 18 21 24 25 25 24 23 22 22 22 23 21 20
38 39 39 40 40 38 34 33 33 28 28 30 31 30 29 28 27 28 27 28 30 28 27 26 24 22 18 19 17 20 22 24 24 17 16 18 20 17 17 18 18 18 19 20 23 23 24 24 22 22 21 20 19 19
38 39 40 40 39 35 32 31 32 29 28 29 32 30 30 29 28 28 27 29 28 29 27 25 26 25 19 19 20 21 22 25 23 20 21 25 20 18 18 18 18 19 20 20 22 24 23 23 23 22 21 20 19 18
37 38 39 38 35 36 34 32 28 28 30 30 32 30 30 28 28 27 28 29 29 27 27 28 27 27 27 22 20 22 22 22 20 20 21 27 28 20 19 21 22 22 20 19 18 18 23 23 22 23 22 22 21 20
36 36 36 37 33 33 31 33 31 31 29 28 29 30 28 26 26 27 30 27 27 29 29 28 28 29 29 29 29 28 26 25 24 22 23 22 22 20 19 19 20 20 21 21 20 19 19 21 24 24 23 22 23 21
36 36 34 34 30 30 27 32 28 28 25 25 28 27 27 25 24 28 26 27 28 28 29 29 30 30 30 30 30 30 29 29 28 27 26 25 24 24 24 24 25 25 25 25 24 23 24 24 24 25 23 23 21 20
37 32 29 27 28 25 28 26 27 26 26 25 24 22 24 24 25 25 24 25 27 27 28 29 29 29 29 30 30 30 30 30 30 29 29 29 28 27 24 24 25 25 26 25 26 25 25 23 24 25 22 22 20 19
26 25 27 23 28 25 22 22 23 23 21 22 22 22 22 23 22 21 21 22 24 26 27 28 28 29 28 28 28 29 30 31 30 30 31 30 29 29 28 27 25 25 26 25 25 24 24 23 24 24 22 21 21 20
21 22 23 23 23 21 20 19 19 20 18 19 20 19 21 22 21 20 20 22 23 24 25 27 27 27 28 28 28 29 29 30 31 30 31 31 30 29 29 28 28 27 25 26 26 24 24 22 22 22 22 22 22 19
20 17 26 27 24 23 20 18 18 17 18 19 18 19 20 19 19 19 21 22 22 24 26 28 28 28 28 28 28 29 30 30 30 30 30 30 31 30 29 29 28 28 25 24 25 24 23 22 22 22 21 20 21 19
23 23 22 24 24 21 20 19 18 18 17 17 18 18 20 20 18 21 21 22 22 22 22 24 25 28 29 29 31 30 29 28 27 25 25 25 24 26 28 29 27 26 24 23 23 23 23 22 22 21 20 20 20 18
21 23 24 22 22 20 21 20 19 19 19 19 19 19 19 19 21 20 21 21 19 20 20 22 23 23 25 27 27 27 27 26 26 25 25 25 26 25 22 24 25 26 24 24 25 23 22 22 21 20 19 19 18 17
21 23 21 20 20 20 22 21 20 18 19 20 20 20 20 20 20 20 20 20 20 22 23 24 25 25 24 23 23 24 24 25 27 27 26 25 25 25 21 22 23 24 23 23 25 24 24 24 23 19 17 16 15 15
21 24 22 20 18 19 21 18 17 19 19 20 19 20 21 22 21 21 22 23 24 25 25 25 24 24 23 23 23 23 23 25 24 26 28 28 24 22 20 20 21 22 23 23 24 24 24 21 18 16 16 15 15 15
22 22 20 19 19 15 12 18 19 20 19 19 20 18 18 19 20 22 21 20 21 23 23 24 24 23 24 25 25 25 25 25 25 24 25 27 25 22 19 19 19 21 22 22 23 23 20 18 16 15 15 15 15 12
22 21 18 18 17 17 15 17 17 18 16 17 18 20 21 20 19 19 20 21 21 21 22 23 24 25 25 25 25 26 27 27 27 27 26 26 26 23 20 20 21 21 21 22 21 19 18 16 15 14 14 13 12 11

GFSWCAN_sfc_30mbdewp_105.txt.gz
Dewpoint
51 50 51 52 52 52 50 49 48 46 44 44 44 46 49 48 45 40 39 39 39 34 32 32 32 31 32 31 22 29 28 30 29 23 18 16 17 17 18 15 14 14 16 18 18 17 13 24 26 15 17 20 24 27
49 49 49 51 52 52 51 50 49 48 44 44 44 45 47 48 44 39 37 38 36 36 35 34 33 34 33 32 31 33 30 28 28 23 22 21 19 19 15 6 17 14 11 10 14 15 19 25 20 23 23 23 25 26
49 48 48 49 51 52 52 51 49 49 46 44 44 44 47 47 44 40 37 38 38 36 34 34 32 33 34 34 36 29 32 34 33 34 28 25 22 21 15 16 15 17 18 17 14 12 16 18 20 23 26 25 25 27
48 49 49 49 50 51 52 52 50 49 48 45 44 43 45 46 45 42 41 38 38 36 32 31 33 32 33 33 34 34 35 35 35 34 31 28 24 24 19 18 20 16 20 17 16 16 18 18 19 20 21 23 24 26
45 47 48 49 49 51 51 52 51 50 49 47 44 43 44 46 45 43 42 39 38 36 32 31 33 32 32 33 33 34 34 33 33 33 32 29 28 28 26 26 24 21 19 17 14 17 16 17 21 24 25 26 27 27
46 47 48 48 48 49 51 51 52 51 49 48 45 44 44 45 42 40 37 38 36 38 34 29 33 31 32 33 33 33 33 33 33 33 31 31 33 28 25 21 22 24 23 21 19 22 21 21 24 25 26 26 27 28
46 45 44 46 48 49 50 50 51 51 50 48 45 44 44 46 42 37 36 35 36 38 31 29 31 31 31 32 32 32 33 33 33 33 32 30 31 31 29 22 20 25 25 25 25 24 24 25 25 27 28 28 30 30
45 45 44 44 45 46 47 48 49 51 50 49 45 44 45 46 44 40 39 40 37 34 32 29 29 25 31 30 29 32 31 32 32 31 31 30 30 31 28 27 26 25 26 26 26 26 26 27 27 27 28 29 30 30
45 45 45 45 43 44 45 45 47 49 50 48 45 45 42 41 38 37 40 39 37 34 33 31 28 27 30 30 30 30 31 29 31 29 29 30 28 28 29 29 28 28 29 28 28 28 27 26 27 27 27 28 29 29
45 45 45 45 46 46 45 46 47 48 48 45 42 38 33 37 38 40 35 33 33 33 31 30 31 28 29 29 29 29 29 29 27 28 29 27 26 28 29 29 29 29 29 29 27 26 27 27 28 27 26 27 28 29
44 44 45 45 45 45 46 46 48 47 45 41 37 34 37 37 33 31 31 30 31 30 31 31 30 28 29 28 29 29 31 29 26 28 26 26 26 27 27 27 28 28 28 28 29 28 29 28 27 26 27 28 29 30
43 44 44 44 45 45 45 46 46 43 41 40 37 36 34 32 32 29 29 28 28 28 30 28 27 28 28 29 28 29 28 26 23 27 25 22 25 27 26 25 24 24 25 27 27 27 24 24 25 27 28 29 29 29
42 43 43 43 44 44 45 45 47 44 42 40 36 33 32 31 26 25 23 26 27 29 28 27 27 28 28 29 28 27 26 24 24 23 22 22 26 25 21 20 21 22 22 24 26 27 28 27 28 28 28 29 29 29
41 42 43 43 43 43 44 44 46 43 39 34 31 27 28 28 27 27 26 29 30 29 28 28 28 27 28 27 27 25 25 24 23 20 18 25 26 25 23 22 20 18 24 26 27 28 27 28 28 28 28 28 28 28
41 42 42 42 43 43 43 44 45 43 37 33 31 26 28 30 30 29 30 27 26 28 28 27 27 26 27 26 25 25 21 21 22 20 24 27 23 22 18 15 17 19 23 25 27 27 27 28 27 27 27 27 28 27
39 40 39 40 40 41 42 43 44 40 36 33 31 29 30 29 30 28 27 28 29 28 29 28 26 25 24 25 23 21 21 18 21 25 26 24 21 19 16 15 16 18 22 23 24 25 26 27 27 27 27 26 27 26
39 35 36 36 40 42 43 41 38 35 33 30 29 33 32 31 29 31 29 27 29 28 27 28 25 24 24 22 21 22 22 23 23 26 26 22 21 20 19 16 17 17 19 23 24 24 24 25 25 24 22 24 25 25
36 37 38 38 39 39 40 39 35 32 28 30 29 30 31 31 30 29 25 28 28 28 30 29 30 24 24 22 21 22 23 26 27 24 25 25 23 21 20 16 16 17 18 21 25 26 26 25 24 23 24 26 25 24
38 39 38 38 38 35 33 33 34 29 30 32 32 32 32 31 31 30 29 28 29 30 30 29 28 25 25 26 25 27 28 26 22 24 23 20 19 20 18 18 18 17 18 19 22 23 24 25 24 24 24 23 22 22
39 39 39 39 37 31 31 32 33 30 27 26 30 30 31 31 31 30 29 29 29 29 28 26 27 27 27 26 28 27 27 26 25 24 22 21 22 21 23 24 25 27 26 22 23 25 23 23 24 24 24 23 22 21
38 38 38 38 34 32 32 31 29 29 31 28 31 31 30 30 30 30 29 30 29 27 27 30 28 27 28 28 28 28 25 24 22 22 20 20 22 24 26 27 27 26 25 25 25 24 23 22 22 22 23 24 24 23
35 35 35 36 31 32 31 33 31 31 29 30 30 30 30 27 28 29 32 28 27 28 29 27 28 29 29 29 29 29 29 29 28 27 27 26 26 26 26 27 26 26 25 24 23 20 20 20 21 23 24 24 24 24
36 36 33 32 29 28 25 33 28 27 24 24 28 27 27 28 28 31 27 29 29 29 29 29 29 29 29 30 30 31 31 31 30 30 29 29 29 29 29 29 28 28 28 28 28 27 27 26 25 24 24 25 24 23
37 32 28 27 27 22 29 26 29 25 27 26 24 21 21 25 27 25 24 24 26 26 26 28 29 28 29 29 29 30 30 31 31 31 31 30 30 30 30 29 28 27 28 28 28 28 28 26 25 25 25 24 23 22
27 26 27 23 26 24 22 22 24 25 21 23 21 21 21 24 22 23 21 20 23 25 26 27 28 29 28 28 28 29 30 30 30 30 31 31 31 31 31 31 30 30 29 28 27 27 27 27 25 25 25 24 23 22
21 22 22 21 22 20 19 17 20 20 19 19 21 22 23 22 21 20 19 20 21 23 25 27 27 27 28 29 29 29 29 30 31 30 31 31 31 31 31 31 31 31 30 28 28 28 28 26 25 25 25 24 25 23
17 18 25 27 24 24 21 20 20 20 19 19 21 19 20 18 19 21 21 22 23 24 27 29 29 28 28 28 29 30 30 31 31 31 31 30 31 32 32 31 30 31 30 29 28 28 28 26 25 24 24 24 24 23
22 23 20 21 24 23 19 18 19 18 21 22 20 19 19 21 18 19 22 24 25 28 28 27 28 29 29 30 30 30 30 31 31 30 29 29 28 29 29 31 32 31 29 27 26 27 26 25 24 24 24 23 23 23
22 23 22 18 21 21 21 20 21 22 20 20 19 20 20 22 22 23 25 24 25 23 22 23 25 28 27 27 29 30 30 29 27 25 24 25 27 29 30 28 29 30 29 27 26 26 25 24 24 23 23 22 22 21
21 22 19 18 17 17 18 21 20 21 23 22 22 21 21 21 22 25 25 25 23 23 24 26 28 28 26 26 25 25 27 28 28 26 24 25 27 30 29 26 26 28 27 26 26 25 26 25 24 21 20 20 19 18
19 21 19 18 16 18 19 21 21 20 20 21 22 21 21 21 22 25 25 25 26 27 27 26 26 26 26 24 24 23 22 25 27 27 27 28 31 30 28 25 25 26 26 26 25 25 25 24 21 19 18 18 17 17
21 18 17 17 18 19 16 17 19 19 20 20 20 20 20 21 20 22 23 23 23 24 25 26 25 23 24 24 25 26 26 26 26 27 26 27 29 30 27 23 23 25 25 25 25 25 24 21 20 18 18 17 17 16
22 21 20 20 19 17 17 17 17 17 18 18 19 21 22 22 21 21 22 23 23 23 23 23 24 25 25 25 25 26 28 28 28 28 29 28 27 29 26 23 23 23 24 24 24 24 22 20 19 18 17 17 15 14

GFSWCAN_sfc_30mbdewp_111.txt.gz
Dewpoint
52 51 49 49 49 50 52 52 50 49 48 46 45 45 47 48 46 41 40 38 36 34 34 33 31 29 30 29 20 27 25 30 30 23 22 18 18 17 17 17 21 17 20 23 25 23 11 23 23 12 7 21 20 21
52 51 49 48 49 49 51 52 52 49 48 46 45 45 44 47 46 44 37 40 38 33 30 37 35 34 33 33 32 32 26 29 29 27 24 22 19 19 17 8 16 13 18 19 22 18 22 24 19 22 21 19 20 24
51 50 49 48 49 49 50 51 52 51 49 48 46 45 44 44 46 44 41 40 39 36 34 36 33 34 34 34 35 28 31 32 33 34 30 27 23 23 17 17 16 15 17 15 14 11 16 19 22 24 25 23 24 25
50 48 48 48 49 49 50 50 51 52 51 49 48 45 44 43 45 45 42 41 39 37 32 30 33 32 33 34 33 35 35 35 36 34 30 28 25 26 21 18 19 18 19 17 16 16 17 17 18 18 19 22 25 26
47 45 47 48 48 48 49 50 51 51 52 51 49 46 44 43 45 43 43 41 39 35 30 32 35 32 33 33 33 34 34 34 33 31 30 29 31 28 27 27 23 23 19 18 16 16 15 16 20 22 21 22 23 24
45 46 47 46 46 47 48 49 50 50 50 51 50 47 44 43 45 41 38 39 36 38 32 25 33 31 32 33 33 33 33 33 33 32 31 33 33 29 26 24 25 24 24 23 19 19 19 20 22 23 22 22 25 26
45 46 43 44 44 45 46 46 47 47 48 50 50 47 44 43 43 35 36 36 36 38 33 28 28 31 32 33 33 33 33 33 33 32 31 31 31 32 29 25 23 25 24 25 25 24 23 24 23 24 24 24 27 29
44 45 44 44 44 44 44 44 44 45 47 49 50 47 44 44 44 40 39 41 38 35 34 29 28 29 31 30 30 33 31 32 32 31 32 31 30 31 28 28 29 29 29 29 28 27 26 26 27 26 27 28 27 27
44 44 44 44 44 45 45 45 44 45 46 48 48 45 42 40 37 38 40 39 38 35 32 31 27 25 30 30 31 30 31 28 31 30 29 30 28 26 29 29 29 30 30 30 30 29 28 27 27 27 27 27 27 27
43 44 44 44 44 44 44 45 46 46 48 46 42 38 35 38 39 39 36 33 32 33 31 29 31 29 29 29 30 30 30 27 26 28 29 28 26 28 28 28 28 28 28 27 28 28 28 28 27 27 27 27 27 27
43 43 43 43 43 44 44 46 47 45 44 41 38 37 37 37 35 32 31 29 31 30 31 31 30 28 30 26 26 30 28 28 23 26 27 25 24 27 29 28 26 25 25 24 27 28 29 29 29 28 28 28 27 28
42 42 43 43 43 43 44 46 46 44 42 40 38 36 35 33 33 30 28 29 29 26 29 29 29 29 29 29 28 29 25 26 21 26 24 21 23 25 27 24 24 22 23 21 20 21 23 25 26 25 25 26 27 28
41 41 42 42 42 42 43 43 45 45 41 39 36 35 33 32 27 26 23 25 25 28 28 27 25 27 28 28 27 28 25 22 24 21 19 20 22 24 24 22 20 21 19 21 22 25 27 27 27 27 26 27 27 28
40 40 41 41 41 42 42 41 42 42 39 35 32 26 27 25 27 27 25 25 28 30 28 29 27 27 28 26 26 25 24 24 21 19 17 21 21 26 23 20 15 13 16 18 22 24 25 26 26 27 28 28 28 27
39 40 40 41 41 41 42 43 43 42 37 32 31 25 26 28 28 29 30 27 27 30 29 28 27 27 26 27 28 26 24 20 19 18 20 21 24 25 22 21 18 14 14 14 18 20 22 24 26 26 27 27 28 27
38 39 39 39 39 40 41 41 41 41 36 33 32 28 30 28 28 28 26 27 28 28 28 29 26 24 24 25 25 22 20 18 15 20 23 25 24 23 22 24 22 20 17 15 15 19 21 22 22 23 25 26 26 26
38 34 32 36 39 41 41 39 36 32 31 29 28 31 29 28 26 28 28 27 29 26 23 26 25 23 26 24 23 23 20 20 20 23 27 29 27 25 24 25 25 24 22 20 18 16 19 23 24 24 22 22 24 24
35 34 36 36 38 37 37 36 33 30 27 28 26 27 30 30 29 29 30 29 28 26 27 25 27 25 23 22 20 22 23 24 25 25 26 27 27 26 26 27 26 25 23 23 22 21 21 19 21 22 23 23 24 24
35 35 36 37 36 33 30 32 32 25 26 27 29 29 29 29 30 30 30 29 29 29 30 30 27 25 23 24 24 25 26 27 26 27 28 29 29 29 28 27 26 25 24 24 24 23 22 21 20 22 23 24 23 23
38 38 39 38 36 33 29 29 33 28 23 23 27 27 26 24 26 29 29 29 29 30 29 26 25 25 27 27 26 26 24 26 28 28 27 27 27 27 27 26 26 26 26 26 25 26 25 25 26 25 25 25 25 25
36 37 37 38 35 34 30 28 28 28 25 26 26 26 23 26 26 26 27 29 28 27 25 26 25 25 25 25 24 25 25 27 27 27 26 27 27 28 29 29 29 29 28 28 28 28 28 28 28 28 28 27 28 28
33 35 35 36 32 31 29 31 26 28 27 26 27 28 26 25 24 25 27 27 26 26 27 26 26 26 27 26 26 27 28 28 28 29 29 30 29 29 28 29 29 30 30 30 30 30 30 30 29 29 27 27 27 27
35 34 33 32 29 28 26 30 26 26 22 21 25 23 22 21 21 25 24 25 24 26 26 26 27 28 28 29 29 29 29 29 29 29 28 28 28 29 29 30 30 30 30 31 31 31 31 31 31 31 29 28 26 25
35 31 28 26 27 24 27 25 26 23 21 18 16 14 14 15 19 19 17 17 19 24 26 27 28 27 27 28 28 29 29 29 28 28 29 29 29 30 30 31 31 31 31 31 31 31 31 31 31 30 30 29 27 26
26 26 26 22 27 24 22 21 22 21 18 18 15 15 16 18 17 17 16 16 18 20 21 22 23 24 25 25 26 26 26 27 26 27 28 30 30 30 30 31 31 31 32 32 32 32 31 30 30 29 29 28 27 26
19 21 21 20 19 20 19 17 18 17 17 16 16 15 16 16 16 15 15 15 17 19 22 23 23 22 23 24 24 24 24 28 29 31 33 32 31 30 29 28 28 27 30 32 32 31 31 31 30 29 28 28 28 30
18 19 20 22 21 22 21 20 17 16 16 17 15 14 15 15 14 14 15 16 17 18 20 22 23 23 22 23 24 27 27 31 32 31 30 30 30 31 30 29 28 27 27 29 31 31 30 30 29 28 28 28 28 27
21 19 16 18 21 20 16 15 14 14 12 13 15 13 12 11 10 12 14 16 20 22 24 24 28 28 28 28 29 28 29 29 29 30 29 28 28 30 30 30 30 30 30 30 30 31 30 30 29 29 28 27 27 26
19 19 18 14 16 18 18 16 14 14 14 13 12 11 12 14 15 16 17 18 20 20 20 20 22 24 24 25 26 27 28 27 25 23 23 23 23 24 24 25 26 27 28 29 30 31 31 30 29 28 27 26 25 25
16 18 15 14 14 13 14 16 15 15 17 17 17 17 16 17 18 19 19 19 19 20 21 23 23 23 24 24 23 23 25 25 26 26 24 23 24 24 23 23 24 25 26 27 28 28 31 30 28 26 24 24 23 23
17 18 17 16 15 16 17 17 17 17 17 17 18 17 17 17 19 20 20 21 23 23 23 23 23 25 25 23 23 23 23 23 25 27 27 27 27 27 26 26 26 26 26 26 27 27 28 27 25 23 22 22 22 22
17 16 16 15 16 18 18 17 16 17 18 19 18 19 19 19 18 19 20 21 21 21 22 22 22 21 21 22 24 25 25 25 25 24 23 24 26 26 26 27 26 25 25 26 26 26 26 25 24 22 22 22 20 21
17 16 16 16 15 15 16 16 15 15 16 16 17 17 17 17 16 17 18 20 20 20 21 21 22 23 23 24 24 24 26 27 26 27 27 28 28 28 27 27 25 25 25 25 25 26 25 25 24 23 22 21 20 19

GFSWCAN_sfc_30mbdewp_114.txt.gz
Dewpoint
52 52 51 49 49 49 50 52 51 50 48 47 46 46 45 47 46 41 39 38 34 31 31 34 31 30 30 29 20 24 24 28 29 22 21 18 18 17 17 17 20 18 21 23 24 23 9 24 22 11 9 17 20 19
53 52 51 49 48 49 50 51 52 51 49 48 46 46 44 45 46 42 37 40 38 33 29 37 36 35 33 32 29 31 23 28 27 25 25 22 19 20 17 6 20 14 17 16 22 16 22 23 19 21 21 19 19 21
53 52 51 49 48 49 49 50 51 52 51 49 48 46 45 44 45 43 40 40 38 35 32 33 34 33 34 34 35 29 29 32 32 32 28 26 21 22 16 16 15 16 19 18 17 14 18 22 23 23 24 23 23 23
52 52 50 48 48 49 49 50 50 51 51 51 49 47 45 44 44 44 41 42 38 37 30 28 33 32 33 33 33 35 34 35 35 34 29 26 24 25 20 18 17 16 17 16 16 16 16 16 17 18 19 20 22 24
51 50 48 47 48 48 48 49 50 49 50 51 51 49 46 44 44 42 42 40 39 34 27 29 34 32 33 33 33 34 34 34 33 31 29 28 30 29 28 27 25 24 21 18 16 17 16 17 17 19 21 20 21 22
50 48 47 48 47 47 47 48 49 49 49 50 51 49 46 44 44 41 38 38 36 38 31 24 32 31 33 33 33 33 33 33 33 31 30 31 33 29 26 25 25 26 25 23 21 23 24 24 23 22 22 22 22 25
47 47 47 45 45 46 46 46 46 46 46 48 50 50 46 44 41 35 35 36 37 38 33 27 27 31 32 33 33 33 33 33 33 32 31 31 31 32 29 26 25 26 28 29 29 29 27 27 26 25 24 24 25 27
46 46 44 44 44 44 44 44 44 44 45 47 49 49 45 45 43 39 39 40 39 36 33 28 27 30 31 30 29 32 31 32 31 31 31 31 30 30 28 29 29 29 29 29 29 30 29 29 28 27 27 27 27 27
45 44 44 44 44 45 44 44 43 43 44 46 48 45 42 39 36 37 40 38 37 35 32 31 26 25 31 31 31 30 31 27 30 30 29 30 28 26 28 29 28 28 28 28 29 27 28 29 28 28 28 27 27 27
42 43 44 44 44 43 44 46 46 46 47 46 42 39 36 37 40 39 35 32 32 33 31 29 31 29 28 29 29 29 29 27 24 28 30 28 26 28 28 28 29 28 27 27 24 21 25 25 28 28 28 28 28 27
41 42 43 43 43 43 44 46 47 45 43 41 38 36 37 37 34 32 31 29 30 29 31 30 30 28 30 25 25 29 27 27 24 25 27 24 24 25 28 28 27 24 23 24 24 23 22 25 26 28 28 28 28 27
43 42 42 42 43 43 43 46 46 43 41 40 38 36 34 33 33 30 29 29 29 26 28 29 29 29 29 29 27 28 25 26 21 26 25 21 22 23 24 24 20 19 20 18 20 21 23 26 26 26 26 25 26 27
42 42 42 42 41 42 42 43 44 45 41 39 35 34 33 32 27 25 22 24 25 27 28 28 26 27 28 28 26 28 25 22 24 22 20 20 21 22 24 23 19 16 15 16 17 21 24 25 26 26 26 26 26 27
40 41 41 41 41 41 42 41 42 42 39 34 33 26 27 24 25 25 24 23 26 29 27 28 26 26 27 26 25 24 24 24 21 19 17 20 20 22 24 22 21 20 19 18 18 17 19 21 23 26 27 27 27 27
40 40 41 41 41 41 41 43 44 41 37 32 31 24 24 26 27 28 27 27 27 29 28 28 26 26 26 26 27 25 23 21 20 18 19 21 23 24 24 24 22 23 23 22 21 20 19 19 20 22 25 27 27 27
39 39 39 40 40 40 41 42 41 40 35 32 30 28 29 28 27 29 26 28 27 28 28 27 25 23 23 24 24 23 20 19 19 20 22 25 25 25 25 26 25 24 25 25 24 22 21 21 21 20 22 24 25 26
38 35 35 38 39 40 41 38 35 32 31 28 27 29 27 27 26 29 29 27 28 27 23 25 24 22 24 23 22 23 21 20 21 23 23 25 25 26 27 27 27 27 27 27 26 25 24 23 22 22 21 20 23 25
35 33 34 38 38 39 38 36 32 29 26 27 25 26 29 29 27 28 29 28 28 26 24 23 25 23 21 20 18 19 21 22 24 24 25 26 26 27 28 28 28 28 28 27 26 26 24 24 24 24 24 24 24 24
34 34 37 38 36 32 30 31 31 25 25 25 26 28 28 29 29 29 29 29 29 28 27 29 25 24 22 21 21 23 25 26 26 26 24 23 27 28 28 28 28 28 27 27 26 27 27 27 26 26 26 24 23 24
38 37 37 36 36 32 28 28 33 27 22 22 25 26 28 26 27 28 29 29 28 28 27 25 21 21 22 22 25 26 27 26 24 23 21 21 24 25 26 27 28 28 28 28 28 29 29 28 28 27 26 26 26 26
37 37 38 37 34 33 31 29 27 28 24 25 25 25 24 24 23 23 23 26 27 26 24 25 24 25 25 25 25 25 25 25 24 24 24 25 26 27 28 28 29 29 29 29 29 29 30 29 30 30 29 28 28 28
34 37 35 36 31 31 29 30 27 28 27 25 25 25 25 23 22 23 23 24 24 23 23 23 25 25 25 25 26 26 26 26 27 27 28 28 28 28 28 28 28 28 28 29 30 30 30 31 31 31 31 30 30 29
35 35 32 31 27 26 23 30 25 26 22 22 23 21 21 21 19 21 18 19 19 20 22 24 25 26 27 27 27 27 27 27 27 27 27 27 28 28 28 29 28 28 29 30 31 31 31 31 32 32 32 31 31 30
36 31 28 26 26 22 26 23 26 23 20 19 17 16 16 15 17 17 15 15 17 19 20 21 23 23 24 25 26 27 28 28 27 27 28 28 28 28 28 28 28 30 31 31 31 31 31 31 31 32 31 30 29 29
27 25 26 22 25 22 20 20 21 19 18 18 16 17 15 15 14 13 13 14 16 17 18 19 21 22 23 22 21 22 23 24 25 26 27 28 27 27 29 31 31 31 31 30 30 30 29 30 31 31 31 30 29 28
21 24 22 19 18 20 19 17 17 17 17 16 15 15 13 15 14 15 14 15 16 16 17 17 18 19 21 23 23 23 24 24 26 26 28 31 30 30 30 29 29 29 30 29 29 28 28 28 29 29 29 29 29 30
18 18 21 21 19 20 17 18 15 14 14 15 14 13 14 14 14 13 15 16 17 17 18 20 21 21 21 21 23 25 25 26 26 26 27 27 30 31 30 29 28 29 29 28 28 28 27 27 28 28 29 29 28 28
21 18 16 18 20 19 15 15 15 14 14 14 14 11 10 10 10 11 12 13 15 17 19 21 22 22 23 24 25 25 26 27 28 28 29 30 30 31 30 29 30 30 31 31 30 29 28 29 29 29 29 28 29 28
21 21 18 16 17 16 17 13 11 12 11 11 9 8 9 9 11 13 14 16 17 18 18 18 19 22 23 25 25 26 26 25 24 23 23 22 21 22 24 27 28 29 28 27 27 29 29 29 29 30 29 28 28 27
19 20 16 14 14 14 14 15 13 14 15 16 16 15 15 15 17 18 18 19 19 19 19 19 20 20 20 20 20 20 22 23 24 24 23 22 21 22 22 24 24 24 23 23 23 24 26 28 30 30 27 25 24 24
17 17 14 14 12 13 14 15 15 15 15 16 17 16 16 17 18 19 19 19 20 20 20 20 21 22 22 21 22 22 22 22 23 24 25 25 25 25 26 27 27 27 25 24 24 24 24 25 27 26 25 24 23 24
16 14 13 12 13 15 16 15 15 16 16 17 17 18 18 18 18 19 19 20 21 20 21 21 21 21 22 23 23 23 23 23 23 23 22 24 26 26 27 27 27 26 25 24 24 24 24 25 25 25 25 24 23 23
16 14 15 15 15 15 16 16 15 14 14 15 16 17 17 17 16 16 18 20 20 20 21 22 22 23 22 22 23 23 24 24 24 25 26 27 27 27 27 27 26 26 25 24 24 23 23 24 24 24 23 23 23 23

GFSWCAN_sfc_30mbdewp_117.txt.gz
Dewpoint
53 52 52 51 49 49 48 51 52 51 48 47 46 46 45 46 46 40 39 38 33 29 28 35 31 30 31 28 18 22 23 27 27 21 20 18 17 17 16 15 21 20 22 23 25 23 8 24 22 10 8 13 19 19
53 52 52 51 49 48 49 50 51 52 51 48 47 46 45 44 45 41 36 40 39 34 30 37 37 36 33 30 27 29 21 27 27 22 24 22 19 20 17 5 21 13 18 16 22 14 21 23 21 20 22 21 22 21
53 53 52 51 49 48 49 49 51 51 51 51 48 46 45 44 45 41 40 40 38 34 31 31 33 33 33 33 35 29 29 31 31 30 26 25 19 21 15 15 15 17 20 18 16 12 18 20 23 23 23 20 20 22
53 53 52 51 49 48 49 49 50 50 50 51 51 49 46 44 45 42 40 41 38 36 29 27 34 32 33 33 33 34 33 35 35 33 29 26 22 24 19 19 17 16 17 16 17 16 16 15 17 18 20 21 21 21
52 53 52 51 48 48 48 49 50 49 49 50 50 50 47 44 44 42 40 38 39 33 29 29 34 32 33 33 33 34 34 33 32 30 30 28 29 29 28 27 25 23 20 17 15 19 20 22 21 25 25 24 24 22
53 52 51 49 48 48 48 48 49 49 48 49 50 51 48 44 43 41 37 37 37 38 29 26 32 31 33 33 33 33 33 33 32 30 29 30 32 29 26 25 26 26 26 26 24 27 28 28 28 26 26 27 26 24
52 51 50 48 48 47 47 47 46 46 46 46 49 50 48 44 40 36 35 37 37 38 33 28 27 32 32 32 32 32 33 33 32 31 31 31 31 32 29 26 26 26 28 30 30 29 25 27 26 28 29 29 27 26
51 49 48 47 46 46 45 45 45 44 45 46 47 49 46 45 43 38 38 40 39 36 33 28 27 30 31 30 29 32 31 31 31 31 31 31 30 30 28 29 30 30 29 27 28 29 29 28 28 29 29 28 28 27
47 46 45 45 45 45 44 44 43 43 44 45 47 46 42 39 37 37 39 38 36 35 30 30 26 25 31 30 30 30 30 26 30 29 29 29 28 26 27 28 28 28 28 27 27 26 25 25 23 24 27 28 28 28
46 45 45 45 45 45 45 45 45 46 46 46 42 40 36 37 40 38 34 32 32 32 31 29 31 28 28 29 28 29 29 27 25 28 30 28 26 28 29 29 29 28 26 24 21 16 19 19 21 23 26 27 28 28
42 43 44 44 43 43 44 47 47 47 44 40 37 36 36 38 34 32 31 29 30 28 31 30 29 28 30 26 25 29 27 27 23 25 27 25 24 25 27 26 25 21 20 20 22 22 22 22 22 25 25 26 26 25
39 39 39 40 42 43 44 46 45 42 40 39 37 36 34 33 32 30 28 30 29 26 28 29 29 29 29 29 27 28 25 25 21 26 26 22 23 25 24 23 21 19 16 17 17 18 19 21 23 25 25 25 25 26
41 42 42 42 42 42 45 46 45 42 41 38 34 33 31 30 26 24 21 25 25 27 28 28 27 27 27 28 26 27 24 22 23 22 21 20 22 22 23 23 22 22 21 21 22 23 22 22 22 22 21 24 26 26
41 41 41 41 41 42 41 43 44 42 38 34 30 26 24 24 24 24 25 23 26 27 27 27 26 26 27 25 25 23 25 24 21 19 18 20 21 22 24 24 24 24 25 24 24 24 24 24 23 22 23 23 23 24
40 41 41 41 41 40 40 42 43 40 36 30 30 23 24 25 26 28 28 28 27 28 28 27 26 26 26 25 26 25 23 20 21 20 20 21 22 23 24 24 25 25 26 26 26 26 25 25 24 23 23 24 24 24
40 40 39 40 40 40 43 42 40 38 34 31 31 26 27 26 26 27 28 28 28 28 27 26 24 22 22 24 24 23 21 19 20 21 22 23 23 24 24 26 26 26 27 27 27 27 27 26 25 25 24 24 24 24
38 34 38 40 40 42 40 37 33 32 30 27 25 29 27 26 27 28 30 29 28 27 24 26 23 21 23 23 21 23 21 20 22 22 24 24 24 25 26 25 25 26 27 28 28 28 27 27 26 24 25 26 27 26
35 35 38 41 40 38 37 34 30 27 25 26 25 25 28 28 27 27 28 28 28 26 25 23 23 21 18 18 18 20 22 22 23 24 25 25 26 26 25 24 26 27 28 28 28 28 27 26 26 26 27 27 27 26
35 35 38 39 35 32 30 31 31 24 24 25 25 26 26 27 28 29 29 29 29 28 26 27 23 21 20 21 20 22 23 24 24 23 23 24 25 24 23 23 25 26 27 27 27 28 28 28 28 28 28 28 27 27
36 37 38 38 35 30 26 27 32 25 21 21 24 25 25 26 27 28 28 28 28 28 26 24 22 21 21 21 22 23 23 23 23 23 23 23 23 23 24 25 26 27 28 28 28 29 29 29 29 29 29 28 28 29
37 37 37 35 33 32 28 26 26 26 24 24 25 24 24 24 25 24 24 26 27 25 22 23 22 21 22 23 23 23 23 23 23 23 22 22 24 25 26 27 28 28 28 28 28 28 28 28 29 30 30 30 30 30
35 38 35 35 31 30 28 28 26 27 25 23 23 23 22 21 21 22 21 22 22 21 22 21 21 22 23 23 24 24 25 25 25 25 26 26 25 26 26 27 27 27 28 28 28 28 28 29 30 31 31 31 31 31
36 34 32 31 26 26 22 29 24 24 21 20 22 20 20 20 20 20 19 19 20 21 22 22 22 22 22 22 23 24 25 25 25 26 26 26 26 27 27 27 28 28 28 28 29 29 29 30 31 31 31 31 31 30
35 31 27 25 24 21 24 23 25 22 21 18 17 15 16 15 17 17 15 16 18 19 19 19 20 20 21 23 24 24 24 24 24 25 27 27 27 26 27 29 31 30 29 29 29 30 30 31 31 30 30 29 30 29
26 25 26 22 25 21 19 20 20 19 16 17 15 16 16 14 14 12 12 13 16 17 18 18 18 19 18 18 19 20 21 22 22 22 23 25 26 27 27 29 29 29 29 30 30 30 30 30 29 29 29 29 29 29
21 24 22 20 19 19 18 16 16 16 15 14 14 14 12 13 14 15 14 14 15 16 17 17 17 17 18 20 20 20 20 21 23 24 25 25 26 25 25 26 27 27 28 30 30 30 29 29 27 27 27 26 27 28
19 20 23 21 19 20 18 17 15 14 13 14 14 13 13 14 13 12 13 15 16 17 18 19 20 19 19 19 19 20 22 23 23 23 23 24 26 27 27 27 27 27 26 28 29 28 28 28 28 27 26 26 27 28
21 18 15 18 19 18 16 14 14 12 12 13 12 9 9 8 7 9 11 13 15 17 18 19 20 20 19 20 20 20 21 21 23 25 26 27 28 28 29 29 29 29 29 30 29 29 29 29 29 27 26 26 27 28
22 20 17 16 16 16 16 14 12 13 12 12 10 10 10 10 11 12 13 14 16 17 16 16 17 19 20 21 21 22 22 22 21 21 21 21 20 20 23 25 26 27 27 27 28 29 30 29 28 27 27 27 29 29
19 20 17 14 15 14 14 15 13 14 15 15 14 14 14 15 16 17 17 17 18 18 18 19 19 20 20 20 20 20 21 23 23 22 20 20 20 21 21 22 22 23 24 24 24 24 25 25 25 26 26 27 27 27
19 19 17 15 13 15 16 17 17 16 16 15 16 15 14 15 16 17 18 18 19 20 20 20 21 21 21 21 21 21 21 22 23 23 23 24 24 24 24 25 25 25 25 24 24 24 23 23 23 23 23 24 25 26
16 15 14 12 12 14 15 14 13 13 14 14 15 16 16 17 16 17 18 19 21 21 21 22 22 22 22 23 23 23 23 23 23 23 22 24 25 25 25 25 26 26 26 25 24 24 23 22 22 22 22 23 23 23
15 13 12 13 12 12 12 13 13 13 13 14 15 16 17 17 15 16 17 19 19 19 20 21 22 22 22 23 23 24 24 24 24 25 25 26 25 25 25 25 25 25 25 24 24 24 23 22 22 22 22 22 22 23

GFSWCAN_sfc_30mbdewp_120.txt.gz
Dewpoint
52 52 52 52 50 49 49 49 51 52 50 48 46 46 45 45 45 39 38 39 33 28 28 34 31 30 31 27 18 23 24 26 26 20 18 17 16 16 16 14 22 20 21 22 24 22 7 23 21 11 9 17 20 20
51 53 52 52 51 49 49 48 50 51 51 49 47 46 45 45 44 40 34 40 38 34 29 36 36 36 33 29 26 28 20 26 26 20 23 21 18 20 16 5 21 14 20 16 22 14 20 23 21 21 23 23 21 22
52 53 53 52 51 49 48 49 50 51 51 51 49 47 45 45 45 40 39 40 37 33 30 30 33 33 33 33 35 28 30 31 30 30 25 24 18 20 14 15 14 17 21 19 16 14 18 18 21 23 21 20 23 24
50 53 53 52 52 50 48 49 49 50 50 51 51 49 46 45 44 42 39 40 38 35 28 28 34 32 33 33 33 34 33 35 34 33 28 25 20 23 18 18 16 16 19 16 17 16 20 17 22 24 24 26 27 26
50 52 53 52 52 50 48 48 49 50 48 48 48 50 47 45 43 39 37 37 38 34 29 30 33 32 33 33 33 34 34 33 32 29 28 27 28 27 28 27 25 22 19 17 16 20 24 26 27 27 27 27 28 28
50 51 52 52 51 49 48 48 49 49 49 48 47 49 49 45 42 40 35 35 37 37 30 28 32 31 33 33 33 33 34 33 32 30 29 30 31 29 25 24 26 26 26 25 25 27 28 28 28 27 26 27 29 30
50 51 52 52 51 49 48 48 48 48 47 46 45 48 48 45 40 38 35 37 38 38 32 29 28 31 32 32 32 32 33 32 32 31 30 31 31 33 29 26 26 27 29 30 29 28 22 26 25 27 26 27 29 29
51 52 52 51 49 48 47 47 46 46 45 46 46 49 46 45 42 38 38 40 39 35 33 28 26 29 31 29 29 31 31 31 31 30 31 31 30 30 28 29 30 30 28 27 28 28 26 27 26 23 24 26 27 26
51 51 51 49 48 47 46 46 45 44 45 45 48 46 42 39 37 37 39 37 36 34 29 29 26 23 31 30 30 30 30 26 30 29 29 29 28 25 27 28 28 28 27 25 24 21 21 22 21 21 22 25 25 25
51 50 49 47 46 46 45 45 44 44 45 47 43 40 35 37 40 38 33 31 32 32 31 29 31 28 28 28 28 28 28 27 24 27 29 28 26 28 29 29 29 27 23 23 18 20 19 20 20 20 21 24 25 25
49 47 46 46 46 46 45 45 46 46 45 41 38 36 36 38 34 32 30 29 29 28 30 30 30 28 29 26 25 29 26 27 23 24 26 24 24 26 27 24 23 21 18 18 20 20 21 21 21 22 22 23 24 24
46 45 45 45 44 45 46 48 46 42 41 39 37 35 34 33 32 28 26 29 28 25 28 28 29 29 29 29 28 28 25 25 21 25 24 22 23 25 24 22 22 21 20 20 20 20 22 23 24 24 23 23 23 24
41 41 41 41 43 43 45 46 44 41 39 37 33 33 30 30 25 22 17 24 25 27 27 28 27 28 27 28 26 27 24 22 23 23 20 21 23 23 22 23 23 23 23 23 24 25 25 25 26 25 24 24 24 24
41 41 40 39 40 44 43 45 43 41 37 33 29 25 23 22 23 23 23 23 26 26 27 26 26 26 26 25 25 23 24 24 21 19 19 21 21 22 23 24 24 24 24 24 24 24 25 25 26 26 26 25 25 25
39 39 39 40 41 42 43 44 42 39 34 30 30 22 25 24 25 27 28 28 27 28 28 26 25 26 26 25 25 24 22 20 21 20 21 21 22 22 22 24 23 25 25 24 24 25 26 27 27 27 26 26 26 25
38 38 38 38 40 40 43 42 39 37 34 30 29 24 25 24 25 26 27 27 28 28 27 26 23 22 22 24 23 22 20 19 19 22 22 22 23 23 24 24 25 26 25 25 26 26 27 27 27 27 28 27 26 26
37 34 38 40 41 42 39 36 32 31 29 27 25 28 27 27 27 27 28 28 29 30 27 26 24 21 22 22 21 23 21 20 22 22 23 24 24 24 24 23 22 24 24 24 25 27 27 28 28 26 26 26 27 27
33 37 40 40 39 36 35 33 29 27 24 26 24 24 27 27 26 27 27 28 28 28 26 26 22 20 18 18 18 21 23 23 23 23 24 24 21 19 21 23 24 25 24 24 26 26 27 26 26 26 27 28 28 28
34 39 40 40 35 31 29 30 29 20 22 24 25 25 26 26 28 28 28 29 28 28 26 25 22 20 19 19 18 19 21 22 22 22 21 21 22 22 23 24 24 24 24 25 26 26 27 28 28 28 28 29 28 28
37 39 39 37 33 27 25 27 31 25 21 21 24 24 25 24 25 26 26 27 28 27 25 24 21 20 20 21 22 22 22 22 22 21 20 19 20 21 22 23 24 25 26 26 27 28 28 28 29 29 29 28 28 29
36 37 37 34 33 29 25 25 25 25 24 23 24 24 22 24 24 24 23 26 26 25 21 22 22 22 22 22 22 21 21 21 21 21 20 20 22 23 24 25 26 27 27 27 27 27 27 27 28 28 28 29 29 30
35 37 35 35 29 28 26 27 24 25 25 21 22 23 20 20 21 22 21 23 22 21 21 20 20 21 21 21 21 22 22 23 23 24 24 24 24 24 24 25 26 26 27 27 27 27 28 29 29 29 29 30 30 31
35 34 32 30 25 24 22 28 23 23 19 19 21 20 20 20 20 20 17 18 19 20 21 21 22 22 22 22 22 23 23 23 22 22 22 23 23 24 25 26 27 27 27 27 28 29 29 29 29 29 30 31 31 30
35 31 27 25 21 20 23 21 25 21 20 17 15 13 14 15 16 16 15 12 14 17 18 19 21 21 21 21 21 21 21 22 23 23 24 24 24 24 24 26 26 27 27 28 29 29 28 28 29 29 30 30 29 28
25 25 25 21 21 20 18 18 19 19 16 16 14 14 14 13 14 13 11 11 13 15 16 18 18 19 19 18 18 19 20 20 20 19 20 21 23 24 24 24 25 26 27 27 28 28 28 29 29 29 29 28 27 27
20 24 22 21 19 17 17 15 16 16 14 13 13 13 11 12 12 12 11 10 12 14 16 16 16 16 17 18 19 18 18 19 20 20 20 21 22 22 23 22 22 22 23 26 27 27 27 27 27 27 28 27 27 28
20 21 24 21 20 19 17 15 15 14 13 13 13 11 12 12 12 10 11 13 13 15 17 18 19 18 18 17 17 18 19 20 21 19 18 18 20 23 24 23 22 22 23 24 26 26 26 26 26 27 27 27 28 27
23 21 19 20 19 18 15 15 14 12 12 13 12 9 8 9 7 9 11 12 13 16 17 18 19 19 18 18 18 18 19 19 20 20 21 23 24 24 24 25 26 26 27 27 27 27 27 27 27 27 27 27 27 26
21 18 17 17 16 18 17 15 13 13 14 12 9 9 8 10 11 13 14 16 17 18 17 17 17 18 19 20 20 20 21 21 19 19 18 18 19 20 22 25 26 27 27 27 27 28 27 27 27 28 28 27 27 27
20 19 16 15 15 13 13 16 14 13 14 15 15 14 14 15 16 17 18 18 18 18 18 18 19 19 19 19 20 20 21 22 22 21 20 20 20 21 22 22 22 23 24 24 24 24 25 25 24 24 24 23 23 23
19 19 17 15 13 13 15 17 16 17 16 15 16 15 15 16 17 17 18 18 18 19 19 19 20 21 21 21 21 21 21 22 23 23 24 23 23 23 23 23 24 24 24 23 23 23 23 22 22 22 22 22 22 23
18 17 15 14 13 13 14 14 13 13 13 13 14 15 15 15 14 15 16 17 19 19 20 21 21 21 22 22 23 24 24 24 24 24 24 24 25 25 25 25 25 25 24 24 24 24 23 23 23 22 22 22 21 21
13 12 10 12 12 11 10 12 10 11 10 11 12 13 14 15 14 15 18 19 17 18 19 20 22 23 23 23 24 24 24 24 25 25 26 26 26 26 25 25 25 24 24 24 24 23 23 22 22 22 22 22 22 21

GFSWCAN_sfc_30mbdewp_123.txt.gz
Dewpoint
47 49 51 52 52 51 50 49 49 51 51 49 47 46 46 46 44 38 38 39 33 26 26 33 31 28 29 25 16 23 26 26 26 19 16 16 15 16 15 16 23 21 21 22 23 22 6 22 21 12 10 19 20 21
47 49 51 52 52 51 49 49 49 50 51 50 48 46 46 46 44 39 33 40 38 32 28 35 36 36 33 30 24 28 19 24 25 19 21 20 18 19 15 5 21 14 20 17 21 15 20 23 21 22 23 23 22 22
48 49 51 52 52 51 49 49 49 50 51 49 49 48 45 45 44 40 39 39 36 32 29 31 33 33 33 33 34 28 30 30 28 29 24 23 17 20 13 14 13 17 22 19 17 18 20 19 21 23 24 23 23 26
48 48 50 52 52 52 50 49 49 50 50 50 50 49 46 45 43 41 37 38 37 34 28 28 34 32 33 33 33 34 32 35 33 32 27 24 19 22 17 18 16 16 20 17 18 16 22 19 24 27 27 27 25 27
48 48 50 51 52 52 50 49 48 50 50 49 48 50 48 45 41 36 36 37 38 33 28 29 33 32 34 33 33 34 34 33 32 29 28 25 28 25 27 26 24 21 18 15 16 20 25 25 27 28 26 24 24 26
48 48 50 51 52 52 50 48 49 49 47 48 46 47 48 45 42 38 34 35 37 36 31 28 31 31 33 33 33 33 33 33 32 29 28 30 31 28 24 23 25 26 25 26 25 27 27 27 28 28 26 24 25 27
48 48 49 50 52 52 50 48 49 49 48 47 46 47 48 44 40 38 36 37 39 37 32 29 28 31 32 32 32 32 32 32 31 30 30 30 31 32 28 25 27 28 29 29 29 26 18 22 20 25 24 23 25 27
48 49 49 50 52 51 49 48 49 48 47 46 46 48 46 44 41 38 38 39 38 34 32 28 27 28 31 29 28 31 31 31 31 30 30 30 30 30 27 29 30 29 26 27 26 26 24 24 24 22 22 22 23 23
49 49 49 50 51 50 48 48 47 46 46 46 48 46 42 39 37 37 39 37 36 33 28 29 26 23 30 30 29 30 29 26 29 28 28 29 27 26 28 28 28 27 23 23 24 21 20 21 22 22 22 22 23 23
49 49 50 50 51 50 48 47 46 45 46 46 42 40 34 37 40 37 33 31 32 32 31 29 31 28 28 28 28 28 28 26 24 27 29 27 26 28 29 29 29 27 23 21 20 21 20 21 22 23 23 23 23 24
49 49 50 50 50 48 47 46 45 46 45 41 38 36 36 37 33 32 30 29 29 27 31 30 30 28 29 26 26 28 26 26 23 23 26 24 24 26 27 23 23 20 19 19 19 20 21 22 22 23 24 24 24 24
50 50 50 49 48 47 46 46 47 44 42 40 37 35 34 33 31 27 25 28 27 24 28 28 28 29 28 29 28 28 25 25 21 26 24 21 23 25 24 22 22 22 22 22 21 22 22 23 24 24 25 25 25 25
50 49 48 47 47 46 46 46 45 41 39 37 34 33 29 29 24 22 14 22 24 27 27 28 27 28 28 27 26 26 24 22 24 23 21 22 23 24 23 23 23 24 24 23 23 23 23 23 24 25 25 26 26 26
46 46 45 45 45 45 46 46 42 41 38 32 29 24 21 22 22 23 21 22 25 26 27 27 26 26 26 26 25 23 24 23 20 19 19 21 22 22 22 24 24 23 24 25 24 24 24 24 25 26 26 26 26 26
41 41 41 41 42 45 45 44 42 40 34 31 29 21 24 23 25 25 27 28 28 28 27 26 25 26 26 24 25 23 21 20 20 19 20 21 22 22 22 23 23 23 23 23 24 24 24 24 25 26 26 26 27 27
40 39 39 40 43 43 44 42 40 37 32 30 28 24 25 24 25 27 27 26 28 28 27 26 24 23 23 24 23 21 20 18 19 22 22 22 22 23 23 23 23 23 23 23 24 24 25 25 26 26 27 27 27 26
35 36 37 37 40 42 39 36 33 30 29 27 25 28 27 27 26 26 27 28 30 31 28 27 24 22 22 21 21 22 20 20 21 22 22 22 22 23 23 23 23 23 23 24 24 24 24 25 26 25 25 25 26 27
34 37 37 39 38 35 34 31 29 27 25 26 24 26 29 27 26 27 28 28 29 29 27 26 22 20 19 18 18 21 22 23 22 22 22 23 24 24 21 21 21 22 23 23 23 23 24 24 25 25 26 27 27 28
37 38 38 37 33 30 28 29 27 18 22 25 26 25 26 27 28 28 27 28 28 27 26 25 22 20 20 20 19 19 19 20 20 20 20 21 21 21 21 21 22 22 22 23 23 24 25 26 26 27 28 28 28 28
38 39 37 35 31 26 26 27 29 24 21 23 25 25 25 24 24 25 26 27 27 26 24 23 20 19 19 19 21 20 20 20 20 20 20 19 19 19 20 20 21 22 23 24 25 26 27 27 28 28 27 28 28 28
37 37 36 33 32 27 25 25 25 24 24 22 24 24 22 24 24 23 23 27 25 23 21 23 21 20 20 20 19 20 20 21 20 20 20 19 20 21 22 23 24 25 25 25 25 25 26 26 27 27 27 28 28 29
36 36 33 32 28 28 25 25 23 25 23 21 22 22 20 19 21 22 22 23 22 20 22 17 18 20 19 19 19 20 21 22 22 22 23 23 22 22 22 23 24 24 25 25 25 25 26 27 27 27 28 29 29 29
34 33 31 28 24 22 20 27 21 23 20 19 21 19 19 20 19 19 18 19 20 21 20 20 20 21 21 21 22 22 23 22 22 21 21 21 21 21 22 23 24 24 25 25 26 26 27 27 28 28 28 28 28 29
35 28 24 23 21 20 24 22 24 21 20 17 16 15 14 15 16 16 14 13 13 15 16 16 19 19 19 20 20 21 21 21 21 21 21 21 21 22 22 22 23 24 25 26 26 26 26 26 28 27 27 27 28 28
26 25 25 21 18 18 17 18 19 18 15 15 14 12 13 12 13 12 10 7 9 12 15 17 18 18 18 17 17 18 19 19 19 18 19 20 20 21 21 21 21 22 24 25 25 25 25 26 27 26 26 27 27 27
20 24 21 18 17 16 15 14 15 15 14 13 14 11 11 13 12 11 10 7 9 11 13 14 14 15 16 17 17 17 16 17 19 19 19 19 19 19 19 19 19 19 21 24 24 24 25 25 25 25 24 25 26 27
20 20 24 21 19 17 16 14 15 14 13 11 12 12 12 11 10 9 10 12 11 12 14 16 17 17 16 16 16 16 17 18 18 18 18 18 19 20 20 20 19 19 20 20 22 23 23 23 23 24 24 25 26 26
24 23 19 20 18 16 15 14 13 12 12 13 11 10 8 9 6 8 9 10 12 14 15 17 19 19 18 18 18 18 19 19 20 20 21 21 22 22 22 22 22 22 23 23 23 24 24 24 25 25 25 25 26 26
22 21 20 18 17 17 16 14 13 14 14 13 10 8 7 9 9 10 12 14 17 17 17 18 18 19 20 20 21 21 21 21 20 19 19 18 19 20 21 22 23 23 24 25 25 26 27 27 27 27 27 26 26 27
20 19 17 17 16 16 18 18 17 17 16 14 13 13 13 14 15 17 17 18 18 18 19 19 20 20 20 20 19 20 21 22 22 21 20 20 20 22 23 23 23 23 23 24 24 24 26 26 25 24 24 23 22 21
19 18 19 18 18 19 20 18 17 16 15 14 13 13 14 15 16 17 17 18 19 20 20 19 19 20 20 20 20 20 20 21 22 23 23 24 24 25 26 25 25 25 25 25 25 24 22 22 22 22 21 21 21 22
18 18 18 16 14 13 12 15 14 14 13 13 14 14 14 14 14 12 13 14 16 17 19 20 19 19 20 22 22 23 24 24 24 24 26 26 27 28 30 29 28 27 26 27 25 24 22 21 21 21 22 21 20 20
13 12 11 14 13 12 10 11 9 10 9 9 9 11 12 12 10 11 16 18 15 15 16 17 19 21 22 22 22 23 24 25 25 26 26 26 26 25 26 27 26 26 25 24 23 23 22 22 22 22 21 21 21 20

GFSWCAN_sfc_30mbdewp_126.txt.gz
Dewpoint
48 48 47 48 51 52 51 50 49 49 51 50 48 46 46 46 43 39 39 40 34 28 27 32 31 28 29 25 19 25 28 28 26 18 14 15 14 15 15 18 23 21 22 22 23 20 9 23 22 15 16 23 24 22
49 48 47 48 50 51 51 50 49 49 50 50 49 47 46 46 44 39 35 41 38 33 30 36 36 35 33 30 24 29 20 25 26 20 20 19 17 18 15 7 21 15 21 19 21 18 21 24 22 23 25 24 24 23
49 48 47 47 50 51 51 50 49 49 50 50 49 49 46 45 44 40 40 40 37 33 30 32 33 33 34 33 34 28 30 30 28 29 24 23 18 20 14 14 12 18 22 20 18 20 22 21 23 25 25 25 24 23
50 49 48 48 49 51 52 50 49 49 50 50 50 49 47 45 43 40 37 39 37 34 29 29 34 32 33 34 34 34 32 34 33 32 28 25 19 22 17 18 16 17 21 19 19 18 20 20 23 27 27 25 24 24
50 49 49 49 49 50 52 51 50 49 50 50 50 50 48 45 39 38 38 37 38 34 29 30 33 33 34 34 33 35 35 34 33 31 29 26 28 24 27 26 23 20 17 15 14 20 25 25 25 27 24 22 23 24
50 49 49 49 49 50 51 51 49 49 50 49 47 48 48 45 42 39 35 36 38 36 33 27 31 32 33 34 34 34 34 33 33 31 29 30 31 29 25 23 25 26 23 22 25 25 26 26 26 26 23 23 23 25
50 49 49 49 49 50 51 51 49 49 48 48 46 47 48 44 41 39 36 37 39 37 32 28 29 31 32 32 32 33 33 33 32 31 30 30 31 32 28 25 27 27 27 29 29 26 20 22 21 24 23 23 24 25
50 49 49 48 49 50 51 50 49 49 49 48 46 48 46 43 41 39 38 39 38 34 32 27 28 28 31 29 29 31 31 32 31 31 31 31 30 31 27 29 28 30 27 27 25 24 23 23 23 23 24 23 23 22
50 49 49 48 49 50 51 50 49 49 48 47 48 46 42 40 38 37 39 37 36 34 30 30 27 26 31 30 30 30 30 28 30 29 29 30 28 27 29 29 29 27 23 23 23 22 21 21 23 23 23 23 23 22
50 49 49 49 49 49 51 50 49 48 47 48 44 40 36 37 39 38 34 32 33 33 32 29 31 28 29 29 28 28 29 27 26 27 29 27 27 29 29 29 28 27 24 21 18 18 20 21 22 22 23 24 24 24
49 49 49 49 49 49 50 49 48 47 46 42 38 36 36 38 34 32 31 29 29 28 31 31 30 29 30 27 27 29 27 27 24 25 26 24 24 27 27 28 28 21 20 20 21 21 21 22 21 22 22 24 25 25
49 49 49 49 49 50 49 48 47 44 43 41 37 36 35 33 31 28 26 27 26 24 29 28 29 30 29 29 28 28 26 25 22 27 25 22 25 26 22 21 21 22 22 22 22 22 22 22 23 24 24 25 25 26
49 49 49 49 49 49 49 47 46 43 41 39 36 33 32 30 25 21 15 22 24 28 28 28 28 29 28 28 27 27 25 23 25 23 21 23 24 25 23 23 23 24 24 24 24 24 24 24 25 25 25 26 26 25
49 49 49 49 49 49 47 47 44 43 38 32 31 25 27 24 25 23 19 22 26 27 28 28 27 27 27 26 25 24 24 23 20 19 20 23 24 23 23 24 23 21 23 24 24 24 24 24 24 25 25 26 26 25
49 49 49 49 48 47 47 44 43 40 35 31 30 24 25 25 25 25 27 28 28 28 28 27 26 26 26 25 25 24 21 20 20 20 22 24 23 22 22 22 23 23 22 22 23 23 24 24 25 25 26 26 26 26
47 46 44 47 47 46 44 41 39 37 32 31 29 25 26 25 26 28 28 28 28 28 28 27 25 25 25 25 23 21 21 18 20 24 24 23 22 22 22 23 23 23 22 22 23 23 24 24 24 24 25 26 26 26
38 38 44 45 43 42 39 35 34 31 30 28 26 29 28 27 26 26 27 28 29 30 28 27 24 23 23 22 21 22 21 21 23 24 24 23 21 20 22 23 23 23 23 23 23 24 24 24 25 25 24 24 25 26
36 41 41 39 38 36 33 32 30 29 25 27 25 28 29 28 28 28 28 30 31 30 29 26 23 21 20 17 18 21 24 25 24 22 22 22 22 22 23 22 21 21 22 23 24 24 24 24 24 24 25 26 26 27
37 38 39 37 35 32 30 30 28 22 23 26 27 27 28 27 28 28 28 29 28 27 26 25 23 22 21 21 20 21 21 20 17 16 18 20 21 21 21 22 22 22 22 22 23 22 22 23 24 25 26 26 27 27
39 39 36 33 32 29 27 27 29 24 21 24 25 25 25 25 25 27 28 28 28 27 23 20 18 20 20 18 22 21 21 21 20 18 17 17 18 20 21 21 21 21 22 22 23 24 25 25 25 26 27 27 27 27
37 36 34 32 30 27 26 26 24 24 23 22 24 24 23 24 24 24 24 27 24 22 18 23 22 20 21 20 19 21 20 20 19 19 18 18 19 20 21 22 23 23 23 24 23 23 24 24 24 24 25 26 26 27
36 35 31 30 27 25 25 25 24 25 21 22 22 23 20 19 21 22 23 22 21 20 22 20 18 18 18 18 18 20 19 20 21 22 22 22 21 21 21 22 23 23 24 24 24 24 23 23 24 25 25 26 27 27
33 31 28 26 21 19 22 26 22 23 19 19 21 19 19 19 19 20 19 20 20 22 22 21 18 19 18 20 21 21 22 22 21 20 20 20 20 21 22 22 22 23 23 23 24 24 24 25 25 25 26 27 26 26
32 25 21 21 18 18 24 22 22 20 19 18 17 15 16 16 17 16 15 15 17 18 19 18 20 18 18 18 18 18 18 19 20 21 21 20 20 20 19 19 19 20 22 22 22 23 23 23 24 25 25 25 25 25
20 21 22 19 18 18 17 19 18 17 15 16 14 12 12 12 14 13 13 12 10 10 12 15 16 16 15 15 15 16 17 18 18 17 17 17 18 18 19 19 19 19 20 21 22 22 23 23 24 24 24 25 25 25
20 23 21 18 17 15 15 14 15 15 15 14 14 10 10 12 12 10 12 10 8 10 12 13 13 13 15 17 15 15 14 16 18 18 18 18 18 19 19 19 19 19 20 20 21 22 22 22 23 23 23 24 24 25
20 21 22 20 18 15 14 14 14 13 13 11 11 10 12 10 10 10 12 13 10 11 13 14 15 14 13 12 14 16 17 18 19 17 18 18 19 20 20 20 19 19 20 21 21 21 21 21 22 22 23 23 24 24
24 23 18 18 17 15 14 14 13 12 12 12 11 10 9 9 6 11 10 11 13 13 14 16 17 18 17 17 17 18 19 20 21 22 22 22 22 22 22 22 22 23 23 24 23 24 23 23 23 23 23 23 24 25
22 21 19 17 17 17 15 13 13 13 14 13 11 10 10 12 12 11 12 11 13 13 14 15 16 18 19 21 21 21 22 21 20 19 19 18 19 20 22 23 24 24 24 24 24 25 25 26 27 26 26 26 26 27
20 21 19 18 18 17 18 17 16 16 16 16 16 14 13 13 13 15 15 17 17 17 17 18 19 20 20 20 20 20 22 23 22 21 20 19 20 22 23 24 24 25 25 26 27 27 26 26 27 28 27 26 24 23
19 18 17 17 17 18 19 19 19 18 15 14 13 14 15 16 16 17 18 18 18 19 20 19 20 21 21 21 20 20 19 21 22 22 23 23 23 24 25 26 27 29 30 29 28 26 26 26 26 25 24 22 22 22
17 18 17 17 17 15 12 14 14 16 15 15 17 14 13 14 14 14 13 13 14 15 17 19 19 18 19 21 21 21 22 21 22 23 23 24 24 26 27 28 28 28 28 28 29 28 26 25 24 23 22 21 21 21
13 13 11 14 14 13 10 12 9 10 8 10 10 11 12 12 10 10 14 16 12 12 13 15 18 19 19 20 20 21 23 24 24 25 26 28 27 26 26 27 25 25 25 26 27 27 26 24 23 22 22 21 21 20

GFSWCAN_sfc_30mbdewp_129.txt.gz
Dewpoint
50 49 48 47 47 48 50 51 51 49 48 50 49 47 46 46 43 41 40 41 38 32 29 31 30 27 28 25 18 29 28 29 27 21 13 12 11 12 13 15 21 21 21 20 20 19 12 22 20 15 19 23 24 22
51 50 49 48 47 48 50 51 51 49 48 49 50 48 46 46 45 39 38 41 39 35 33 36 36 35 34 32 26 30 26 25 25 21 19 18 15 16 13 9 20 16 19 17 19 18 21 23 21 23 25 22 23 22
52 51 50 49 48 48 49 51 51 49 48 48 49 49 48 46 44 42 41 40 38 34 33 33 33 33 34 34 35 29 29 30 29 30 25 22 19 19 13 12 12 17 23 18 18 20 23 23 23 25 24 24 24 24
48 51 51 50 49 49 50 51 51 49 49 49 49 49 49 46 43 41 39 40 39 35 31 32 34 33 34 34 34 35 33 34 33 32 28 25 20 22 16 18 16 18 20 18 18 19 19 21 25 24 23 23 22 23
45 49 51 50 49 48 50 51 51 50 49 49 49 49 49 45 39 40 39 39 39 37 33 31 33 33 34 34 33 35 35 34 32 31 30 27 28 23 24 25 20 19 17 16 14 19 23 22 23 24 22 21 23 23
43 46 51 50 50 49 49 51 51 50 49 49 49 49 49 44 41 41 37 37 40 38 36 31 32 32 33 34 33 34 35 34 33 31 29 29 32 29 25 22 24 24 20 20 21 25 25 23 23 23 23 23 23 24
42 44 47 51 50 49 49 51 51 50 49 49 48 47 48 46 43 40 37 39 40 39 35 31 32 32 33 33 33 33 34 34 33 31 31 30 30 31 29 24 25 26 24 26 28 23 20 21 21 24 24 24 23 23
41 42 45 50 50 49 49 50 51 50 49 48 47 48 47 44 42 40 39 39 39 36 34 29 30 30 32 30 30 32 32 33 33 31 32 30 31 31 28 28 28 28 28 27 23 23 22 23 23 23 24 23 23 21
40 41 43 47 50 49 49 50 50 49 49 48 48 45 43 41 39 39 38 38 38 36 33 32 30 29 31 31 31 31 32 29 31 29 29 30 29 27 28 28 28 29 24 23 22 22 21 21 22 22 21 20 20 20
39 41 42 44 50 49 49 50 50 49 49 47 44 40 37 38 39 39 35 33 34 35 33 31 32 29 31 30 29 29 29 28 27 28 30 28 27 29 29 30 30 27 24 23 23 20 22 21 19 18 18 20 21 22
39 41 42 43 49 49 49 50 50 49 47 43 39 37 37 39 35 33 32 31 31 30 32 31 31 29 30 29 28 29 30 29 26 28 26 24 24 26 28 29 29 22 21 21 22 22 21 20 20 20 20 21 22 24
39 40 41 43 49 49 49 50 49 45 43 41 38 38 36 34 32 30 28 29 27 26 30 28 29 30 30 30 29 28 28 26 23 28 25 23 26 26 27 26 20 20 21 22 22 22 22 21 21 22 23 23 24 25
40 40 41 43 49 49 49 49 47 43 41 40 36 33 32 30 27 26 23 22 25 28 29 29 28 30 29 29 29 28 25 24 25 23 22 24 26 22 22 23 24 25 25 24 22 24 24 24 25 25 25 25 25 24
39 40 42 46 49 49 49 48 44 42 38 33 31 26 29 26 27 27 23 26 29 31 30 31 28 29 28 27 27 25 25 24 21 20 21 25 25 22 23 24 21 18 20 21 22 23 23 24 24 25 25 26 25 24
43 42 44 48 49 49 49 45 43 39 34 31 31 27 27 29 28 29 30 29 29 31 29 29 28 28 27 26 25 25 21 20 20 21 25 28 25 23 22 22 22 21 19 19 20 22 23 24 24 25 25 26 25 25
45 46 47 48 49 48 45 44 40 35 32 31 30 28 28 27 26 28 30 29 30 30 30 29 27 27 26 26 24 22 21 20 22 27 27 24 22 22 22 22 22 21 21 21 21 21 22 22 23 23 24 25 25 25
47 41 48 48 48 45 42 36 33 31 30 28 27 29 28 28 27 29 30 29 30 30 29 29 25 25 25 24 23 23 22 24 27 28 26 24 23 22 22 22 21 22 22 22 22 22 23 23 24 26 25 24 24 24
42 46 47 44 41 38 32 32 31 30 26 28 26 28 30 29 28 27 29 30 31 31 30 29 25 23 22 20 20 24 26 28 27 26 25 24 21 20 21 20 21 22 22 23 25 25 26 26 25 25 25 25 25 26
38 41 41 40 37 33 30 29 30 23 25 27 28 30 30 29 29 30 31 31 31 30 28 27 25 23 22 22 22 26 27 25 19 18 17 19 20 20 21 22 23 24 24 24 24 23 23 23 23 23 24 24 24 25
37 36 36 36 35 31 27 26 31 26 24 25 28 28 27 27 28 30 29 29 29 29 24 22 21 23 22 23 25 24 23 24 20 17 14 14 14 16 20 23 23 22 22 22 23 23 23 23 23 24 24 25 25 25
34 34 35 33 31 30 28 27 24 25 25 24 26 27 24 26 27 27 26 28 26 23 18 22 20 19 22 20 18 21 20 21 17 15 13 14 16 17 19 20 22 23 22 22 22 21 22 22 22 23 23 22 22 24
34 34 31 31 28 28 26 27 25 25 23 24 24 24 23 23 23 24 26 24 23 21 21 21 19 19 20 19 17 20 19 19 20 20 20 20 20 20 20 21 22 22 23 22 21 21 21 21 21 21 22 22 23 24
32 30 28 27 22 23 23 27 22 23 19 20 22 19 19 19 21 23 21 23 23 24 23 23 21 20 17 19 20 20 20 20 20 19 19 18 18 19 21 21 21 22 22 22 23 23 23 23 23 23 23 23 23 24
30 24 21 20 20 19 24 22 22 20 20 19 18 15 17 19 19 18 15 18 20 21 21 20 21 19 19 20 20 18 18 19 20 20 20 19 19 18 17 17 17 17 19 19 20 20 21 21 21 21 22 22 23 23
17 20 20 18 20 18 18 18 18 17 15 17 14 13 14 16 15 15 13 15 17 13 15 19 19 19 16 14 14 15 16 18 17 17 16 16 16 16 17 18 18 18 20 21 21 21 21 22 22 22 22 23 23 23
17 22 19 18 18 15 16 15 16 15 15 14 14 11 13 14 11 8 13 15 12 12 15 16 14 15 16 17 14 13 13 15 19 18 17 17 17 18 19 19 19 19 21 21 21 21 21 21 21 22 22 22 22 23
18 20 22 19 18 16 14 15 15 14 13 12 13 11 12 10 10 12 15 16 13 13 14 16 17 16 13 12 14 15 16 18 19 17 16 18 19 20 21 20 20 20 21 22 22 22 22 22 23 23 23 24 23 23
24 22 17 19 17 16 14 15 14 13 13 14 12 11 9 9 7 13 14 17 16 17 18 20 21 20 19 19 18 17 18 19 21 22 23 23 23 23 23 24 24 24 24 25 25 24 25 25 27 27 26 26 25 25
22 20 19 17 17 16 15 13 13 15 15 14 12 12 11 14 16 14 14 17 20 17 15 14 15 21 22 22 22 23 23 22 21 20 19 19 19 20 24 25 25 25 26 26 26 26 26 26 28 28 28 28 27 27
21 23 19 17 17 16 18 17 17 18 17 17 17 16 15 15 16 20 18 19 19 18 19 20 22 22 21 21 21 21 23 24 24 22 20 19 19 21 23 24 25 26 27 27 27 28 29 28 28 28 28 27 27 26
22 21 19 19 18 20 21 21 20 18 18 17 17 15 15 17 18 19 20 21 22 22 22 21 21 22 22 21 21 21 20 22 23 24 24 23 23 23 24 25 26 27 27 27 27 26 26 27 27 26 26 26 25 25
19 19 18 17 17 16 15 18 18 19 19 18 18 18 17 16 16 16 16 16 17 18 19 20 20 18 20 22 22 23 22 22 22 23 22 23 23 24 25 26 27 28 27 26 25 24 24 25 26 26 25 25 24 23
14 14 13 16 16 15 12 14 12 12 11 12 12 13 15 14 11 12 16 16 14 14 14 16 18 20 20 21 21 22 23 23 24 25 25 26 26 27 28 30 29 27 25 24 24 24 23 23 24 25 25 24 23 22

GFSWCAN_sfc_30mbdewp_135.txt.gz
Dewpoint
52 52 51 51 50 47 45 46 47 50 50 49 48 49 48 47 46 41 41 41 37 35 33 32 33 28 27 25 22 30 28 29 27 22 18 14 10 11 13 21 19 14 16 15 18 15 4 21 19 11 17 23 23 22
47 51 52 52 51 50 47 46 46 48 51 49 49 49 47 47 45 43 41 41 39 35 36 36 35 34 34 33 29 32 27 28 27 23 21 19 15 16 12 10 21 16 20 19 19 16 23 22 22 24 24 22 22 21
44 46 47 52 51 51 50 48 47 47 50 50 48 49 48 47 45 42 41 40 40 35 35 33 34 34 34 34 34 28 29 30 28 31 26 24 16 20 14 14 15 19 22 20 18 20 22 23 25 23 23 22 23 23
43 44 45 46 49 52 51 49 49 48 49 50 49 48 48 47 44 41 40 40 39 37 28 33 34 33 34 35 34 35 33 33 32 32 28 26 20 22 18 18 16 16 20 18 20 21 23 24 24 23 23 23 23 24
40 40 43 44 46 47 51 51 50 49 49 50 49 49 49 47 42 41 40 39 39 35 32 33 33 33 34 34 34 34 34 34 33 29 28 24 28 25 23 24 20 20 17 15 13 20 19 21 24 23 21 22 23 24
38 39 40 43 45 45 47 51 50 50 49 50 49 49 50 46 41 42 38 39 40 39 33 27 33 33 34 34 34 34 35 34 34 31 31 31 32 27 24 23 24 23 20 20 21 24 23 25 23 23 23 23 24 24
38 38 40 40 42 44 45 47 51 50 50 50 49 49 49 45 43 39 37 38 41 40 33 27 32 32 33 33 33 33 34 34 33 32 31 31 30 29 27 24 26 23 25 25 23 23 23 22 21 23 23 23 24 22
38 38 38 39 40 42 44 45 47 51 50 50 50 50 48 45 42 40 40 41 40 36 34 25 28 28 32 31 29 33 32 33 32 32 32 30 31 30 25 28 29 25 28 25 22 22 22 24 24 23 23 23 22 21
38 38 38 37 38 39 41 44 46 50 50 50 50 48 44 42 40 40 39 39 39 36 29 29 21 24 31 31 31 31 32 27 31 29 30 31 29 27 27 28 29 27 27 25 23 23 23 22 22 22 20 17 14 14
39 37 38 37 37 38 39 41 43 46 50 49 45 42 38 40 40 38 35 33 33 33 32 29 31 27 31 30 29 29 30 28 25 27 30 28 27 29 30 30 30 29 26 23 21 21 21 19 16 15 15 17 18 18
38 37 36 37 37 37 38 39 41 43 48 44 40 36 38 40 36 35 31 30 30 29 31 30 31 27 31 28 28 30 27 28 23 25 27 25 25 27 28 27 27 26 24 23 22 22 19 16 15 14 15 18 19 19
35 39 35 36 36 37 37 38 40 43 44 42 38 38 37 35 33 31 29 29 28 25 30 29 31 30 30 31 29 28 26 26 23 28 24 21 23 27 28 22 22 23 22 20 19 19 20 20 21 21 20 18 19 20
38 39 35 35 35 37 37 38 40 43 42 40 35 32 32 31 27 26 25 26 25 28 30 29 28 28 28 30 29 28 25 23 26 23 21 22 25 24 23 23 23 23 22 21 20 20 19 18 19 19 17 19 21 21
37 37 36 35 34 36 39 38 41 44 41 34 31 27 29 25 27 26 25 25 26 29 29 29 28 27 28 27 27 24 26 24 21 19 19 22 23 22 24 24 19 17 16 15 15 15 16 17 18 20 21 22 22 21
36 37 38 38 38 36 36 38 39 43 37 31 31 27 27 28 27 27 27 29 29 30 29 28 28 27 28 26 27 26 22 20 21 20 22 25 23 24 22 18 17 17 16 15 17 18 18 20 21 21 21 21 22 23
36 37 37 36 36 36 37 38 38 40 34 31 30 30 29 28 27 27 27 29 30 29 29 28 27 26 25 26 24 22 19 18 19 22 27 24 23 22 21 19 18 18 18 18 19 19 20 20 20 20 21 22 23 23
35 33 33 34 35 36 37 38 36 33 31 29 29 32 29 28 28 27 28 29 31 29 26 27 25 23 28 24 22 23 21 22 27 27 25 23 21 19 18 18 19 20 20 19 19 20 20 21 22 22 21 19 21 22
35 36 35 34 35 36 38 37 33 30 27 29 28 28 29 27 27 28 28 30 29 29 29 26 27 25 23 21 21 24 26 27 27 26 24 22 23 22 21 18 17 18 17 17 19 19 20 20 19 18 20 21 23 23
37 37 36 36 37 35 30 29 32 26 27 29 30 29 28 28 29 29 30 31 33 32 29 28 25 23 23 25 23 24 25 24 25 25 24 24 24 19 15 15 16 17 18 18 18 18 19 21 21 22 22 23 22 23
38 38 35 39 38 30 26 26 31 26 24 27 30 28 29 29 30 30 31 31 31 30 28 26 25 25 25 24 27 26 27 25 23 21 18 17 17 16 15 16 17 18 18 19 20 23 24 23 23 24 24 24 23 23
34 32 37 35 31 29 27 26 25 25 27 25 27 27 26 29 28 29 29 31 29 29 27 27 26 26 25 25 26 26 27 24 18 8 1 3 11 14 14 15 17 18 19 19 19 20 22 22 21 21 21 20 21 21
32 33 31 32 28 27 24 27 24 26 25 24 24 26 24 23 23 25 28 27 27 26 23 23 22 23 20 19 22 20 19 22 17 15 18 17 16 16 17 17 17 16 18 19 20 20 20 20 21 22 22 23 23 23
32 32 29 28 24 22 22 28 21 23 21 20 23 20 19 19 20 24 24 25 25 25 24 22 20 20 19 20 19 18 19 17 16 16 16 17 18 18 18 18 19 19 18 19 21 22 22 22 23 23 23 22 21 21
33 26 22 21 22 19 24 20 23 21 22 20 18 16 16 18 21 20 17 18 20 25 25 21 20 18 19 19 18 17 18 19 16 16 17 16 15 14 17 17 17 19 19 20 20 20 20 20 21 20 20 21 21 21
21 21 22 18 22 20 18 17 17 18 16 17 15 14 15 18 17 16 12 12 21 19 20 22 21 17 11 12 15 16 19 19 16 14 14 18 15 17 17 18 18 18 19 18 18 19 19 20 21 21 22 22 22 21
17 19 19 18 18 17 17 15 17 16 16 14 13 13 15 15 10 3 8 13 16 17 17 17 16 17 17 18 13 13 14 19 19 15 14 16 16 16 14 15 16 17 18 19 19 19 19 20 20 21 21 21 22 23
16 18 19 19 16 16 15 16 16 15 13 11 11 12 11 2 1 5 13 18 15 17 19 20 19 16 11 11 15 17 17 17 16 14 15 17 18 20 19 17 18 18 19 20 20 20 19 20 20 21 21 22 23 23
20 19 15 16 15 15 13 13 11 10 12 13 11 7 3 2 4 10 13 17 18 19 18 19 19 16 14 14 15 16 17 19 18 18 19 20 21 22 22 22 23 23 24 24 24 24 23 22 22 23 23 23 24 26
19 19 17 15 16 14 13 11 11 14 15 13 8 8 8 12 15 14 16 17 18 13 11 11 12 15 17 19 19 19 19 19 18 17 16 14 14 15 17 19 21 22 22 22 24 25 25 25 25 25 26 28 28 27
19 20 16 15 15 14 17 16 16 17 16 15 16 15 15 15 16 18 17 16 15 14 15 15 16 16 15 16 18 19 20 20 21 20 17 15 16 17 18 19 20 21 22 22 23 23 24 25 25 27 28 26 24 22
22 21 17 16 17 18 17 17 18 17 15 14 15 13 12 13 16 18 18 17 17 17 17 16 16 18 19 18 18 17 16 18 20 21 22 22 22 22 22 23 23 23 23 23 23 24 24 25 26 26 24 22 21 21
18 17 17 17 17 15 14 16 16 16 15 16 15 13 14 15 15 16 17 18 16 15 16 19 16 15 18 20 20 20 21 20 19 20 20 21 21 22 23 23 24 24 25 25 26 26 26 25 25 23 22 21 21 21
14 15 14 15 17 15 12 12 10 11 10 12 12 13 14 14 14 14 15 17 13 8 7 10 14 17 19 19 19 20 22 21 22 24 25 25 23 23 24 24 25 25 27 27 26 26 25 24 23 23 22 21 19 18

GFSWCAN_sfc_30mbdewp_138.txt.gz
Dewpoint
46 51 53 52 51 50 48 45 45 46 49 49 48 48 48 47 46 41 40 40 36 33 34 33 33 28 26 25 21 29 28 29 27 22 18 15 11 12 16 20 17 12 13 14 16 12 -4 20 19 9 11 22 23 22
44 46 50 52 51 51 49 46 46 46 48 50 49 49 47 46 46 42 40 41 40 34 34 36 34 34 34 32 30 31 25 28 26 22 22 19 16 16 12 7 23 15 15 14 14 8 19 21 18 23 23 23 22 21
43 45 46 47 52 51 50 49 47 46 47 49 49 49 47 47 45 41 40 40 39 34 34 33 33 34 34 34 34 28 29 30 29 30 25 22 16 19 14 14 16 20 23 21 19 19 23 22 24 23 23 22 22 22
41 41 44 45 47 50 51 50 49 48 47 49 49 49 48 47 44 41 39 39 38 36 28 31 34 33 34 34 34 35 32 34 32 31 26 24 18 22 18 18 16 15 21 19 20 20 23 23 24 23 22 23 22 24
40 39 41 44 45 46 47 51 50 49 48 49 49 49 49 47 43 40 40 39 39 33 29 33 33 33 34 34 34 34 34 33 31 27 26 22 27 26 24 24 20 20 18 14 13 18 20 20 24 24 21 22 23 24
39 39 39 41 42 45 45 46 51 50 50 49 49 49 49 47 42 41 36 39 40 39 32 24 33 32 34 34 34 34 34 34 33 30 29 31 31 27 23 22 24 23 21 20 18 24 23 24 24 23 22 23 24 24
40 38 38 39 40 42 44 45 46 50 50 50 50 49 50 46 43 38 35 38 41 39 31 25 30 32 33 33 33 33 34 33 33 31 30 30 30 30 26 22 24 26 24 24 24 24 23 22 22 23 23 24 25 22
38 39 38 39 38 40 41 44 45 46 50 50 50 49 49 45 43 41 41 42 40 35 33 24 26 28 32 30 29 33 31 32 32 31 31 30 30 29 25 26 29 24 27 23 22 22 23 23 24 23 23 23 22 21
35 38 39 38 38 38 39 41 44 45 46 51 50 49 45 43 40 39 41 40 39 35 27 28 21 21 32 31 31 31 31 27 30 29 29 30 28 26 27 27 28 27 26 25 23 23 23 23 22 22 20 17 14 13
34 35 39 38 37 38 38 39 40 44 45 49 45 43 38 40 41 39 35 33 33 33 32 29 29 27 30 30 29 28 29 28 25 27 30 28 27 29 29 30 30 30 28 24 22 22 22 21 20 18 14 15 14 15
32 34 35 39 37 37 37 37 39 42 45 45 40 36 38 41 36 35 33 31 30 28 30 29 30 27 31 27 28 30 27 27 23 24 27 25 24 26 28 27 27 30 26 23 23 23 21 18 15 14 14 16 17 17
31 34 34 36 37 37 37 38 39 41 43 42 39 39 38 35 34 32 30 29 28 26 29 29 31 29 30 31 28 29 25 25 22 28 25 22 23 27 27 23 23 24 23 21 19 17 16 16 17 17 17 16 17 18
31 32 35 36 37 36 37 38 39 40 42 40 35 32 32 30 27 27 24 26 25 27 29 29 28 28 29 30 27 27 25 23 26 23 21 22 24 25 23 23 22 22 21 20 20 20 19 18 20 19 16 18 19 20
31 32 36 38 35 34 35 38 40 41 41 34 30 27 28 25 27 26 25 27 27 29 29 28 27 26 28 27 27 24 25 24 21 19 19 21 24 24 23 23 20 17 14 13 13 14 14 15 16 19 20 21 21 20
33 34 38 38 37 35 35 38 39 41 38 32 30 26 27 28 26 26 25 27 29 30 28 27 27 27 27 25 26 24 22 20 21 19 21 23 23 23 23 18 15 15 14 14 15 15 16 18 19 19 20 20 21 21
32 35 37 37 36 35 38 37 38 39 35 30 30 28 30 27 27 26 26 28 29 29 28 28 27 25 24 25 24 22 20 18 19 21 24 24 23 23 21 16 16 15 14 15 17 18 18 18 17 18 20 20 21 21
33 36 36 35 34 34 36 37 36 33 31 30 28 31 30 27 28 28 27 29 30 28 24 26 23 22 25 23 22 21 20 21 21 23 26 24 23 22 19 18 17 17 19 19 18 17 16 18 21 20 18 14 17 19
35 35 34 32 33 34 36 36 33 31 27 28 27 25 31 28 27 27 28 30 29 28 27 25 26 25 23 21 21 23 24 24 26 26 26 24 23 21 19 16 18 18 17 16 16 17 18 18 16 14 16 18 20 21
36 35 35 35 36 34 31 32 33 27 26 26 27 28 29 28 28 28 29 30 31 30 28 27 24 23 23 23 22 23 25 26 26 25 24 23 22 20 20 19 17 15 15 15 15 15 16 18 18 19 20 22 21 22
35 35 35 37 37 31 27 28 32 28 24 25 29 27 28 29 28 29 30 30 30 29 27 27 25 25 24 26 26 25 27 26 25 24 23 23 23 22 19 16 14 13 14 16 17 20 21 20 21 22 22 22 22 22
36 36 37 38 34 31 28 26 26 27 26 25 27 28 28 30 29 29 30 32 30 30 29 29 27 27 27 26 27 28 25 25 23 23 23 21 19 17 14 15 16 17 16 15 15 16 20 20 20 20 21 21 21 21
32 33 31 32 28 27 25 27 24 26 24 24 25 26 25 24 25 29 30 29 29 30 28 27 27 26 24 25 26 27 25 23 19 13 11 12 6 10 12 12 14 13 15 15 16 16 17 18 19 21 21 21 22 23
32 31 29 29 24 23 22 28 21 23 20 21 22 21 20 21 23 25 26 28 28 28 25 25 24 25 23 24 22 22 25 23 19 13 13 13 14 16 16 16 18 15 14 15 19 19 19 21 22 23 23 23 23 22
32 26 23 22 22 19 23 20 23 21 22 19 18 15 17 18 22 21 21 22 23 25 26 24 25 26 25 22 17 16 18 19 15 15 16 14 13 13 15 15 16 17 18 18 18 19 20 20 21 21 21 21 20 20
22 21 22 18 22 19 17 17 17 17 15 16 14 14 15 17 17 18 18 17 23 25 29 30 29 24 17 16 18 18 20 19 16 12 14 17 15 15 15 16 16 16 18 17 17 18 18 19 19 20 20 20 20 20
17 18 18 18 18 17 17 15 16 16 15 13 13 15 15 17 17 17 19 18 25 27 28 28 28 21 17 15 12 13 14 19 19 16 13 17 17 15 11 11 11 13 18 19 18 18 18 19 19 19 19 20 21 22
17 17 20 22 20 18 18 18 19 18 16 14 13 13 16 16 12 12 17 23 21 22 25 23 21 19 16 18 18 17 16 18 16 15 16 17 18 18 16 14 14 16 19 19 20 20 20 20 20 21 21 21 21 21
19 18 16 17 17 16 16 14 14 15 16 16 16 13 8 6 5 11 15 18 20 20 20 21 21 19 16 14 15 16 17 18 17 17 18 18 19 19 20 21 21 22 23 23 23 23 23 23 23 23 23 22 23 23
18 19 17 15 15 15 14 13 13 15 15 15 12 9 9 13 16 15 17 19 19 15 13 13 16 18 18 18 18 18 18 17 17 14 13 13 13 14 16 18 18 19 19 20 22 24 24 24 24 25 26 26 26 26
19 20 16 15 15 16 17 17 17 16 16 16 16 15 14 15 16 18 17 15 14 13 13 13 13 15 14 14 13 15 17 18 19 18 14 13 14 16 16 17 18 19 20 20 21 22 23 24 24 24 23 24 25 25
19 20 17 16 17 17 15 13 15 16 14 14 14 13 13 14 16 17 17 17 17 16 15 14 14 14 15 14 15 14 12 16 18 19 20 20 20 20 20 21 21 21 21 22 22 22 23 24 23 23 23 23 23 24
15 16 16 16 16 13 11 14 13 14 14 15 15 13 15 15 14 15 17 17 16 15 15 16 12 10 14 16 17 18 20 19 18 18 18 20 20 21 21 21 22 22 22 22 24 24 25 25 24 23 23 22 22 22
12 12 11 15 16 15 11 10 10 11 10 12 12 11 12 14 13 14 14 16 16 13 10 11 14 15 17 17 18 18 21 20 21 23 25 25 25 23 23 22 21 21 22 23 24 25 25 24 23 22 22 21 21 20

GFSWCAN_sfc_30mbdewp_141.txt.gz
Dewpoint
45 46 50 53 52 51 49 48 45 44 46 49 48 48 47 47 45 41 40 39 35 32 33 33 33 28 26 27 22 28 27 28 26 19 17 15 11 15 16 18 17 12 11 14 16 11 -7 19 19 11 9 21 22 22
43 45 46 50 52 52 51 49 47 45 45 48 49 49 47 46 46 42 39 41 39 32 33 35 34 34 34 32 29 31 22 27 26 21 22 18 15 15 12 5 22 11 11 10 12 5 14 20 16 20 22 22 22 21
41 43 44 46 48 51 51 50 49 46 45 46 50 49 48 47 45 41 39 39 37 33 33 33 32 33 34 34 34 29 30 28 29 28 23 20 15 17 12 12 16 20 21 18 19 19 20 22 23 23 23 23 22 22
40 40 43 44 45 47 51 51 50 49 47 46 49 49 49 47 45 41 39 39 37 34 27 29 34 33 34 34 34 35 32 33 31 30 25 22 17 22 18 18 16 15 21 20 20 20 21 23 24 23 23 23 22 23
40 39 41 43 43 45 46 49 51 50 49 48 48 49 49 48 44 41 39 39 39 33 26 32 33 33 34 34 33 34 34 32 30 26 26 21 26 24 24 23 20 20 17 15 14 17 19 19 22 24 22 22 22 23
41 39 39 40 42 44 45 46 47 51 50 49 49 49 49 47 42 41 35 39 40 38 31 25 32 32 34 34 34 33 34 34 32 29 27 30 31 27 22 20 22 21 21 20 18 24 22 24 25 23 21 22 24 24
36 41 39 39 40 41 43 44 46 47 50 50 50 50 49 46 42 39 34 37 41 38 29 25 29 32 33 33 33 33 34 33 32 31 29 30 30 30 26 21 22 27 26 24 24 24 22 23 23 23 23 24 26 23
34 37 40 39 38 39 40 41 44 45 46 49 50 50 50 46 43 41 41 42 39 34 31 24 25 28 32 30 29 32 31 31 31 30 31 30 30 29 25 25 27 25 25 23 23 22 23 23 23 23 24 23 21 21
33 34 36 39 38 38 39 40 40 43 45 46 50 50 45 44 41 40 42 39 38 34 27 27 22 22 32 31 31 31 30 27 30 29 29 29 27 25 26 27 28 28 25 24 23 23 23 23 23 22 21 21 20 16
32 33 34 35 39 38 38 38 39 41 44 46 46 43 38 41 42 40 35 34 34 33 32 28 28 25 31 30 29 28 29 27 24 26 29 28 27 29 29 30 31 30 27 24 23 22 22 22 22 19 16 14 11 12
29 31 32 35 36 39 37 38 39 41 45 44 40 36 39 42 37 37 34 32 30 29 30 30 28 27 31 28 28 29 26 27 22 23 26 25 24 26 28 28 28 29 29 24 23 24 23 21 19 15 14 15 15 16
28 30 30 33 34 37 38 38 39 41 41 40 39 39 38 35 34 32 30 30 29 27 29 28 29 28 30 30 27 29 25 25 21 27 25 22 23 26 27 24 24 27 25 23 22 21 19 16 15 13 14 14 15 17
27 27 29 32 34 36 38 38 38 41 43 40 34 32 31 30 27 27 25 26 27 27 28 29 27 28 29 29 27 27 25 23 26 24 21 22 23 26 25 23 23 22 21 19 18 17 17 18 20 17 15 17 18 18
29 30 32 32 34 36 36 37 38 40 40 33 30 26 27 25 27 27 26 27 28 28 29 27 26 26 28 27 26 23 24 24 21 20 19 20 23 25 23 22 21 20 19 18 18 17 15 14 14 17 18 19 19 17
32 32 33 33 36 37 35 37 39 40 38 32 30 25 27 29 26 25 23 27 28 30 28 26 26 27 26 25 25 23 22 20 21 18 20 21 23 24 23 22 19 17 14 13 15 15 15 16 16 14 17 18 19 19
31 30 31 33 37 36 35 37 38 37 34 31 30 27 30 28 27 27 25 27 29 29 28 28 25 24 23 24 23 22 21 19 19 21 22 24 24 24 23 20 15 13 13 12 13 13 14 15 15 14 17 18 18 18
29 31 35 35 37 37 37 37 35 32 30 30 27 30 29 28 28 29 27 28 30 28 24 25 22 20 24 23 22 23 20 20 21 21 23 25 24 23 22 17 15 15 13 15 16 16 16 17 18 18 15 14 15 16
32 34 35 36 35 35 35 35 31 30 26 28 25 25 30 30 28 28 28 30 29 28 27 25 25 24 22 20 21 23 23 23 24 23 25 24 24 23 20 16 17 16 16 17 17 15 16 16 16 16 16 16 18 18
33 34 35 38 35 33 30 31 31 25 26 26 26 26 28 27 28 28 29 31 31 31 30 27 26 23 22 24 22 23 24 25 25 25 26 24 23 23 19 18 17 17 16 14 14 14 15 16 15 17 18 19 18 19
33 35 36 39 35 30 28 28 32 25 22 24 26 24 26 25 27 28 29 30 31 31 29 28 28 26 24 25 25 24 26 27 25 25 24 23 22 21 19 18 17 15 14 15 16 19 18 16 16 17 18 19 20 20
37 37 38 37 34 31 27 24 26 27 24 23 26 26 25 28 27 27 28 30 30 29 28 30 29 28 27 27 27 27 27 27 25 24 24 23 23 22 20 20 17 16 14 13 11 10 17 16 16 17 18 19 20 21
32 36 32 34 30 29 28 27 23 25 25 24 26 26 25 26 26 28 29 28 28 28 29 29 29 29 28 26 26 28 27 26 23 24 24 24 21 20 20 17 16 13 12 10 11 11 12 14 17 18 19 20 21 22
34 32 30 29 24 23 21 27 23 22 20 22 23 23 22 22 23 29 27 28 27 27 28 28 27 27 27 25 26 26 24 21 19 20 21 20 20 19 16 13 14 9 7 10 17 16 16 18 20 21 22 22 22 22
33 27 24 23 23 19 23 20 23 22 22 20 20 19 16 18 20 22 21 22 23 26 27 25 25 24 23 23 24 24 24 23 18 14 14 10 9 10 13 12 15 16 16 16 17 18 18 18 20 20 20 20 20 20
22 21 22 18 22 19 17 17 18 17 16 16 14 14 16 17 17 17 17 18 21 24 26 25 25 24 22 24 22 23 25 26 23 17 15 14 12 13 13 14 14 14 18 16 15 16 16 18 18 18 19 19 19 19
17 19 18 18 18 17 16 15 15 15 14 14 13 14 15 16 15 15 16 17 21 24 27 27 27 28 29 31 31 29 23 22 18 14 14 16 15 11 10 9 8 8 17 17 16 16 16 17 17 18 18 19 21 21
17 17 20 23 20 19 18 18 19 18 15 14 14 13 14 15 15 16 19 22 25 26 30 31 32 31 30 28 22 18 18 21 17 15 17 18 18 18 15 11 10 12 17 18 18 18 18 19 19 20 20 21 21 22
19 19 16 18 18 18 16 16 16 16 17 17 17 15 16 16 11 14 19 22 25 26 29 30 29 26 22 20 20 19 18 19 18 17 17 17 18 18 19 19 19 20 21 22 22 22 22 22 22 22 22 22 23 24
19 20 18 17 17 17 15 15 16 17 17 17 15 13 11 14 16 16 18 20 21 22 21 22 21 18 17 17 17 16 16 16 15 13 13 12 12 12 14 16 17 18 18 18 20 23 23 23 23 23 25 24 24 24
18 21 16 15 16 16 17 16 16 17 17 16 16 16 15 14 16 18 18 18 15 13 15 15 16 16 13 14 14 16 16 17 17 16 10 8 10 14 15 16 17 18 18 19 20 20 22 23 23 23 23 22 22 22
15 16 15 16 17 16 14 12 13 16 14 14 13 13 14 14 15 18 17 17 16 14 15 14 14 13 14 14 13 10 9 15 17 18 18 18 18 18 19 19 19 19 20 20 20 20 20 21 21 21 23 23 22 22
12 13 14 16 16 13 9 11 12 13 13 14 14 13 14 14 10 15 17 17 16 15 16 14 9 9 13 15 15 16 19 17 16 17 17 18 19 19 20 20 20 20 20 20 20 20 20 21 22 23 23 23 22 21
11 11 11 13 14 15 10 9 10 11 10 11 10 8 10 11 10 14 13 13 16 14 13 13 14 16 16 17 17 19 21 19 21 23 24 23 24 22 21 20 20 20 20 20 21 21 21 22 23 23 21 20 19 19

GFSWCAN_sfc_30mbdewp_144.txt.gz
Dewpoint
41 43 46 47 51 52 51 49 47 45 46 48 49 47 47 47 46 41 39 39 34 30 32 32 32 28 26 27 23 28 26 27 25 18 15 14 10 14 16 17 17 15 12 13 15 7 -11 17 19 10 9 19 22 23
40 42 44 45 47 52 52 50 48 46 46 46 48 48 47 47 46 42 39 40 38 32 31 35 34 34 33 29 26 30 21 26 25 19 21 17 15 14 11 5 21 10 10 8 13 4 10 19 17 18 20 21 22 22
41 41 43 44 45 48 52 51 50 48 46 45 47 49 49 47 46 41 39 39 36 33 33 33 32 33 34 34 34 28 30 28 28 27 23 20 15 16 11 11 14 20 20 14 18 17 18 18 22 22 23 22 23 22
41 40 42 43 44 46 47 51 51 50 48 46 46 49 49 48 45 42 39 39 36 33 27 28 34 32 34 34 34 34 31 32 31 29 25 22 18 20 18 18 15 16 21 19 19 20 20 21 23 23 23 23 22 23
41 40 40 41 42 44 45 46 50 50 49 48 48 48 49 48 45 41 39 39 39 33 27 31 33 33 34 34 33 34 33 31 29 26 25 21 25 23 24 23 20 20 17 16 14 17 18 18 22 24 23 22 22 22
37 40 40 39 41 42 43 45 45 49 50 49 49 49 49 47 42 41 36 38 39 38 31 26 32 32 34 34 33 33 33 33 31 27 25 28 31 26 21 19 21 21 21 19 17 23 22 23 24 24 23 22 23 24
33 36 40 40 39 41 41 43 44 45 49 50 50 50 50 46 42 40 35 37 40 38 30 25 27 32 33 33 33 33 33 32 31 30 28 29 29 30 26 21 21 24 23 25 22 23 22 23 23 22 22 24 26 24
33 34 37 39 39 39 40 41 43 43 45 48 50 50 50 46 44 42 41 42 38 33 30 24 24 28 32 30 29 32 31 31 31 30 30 29 30 29 25 25 25 26 24 24 24 23 23 24 23 23 25 23 22 21
33 33 34 36 38 39 39 40 41 42 43 45 48 50 46 44 41 41 42 39 37 33 28 26 23 22 32 31 30 31 30 27 29 28 28 29 27 25 26 26 27 27 25 23 23 23 23 23 22 23 23 22 21 18
31 32 32 34 35 38 39 38 40 41 43 47 47 44 38 41 43 41 38 36 35 34 31 29 28 25 31 30 28 28 28 26 23 26 29 28 27 29 29 29 29 29 27 24 23 22 22 22 22 21 21 20 19 14
31 28 30 31 34 35 39 38 39 41 44 41 38 35 39 42 38 38 34 33 32 30 31 30 27 27 31 28 27 28 25 26 21 22 26 24 24 25 28 29 30 31 28 25 24 25 24 23 22 17 15 13 14 15
32 27 29 29 32 34 37 38 38 40 41 39 38 39 39 35 34 32 30 31 30 28 29 28 28 28 30 30 27 28 24 25 20 26 24 21 23 26 27 26 25 27 30 26 24 23 22 22 19 15 14 15 15 15
34 29 27 27 29 32 36 38 38 42 43 39 34 32 30 30 27 27 26 27 28 29 28 28 27 28 29 28 27 26 24 22 25 23 21 21 23 25 27 24 24 25 26 24 21 20 17 16 15 15 14 16 17 17
32 31 29 31 32 32 35 38 38 40 39 32 30 25 26 25 27 27 27 27 29 28 29 27 26 26 28 26 26 23 24 24 21 19 17 19 22 24 26 24 23 23 21 20 18 17 17 17 16 16 15 17 17 14
32 32 31 33 34 34 36 37 38 39 37 31 31 24 26 28 27 25 23 26 28 30 27 26 26 27 26 25 25 23 21 20 20 17 19 20 22 25 25 23 22 20 19 17 17 15 15 15 15 15 18 18 17 16
31 32 32 31 31 33 36 36 37 37 35 31 30 27 29 28 26 28 25 27 29 29 28 27 25 24 23 24 22 21 20 18 18 22 22 22 22 25 24 22 21 18 16 14 14 14 14 14 12 12 15 16 16 17
32 31 31 31 34 36 36 36 34 30 30 29 26 29 28 28 29 29 27 28 29 28 26 26 22 20 24 23 22 23 20 20 22 22 23 23 23 24 24 21 18 15 13 12 13 14 13 15 16 15 10 11 14 15
29 31 33 31 34 38 36 35 31 28 24 26 25 26 28 30 28 28 28 30 31 29 28 28 25 23 21 19 20 23 24 24 23 23 23 24 25 24 23 20 16 14 13 14 15 15 15 14 13 13 14 15 15 16
30 31 33 34 37 33 29 30 30 25 24 25 26 25 27 27 28 28 29 31 32 33 32 28 27 26 23 23 23 23 23 24 24 25 24 25 25 24 22 18 16 15 15 16 16 14 13 13 12 13 15 17 16 16
31 33 34 34 37 31 28 28 31 24 21 23 25 24 24 23 24 27 28 30 31 31 29 26 25 28 26 25 25 25 25 26 25 24 24 25 24 23 21 18 17 17 16 15 15 16 14 15 17 16 16 16 18 17
31 32 33 34 33 30 26 23 26 27 23 22 23 23 23 26 25 25 26 28 29 27 25 27 27 26 28 28 27 27 27 27 26 25 24 24 23 23 21 19 18 17 13 12 10 12 18 12 11 15 15 15 17 19
33 36 33 34 30 29 28 25 23 24 24 24 24 23 23 23 24 25 25 27 26 25 25 24 25 27 29 29 29 28 27 27 27 26 26 26 23 22 21 20 18 16 13 11 11 7 6 9 13 15 16 17 20 21
33 32 30 29 26 24 22 27 24 22 20 20 23 23 22 22 22 27 25 26 24 25 26 26 26 28 28 29 29 28 27 27 26 25 25 24 24 23 22 21 19 16 12 13 15 12 10 14 17 19 20 20 21 20
33 28 24 23 23 19 22 20 22 21 21 20 20 19 18 19 21 24 22 21 22 25 26 26 27 26 25 25 26 26 26 25 24 22 23 22 22 21 20 19 18 17 14 14 14 14 15 15 18 19 19 19 18 18
22 21 22 18 21 18 16 16 17 18 16 17 17 15 15 17 18 18 17 16 19 21 24 26 26 27 26 26 26 24 25 23 21 20 18 19 19 17 18 15 14 14 18 15 13 13 13 16 16 17 17 17 17 18
18 20 17 18 18 16 14 14 14 14 13 14 13 12 14 16 15 15 14 15 17 20 23 25 25 26 26 26 25 24 25 25 22 17 18 16 13 10 8 7 7 8 17 16 13 12 13 15 16 16 17 17 20 21
16 16 19 23 21 20 17 19 18 15 14 13 13 13 13 13 14 15 17 19 21 24 25 27 27 26 26 27 26 27 27 26 28 28 24 21 19 17 14 9 8 11 16 16 16 15 16 17 18 18 19 19 20 20
20 20 16 18 18 19 17 17 16 16 17 18 16 13 14 16 16 14 17 21 24 26 29 31 31 32 32 31 29 25 23 23 19 19 19 19 19 19 18 18 19 20 19 19 19 19 19 19 20 20 20 20 21 22
19 21 20 17 17 17 16 15 16 18 19 18 16 17 15 15 15 16 19 20 21 25 27 28 25 24 19 19 21 19 20 20 15 12 11 12 12 12 14 15 16 17 18 19 21 23 22 21 21 21 22 22 23 24
17 17 16 16 16 15 16 16 16 18 19 18 16 16 16 17 18 19 18 16 15 18 21 23 21 19 15 16 16 16 17 18 16 14 12 10 10 14 14 16 16 16 16 18 19 19 22 21 21 20 21 20 20 21
13 13 15 16 16 16 13 11 11 14 14 14 13 14 14 14 16 18 18 17 15 15 14 14 14 13 14 13 13 13 13 16 17 17 17 16 16 17 18 19 18 19 19 19 19 19 19 19 19 19 20 20 20 22
12 14 14 15 16 13 9 10 10 11 11 13 12 12 13 13 9 15 13 14 16 15 17 15 14 13 15 15 15 18 17 15 16 17 17 19 19 19 20 19 18 18 19 19 18 18 19 19 19 19 19 19 21 22
9 8 9 11 13 14 10 9 10 10 9 9 8 7 8 10 10 13 11 12 14 14 14 14 15 15 14 16 18 20 20 20 21 22 23 22 22 21 20 20 19 20 20 20 20 20 20 19 18 18 18 17 17 17

GFSWCAN_sfc_30mbdewp_147.txt.gz
Dewpoint
40 41 43 46 47 48 53 51 50 48 47 46 46 48 46 47 45 41 38 38 34 30 30 31 31 27 26 27 23 28 26 26 25 19 14 12 10 12 16 16 18 18 15 15 14 8 -1 14 18 8 8 16 21 23
41 40 41 44 45 47 52 51 50 48 47 45 46 48 48 47 46 42 38 40 37 32 30 35 34 34 33 28 25 30 21 25 25 19 19 17 14 13 12 5 19 10 10 7 12 6 7 18 17 17 19 19 21 23
42 40 41 41 44 46 47 52 51 49 47 47 46 48 48 48 46 42 39 39 36 33 32 32 31 33 34 34 34 27 29 28 27 26 22 20 16 16 10 11 12 19 18 12 15 15 16 16 20 21 22 22 22 22
40 41 41 41 41 44 45 46 50 50 49 47 46 47 49 48 46 41 39 39 35 32 28 27 34 32 34 34 34 34 30 31 30 28 25 22 18 19 16 17 14 16 20 18 17 18 20 21 22 23 23 23 22 22
37 39 41 40 40 42 43 44 45 49 50 49 47 46 49 48 46 41 39 39 39 33 27 29 33 33 34 33 33 34 32 31 29 26 24 21 23 21 23 23 20 20 18 17 14 18 16 18 21 24 23 23 23 22
33 35 40 41 40 40 42 43 44 44 48 49 49 47 49 48 43 41 37 38 39 37 31 26 32 32 33 33 33 33 33 32 30 25 24 26 29 25 20 19 20 21 20 20 16 19 21 22 24 24 23 23 23 23
34 34 37 39 40 40 40 41 43 43 44 49 49 49 49 46 43 40 36 36 40 37 31 27 27 32 33 33 32 33 33 32 31 29 28 28 29 30 26 20 20 22 21 21 21 22 21 22 22 23 23 24 26 25
33 33 34 36 39 40 40 40 40 41 43 44 49 50 49 46 44 42 41 42 38 33 30 24 24 29 32 30 30 32 31 31 31 29 30 29 29 29 25 25 25 26 25 24 25 23 23 23 23 23 25 24 23 22
34 33 33 33 36 38 40 40 39 40 42 44 47 50 46 44 42 42 42 39 37 34 29 26 24 23 31 30 30 30 30 27 29 28 28 29 27 25 26 26 26 26 24 24 23 23 23 23 23 24 23 22 21 20
34 31 31 32 35 36 38 39 39 40 43 46 47 43 38 41 43 42 39 37 36 35 31 29 28 25 30 29 28 28 28 26 23 26 29 27 27 29 28 29 28 28 26 24 22 22 23 22 22 23 22 22 20 17
35 32 28 30 31 33 36 39 38 40 43 39 36 33 40 42 40 39 34 33 33 31 32 31 27 26 31 27 27 28 26 26 21 22 26 24 23 25 27 28 30 29 27 24 24 24 24 23 22 21 20 20 17 13
35 32 28 28 29 32 34 38 38 39 40 38 36 39 39 35 34 31 30 31 30 29 30 29 28 29 30 30 27 27 24 25 19 26 24 20 21 25 27 27 28 29 29 25 24 24 24 23 22 18 15 14 14 15
35 32 29 27 28 28 33 37 39 41 41 38 34 32 31 30 27 27 25 27 28 29 29 28 27 29 28 28 27 25 23 22 25 22 20 19 21 24 26 25 25 26 29 26 23 22 22 20 17 15 14 15 15 15
34 34 31 29 30 33 32 35 38 42 38 31 29 26 26 25 26 28 27 27 27 28 29 27 27 27 28 25 26 22 23 24 21 19 16 19 20 23 26 25 24 25 25 24 21 19 18 16 14 15 14 15 15 14
33 32 32 30 32 34 34 35 38 39 35 30 30 23 26 27 27 27 24 26 27 29 27 26 27 27 26 25 24 23 21 20 20 17 18 20 21 23 25 24 24 23 21 20 18 17 16 16 14 15 17 17 17 15
34 32 31 33 33 31 33 36 37 36 34 30 30 27 29 28 27 28 26 27 29 29 28 27 25 24 24 24 22 21 19 17 17 21 22 22 22 23 25 24 23 21 19 17 16 16 15 15 14 12 15 15 14 14
32 30 33 31 30 33 36 35 34 30 28 27 25 29 29 29 29 28 28 29 31 30 28 28 25 24 24 22 21 22 19 19 21 22 23 23 23 23 25 24 22 19 17 15 14 14 13 14 15 12 8 10 13 14
30 32 32 31 33 35 36 35 30 26 22 24 24 25 27 28 28 29 29 31 31 30 29 27 27 23 21 20 20 23 24 24 24 24 24 24 24 24 25 23 20 17 15 14 14 14 14 13 12 10 11 13 14 14
31 31 32 33 35 33 30 30 31 23 22 23 24 25 26 27 28 28 29 31 32 33 32 29 26 25 25 23 22 23 23 24 24 25 25 25 25 25 24 22 19 16 14 14 14 13 13 13 10 11 12 14 11 13
34 32 33 34 35 30 27 27 31 24 20 23 25 23 24 22 22 26 27 29 31 31 29 27 23 22 26 26 25 25 26 26 25 25 25 25 25 24 23 21 18 16 15 16 16 16 13 13 14 14 15 15 14 13
32 32 33 34 33 31 28 25 26 25 22 21 22 23 21 24 23 23 23 27 28 26 23 24 22 22 23 24 26 27 27 27 26 26 26 25 25 24 23 21 19 17 15 15 13 13 16 10 10 12 14 16 16 16
32 33 32 34 30 29 27 26 24 26 24 22 23 22 22 22 22 23 23 24 24 23 23 22 22 22 23 24 27 28 28 28 28 28 28 27 24 24 23 21 19 17 16 15 11 8 8 13 14 13 14 14 19 19
35 34 31 30 26 25 22 25 23 22 19 19 21 20 20 20 22 23 23 24 23 23 24 24 24 24 24 25 26 27 28 28 28 28 27 27 26 25 24 23 21 19 18 17 15 11 8 11 13 18 18 18 18 18
34 28 25 24 24 19 21 20 21 20 19 19 18 17 18 19 19 23 21 20 20 21 22 23 24 25 25 25 26 26 27 27 28 27 27 26 25 24 24 23 21 21 19 18 15 14 14 13 16 17 17 16 16 17
24 22 22 19 19 18 16 16 16 17 16 16 17 16 15 16 17 17 16 15 16 18 19 22 25 25 25 24 25 26 27 26 26 26 25 24 24 21 21 20 19 19 19 16 13 11 12 16 16 15 15 16 16 16
18 20 18 16 16 16 14 13 13 13 13 15 14 12 13 16 15 14 14 15 16 18 19 20 22 23 25 26 26 25 25 25 24 24 22 22 22 22 21 19 18 16 18 15 13 12 12 13 14 15 15 16 19 21
17 17 18 22 20 19 16 17 15 14 13 13 13 13 13 12 12 13 15 17 20 21 23 26 25 24 24 25 26 26 25 25 23 23 21 21 21 21 21 19 14 12 17 17 16 14 12 14 16 16 17 17 18 18
20 19 15 17 18 19 16 16 15 15 15 17 15 12 13 12 14 14 14 18 20 21 26 28 29 28 28 27 28 28 27 26 26 24 22 20 21 21 20 20 21 19 17 17 17 17 17 18 18 18 19 19 19 19
19 20 20 16 16 16 16 16 16 18 20 18 15 16 18 19 16 16 17 19 18 23 27 28 26 26 25 24 24 25 25 22 17 15 14 12 13 13 15 18 18 19 20 21 24 23 21 21 20 21 21 21 21 21
16 16 16 16 16 15 17 17 17 18 20 20 20 19 19 17 18 18 17 16 15 16 20 24 21 19 19 19 18 18 19 18 17 14 12 11 12 15 16 17 17 17 18 19 19 19 22 21 20 19 19 18 18 18
12 12 14 16 17 16 14 11 10 13 16 16 15 16 17 15 15 17 13 14 15 15 16 15 14 14 15 14 14 14 15 16 17 16 16 16 18 19 19 19 18 18 18 19 19 18 18 18 18 18 18 18 18 19
10 12 13 14 15 13 9 10 9 10 10 12 13 10 12 12 10 14 13 14 14 15 16 14 13 14 15 16 17 18 17 16 17 18 19 19 19 19 19 18 17 18 18 18 18 18 18 18 18 18 18 17 16 16
8 6 8 9 12 13 10 8 9 8 8 7 7 6 7 8 9 12 11 12 13 13 13 13 13 14 17 18 19 19 20 20 23 23 23 23 23 21 19 18 18 19 19 19 19 18 18 17 17 16 15 14 14 14